GFSCGP_sfc_temp_000.txt.gz
Temp
64 57 51 54 57 60 60 54 52 52 61 60 55 53 55 57 59 58 59 59 60 60 62 63 63 63 62 61 61 59 60 62 63 57 57 55 56 58 59 58 59 60 60 59
57 51 60 64 62 59 58 55 52 57 63 59 54 51 55 58 57 59 59 58 58 59 61 61 60 59 57 58 58 58 58 59 59 57 56 57 56 56 57 60 61 59 57 58
53 59 65 62 58 57 53 53 51 53 56 57 57 50 53 57 59 60 58 58 59 59 58 60 59 56 56 57 58 60 59 58 58 58 57 56 56 57 56 56 55 56 55 55
58 63 62 58 57 55 49 57 57 55 50 45 52 38 49 52 54 56 57 55 57 58 60 59 57 56 56 56 57 59 60 60 59 58 56 55 52 52 52 51 51 51 52 53
54 56 56 55 56 58 54 58 55 53 48 45 48 42 46 53 50 51 52 54 54 56 56 56 56 58 57 56 56 57 59 59 59 58 56 53 52 51 50 49 49 50 50 51
58 61 59 56 60 60 60 55 53 51 47 35 47 43 42 46 51 54 54 54 55 54 55 56 57 58 57 56 56 56 58 59 58 56 55 54 52 50 48 47 47 47 48 49
56 56 60 61 56 59 56 48 36 35 31 32 50 43 43 53 56 56 54 54 55 55 54 55 56 56 56 55 57 57 58 59 58 55 52 51 49 48 47 47 49 49 49 48
46 41 54 61 55 51 51 48 35 31 27 38 48 38 43 54 58 59 59 56 57 57 55 54 54 55 55 55 55 55 54 53 52 51 50 50 50 51 52 52 47 49 46 45
45 46 57 58 58 56 51 43 51 39 34 32 38 45 52 57 57 60 60 59 54 53 53 54 53 54 54 54 52 55 56 54 52 52 51 52 53 53 52 52 48 47 45 47
51 44 54 59 60 59 54 55 42 36 29 27 36 39 41 48 51 54 51 50 51 52 53 53 53 52 52 53 55 56 55 52 51 51 52 54 54 52 48 46 44 44 44 45
51 47 47 54 50 48 50 47 46 44 34 27 24 34 48 50 51 49 50 51 50 50 50 51 51 51 51 52 52 51 50 51 50 49 50 49 48 47 46 44 45 44 44 45
51 44 33 46 55 56 52 49 45 31 35 29 27 34 51 50 52 53 52 52 53 51 51 51 50 51 50 49 49 48 48 49 49 48 48 47 47 47 45 44 43 43 43 43
50 40 31 40 49 52 50 51 49 42 33 33 25 31 53 51 51 52 49 50 49 49 49 48 48 49 48 48 48 47 46 46 47 47 46 46 47 45 43 43 44 43 42 43
51 45 39 33 40 44 41 47 47 43 29 33 32 41 45 46 46 47 47 47 46 47 48 48 47 47 46 47 46 46 45 45 45 45 44 44 45 46 42 41 41 42 43 43
48 38 40 44 46 46 45 44 44 44 42 35 40 41 44 45 45 46 47 47 48 47 48 49 47 45 45 45 45 45 44 45 45 44 43 42 41 41 42 43 42 41 40 43
45 35 33 35 44 42 40 44 44 45 46 45 42 40 47 47 46 45 46 45 46 47 47 47 46 46 46 45 43 45 44 44 44 42 42 43 42 42 41 41 40 39 39 40
37 31 30 30 34 34 31 40 45 46 45 45 36 42 45 43 44 42 43 45 45 45 46 45 45 46 45 43 44 43 43 44 43 42 42 42 41 40 39 40 39 38 38 41
34 33 28 25 27 22 43 50 50 44 45 45 43 43 45 44 43 44 45 44 44 46 47 45 46 45 44 43 43 43 43 42 41 40 41 40 40 39 39 38 38 38 40 38
42 29 27 24 24 34 42 48 46 43 39 45 43 43 45 44 43 41 46 47 46 46 46 46 45 45 43 43 43 42 42 41 40 40 39 39 38 38 37 38 37 37 36 32
40 32 29 27 20 20 37 48 52 50 34 45 44 42 43 42 29 36 45 45 46 47 47 46 45 44 42 43 43 41 40 39 39 39 39 39 38 37 37 36 34 34 34 33
27 25 25 24 17 29 43 49 51 33 36 44 44 42 41 38 38 43 44 45 47 47 46 46 44 42 43 42 42 40 39 38 40 40 39 38 38 37 36 35 34 34 31 30
31 27 23 23 19 25 47 49 39 42 41 43 43 43 42 42 43 45 46 45 45 44 44 44 42 41 41 42 41 39 38 40 39 38 37 36 36 37 39 35 33 32 29 27
36 37 32 35 34 45 48 48 47 46 43 43 43 44 45 44 44 46 44 43 42 41 41 42 40 40 41 41 41 38 39 39 38 36 35 34 35 35 34 32 30 27 26 22
44 47 35 38 46 46 49 46 47 47 45 45 46 46 47 45 45 42 41 40 40 39 39 40 39 38 38 39 40 38 39 38 36 34 34 33 32 32 31 31 30 27 20 19
41 47 42 39 45 44 46 46 46 46 46 46 48 48 48 46 41 41 40 39 39 38 39 39 37 37 37 38 37 38 37 36 33 34 33 31 28 29 29 29 29 27 28 26
45 44 36 39 47 46 45 46 47 46 46 48 48 46 45 42 40 40 38 38 38 36 37 37 37 36 36 36 36 36 35 33 33 32 31 28 26 24 29 31 31 33 33 32

GFSCGP_sfc_temp_003.txt.gz
Temp
59 55 49 51 53 56 54 50 50 49 57 51 47 47 49 52 54 52 53 53 54 55 56 58 58 58 60 57 58 58 58 58 58 55 55 54 53 54 54 56 56 55 55 56
56 49 56 60 58 56 55 51 48 54 56 52 49 47 50 53 52 53 53 53 54 55 57 57 57 57 55 56 58 57 57 57 57 55 53 53 53 53 57 58 57 55 54 53
51 55 62 59 55 54 51 48 49 50 52 53 52 47 49 54 54 55 54 53 54 54 54 56 56 54 55 56 56 58 57 57 57 56 55 54 54 53 53 51 50 51 52 52
55 59 58 55 54 52 47 54 54 52 47 41 48 34 44 48 49 51 52 53 53 56 56 56 55 54 55 54 55 56 58 57 58 56 55 54 53 52 49 48 48 49 50 49
52 53 54 53 52 55 52 55 52 52 45 44 44 38 41 49 45 48 49 53 55 53 55 54 55 56 54 54 54 55 57 58 57 56 54 52 50 48 47 46 47 47 47 47
54 58 56 53 57 56 58 53 50 47 44 33 43 40 39 43 47 49 51 53 55 52 51 54 56 56 55 53 52 53 55 56 56 54 52 50 48 46 45 45 46 46 46 46
53 53 56 57 52 55 53 46 35 35 30 30 45 41 41 50 52 52 52 51 51 52 54 56 56 52 52 50 51 54 53 51 50 49 48 47 46 46 47 47 46 48 48 47
44 40 52 58 52 48 48 46 34 31 26 35 44 36 42 51 55 56 54 53 52 54 52 50 50 50 50 51 50 51 51 50 50 50 49 48 49 48 48 51 50 46 44 43
43 44 55 55 56 53 48 41 47 36 33 31 35 41 49 51 51 53 54 53 48 48 49 50 50 50 50 50 50 50 50 50 50 50 49 50 51 50 48 47 44 42 42 45
50 42 51 56 56 55 52 53 40 34 28 25 33 35 37 45 48 51 48 46 47 48 49 49 49 49 50 50 49 49 49 48 48 47 47 49 47 46 45 44 43 42 43 46
49 45 46 51 48 45 48 45 42 40 32 26 23 33 45 48 49 47 45 47 47 46 47 48 49 50 49 48 48 46 46 46 45 45 45 44 45 45 44 42 42 42 43 43
48 42 32 44 52 53 49 45 43 30 33 28 25 33 48 48 49 48 47 47 46 47 47 49 49 49 49 46 45 45 43 43 43 44 43 43 43 43 41 42 41 42 43 40
49 39 31 39 47 50 46 47 44 39 32 32 23 31 48 48 47 48 45 46 45 45 46 47 46 47 45 45 45 43 43 42 42 42 40 40 40 40 39 39 40 41 41 42
50 42 38 33 38 42 40 44 44 41 29 31 31 38 41 42 43 43 43 44 43 44 46 46 45 46 46 45 43 42 42 42 42 41 40 39 39 39 39 39 39 40 40 39
47 38 38 40 42 43 42 43 43 41 40 34 38 38 43 42 42 43 44 44 44 44 46 46 44 45 45 42 42 42 42 42 42 41 40 39 39 39 39 38 38 38 39 39
43 34 33 34 40 40 38 42 42 42 42 41 39 36 43 44 43 43 43 43 43 45 48 48 47 46 44 43 42 43 42 41 41 40 39 40 39 39 38 38 37 40 38 37
35 31 31 29 32 33 30 38 43 43 42 41 34 41 43 41 43 41 41 43 43 46 46 45 44 44 43 42 42 40 41 41 40 39 40 39 38 37 36 37 37 36 35 35
33 30 26 24 26 22 41 45 47 44 41 41 40 42 43 43 42 43 43 43 43 44 45 44 43 43 42 41 41 41 41 40 39 38 38 38 37 36 36 35 35 35 38 35
40 29 27 23 23 33 42 44 42 41 40 43 41 41 42 42 40 40 44 44 44 44 44 44 43 43 41 41 41 40 39 38 38 38 37 37 37 36 35 34 34 34 33 31
38 31 29 25 20 21 37 44 49 47 34 44 43 41 40 39 29 37 44 44 45 45 45 43 42 41 40 40 40 38 38 38 37 37 37 37 36 35 34 34 32 32 31 31
27 23 22 18 17 29 41 47 49 34 36 44 44 43 40 38 39 42 43 44 44 44 42 42 41 39 39 39 40 38 37 36 38 38 37 36 35 34 34 33 32 31 30 29
32 27 25 25 19 27 46 45 39 43 41 45 43 43 43 42 43 44 44 43 42 41 40 40 39 38 39 39 38 36 35 38 37 36 35 34 34 34 35 31 30 29 27 26
32 36 32 35 34 44 46 46 46 45 44 42 43 43 44 43 43 43 40 40 40 39 38 39 38 38 38 38 37 34 36 36 36 34 33 33 33 32 31 30 27 26 25 20
41 43 34 37 45 44 46 47 47 45 45 44 45 45 44 44 44 40 39 40 38 37 36 37 37 35 34 36 36 35 35 35 33 33 33 34 32 31 30 30 30 27 20 20
39 43 40 37 43 44 47 47 47 45 45 45 46 46 47 43 40 39 40 38 37 36 37 36 34 34 34 35 34 34 34 32 31 32 34 32 31 29 29 29 28 27 28 27
42 42 35 35 46 45 45 47 46 44 44 46 45 44 43 43 40 40 37 37 37 35 35 34 34 33 34 33 32 32 32 32 31 31 31 29 31 28 29 30 28 33 32 32

GFSCGP_sfc_temp_006.txt.gz
Temp
59 54 48 49 52 54 52 49 46 46 52 47 44 43 46 48 48 47 48 49 50 52 53 54 55 55 56 55 56 57 57 57 57 54 53 53 53 53 55 54 54 54 56 52
54 48 53 56 55 54 52 48 44 47 52 48 46 44 47 50 48 48 49 49 51 52 53 55 55 54 54 54 55 56 56 55 56 54 52 54 53 53 52 53 51 50 51 51
50 52 58 55 53 52 48 47 46 45 50 49 47 44 45 51 51 52 52 50 52 52 52 54 54 52 53 53 53 55 55 55 55 54 53 52 52 51 50 48 47 48 49 49
52 56 55 53 52 51 46 51 50 47 44 39 45 33 41 45 46 49 49 49 49 52 53 54 53 53 53 51 53 54 55 55 55 54 53 53 50 48 46 46 46 46 48 48
49 51 52 52 50 53 49 54 50 47 43 42 41 37 38 45 44 47 48 50 49 48 52 55 53 53 52 54 52 52 54 55 54 53 51 49 46 45 45 45 46 46 47 47
51 55 54 51 54 54 55 51 48 44 42 33 40 38 36 40 45 47 49 51 51 50 48 52 53 55 54 51 51 51 52 50 50 49 48 48 46 45 45 46 46 46 46 45
51 51 53 54 50 52 50 45 34 34 29 30 42 39 41 48 49 51 50 50 50 49 48 50 53 52 48 48 49 50 49 48 48 48 48 47 47 47 47 46 44 44 44 44
42 38 50 55 50 47 45 44 34 30 25 32 42 35 42 50 52 53 52 51 49 49 50 48 47 47 48 48 48 48 48 48 48 47 47 46 46 45 45 45 44 44 42 41
41 42 52 53 53 52 45 39 45 34 32 30 34 41 46 47 48 50 50 49 47 45 45 46 47 48 47 47 46 47 47 47 46 46 45 44 44 44 43 43 42 41 41 43
48 41 48 53 54 53 48 50 38 33 27 25 31 34 36 42 46 48 46 45 44 45 46 46 47 46 46 46 45 47 47 44 44 43 43 44 43 43 41 40 40 40 40 42
47 44 44 49 46 43 46 43 39 38 31 25 21 31 43 45 48 46 44 44 44 44 44 45 45 45 46 48 48 47 44 44 43 43 42 42 41 41 40 39 39 38 39 41
46 41 32 42 49 49 46 43 41 29 32 27 24 31 44 44 48 46 44 44 43 45 45 45 46 47 48 46 46 43 44 44 43 42 41 40 40 40 39 38 38 38 39 39
48 38 31 39 45 47 43 44 41 37 32 31 23 31 45 44 43 44 42 43 43 44 44 44 44 46 46 44 43 45 45 43 41 40 39 39 38 38 37 37 38 38 37 38
49 40 37 33 37 40 39 42 41 40 28 30 30 35 40 40 41 40 41 41 42 43 44 43 44 45 43 44 45 44 42 41 41 39 38 38 37 37 36 37 36 37 37 37
45 38 37 37 39 40 40 41 41 40 38 35 37 37 42 42 41 41 42 42 42 42 43 43 43 41 45 44 42 42 41 41 40 39 39 38 38 37 37 36 36 36 36 40
41 34 33 34 38 37 37 41 40 39 40 39 37 38 43 41 41 41 42 42 41 42 45 46 45 46 44 43 41 41 40 40 40 39 38 39 38 37 36 36 36 35 39 37
34 30 31 29 32 32 30 38 40 39 41 41 34 41 40 39 41 41 40 41 42 43 46 46 46 46 44 41 41 39 40 39 39 38 38 38 37 36 35 35 34 34 34 34
30 28 26 24 25 22 40 42 43 42 42 42 40 41 42 41 41 43 43 42 41 44 46 45 44 42 42 40 39 39 39 38 37 37 37 37 36 35 34 34 34 33 33 33
38 28 24 24 23 33 40 41 40 40 41 42 41 40 41 40 41 41 43 43 43 43 43 44 43 41 40 39 39 38 37 37 37 37 36 36 35 34 33 33 32 32 32 31
36 30 28 19 20 21 37 42 46 45 33 43 43 40 39 40 31 42 43 43 43 44 44 44 41 40 39 38 38 37 37 36 35 36 36 36 35 33 32 32 31 31 30 31
27 25 21 16 17 29 40 45 47 34 37 42 43 42 39 38 41 42 41 42 43 43 42 41 40 39 38 38 38 35 34 34 36 36 35 35 34 33 32 31 30 30 28 28
31 26 24 22 17 26 44 44 39 43 40 42 42 42 42 41 41 41 42 41 41 40 41 40 38 38 37 37 35 34 32 35 35 34 34 33 33 33 34 30 29 29 26 25
33 35 30 33 32 42 45 43 46 45 44 42 43 43 45 41 41 42 39 41 40 41 40 39 38 37 37 36 34 32 33 34 33 32 32 32 32 33 32 29 27 26 24 20
39 41 33 36 43 43 45 47 47 46 45 44 44 43 44 42 42 41 39 39 39 39 39 38 36 35 34 35 34 33 33 32 30 31 31 31 30 32 31 30 30 27 20 18
38 41 38 36 42 42 46 45 47 46 45 44 44 44 44 43 40 41 40 39 39 39 37 37 35 33 33 34 33 32 32 30 30 31 31 30 29 29 30 30 29 28 27 25
41 40 34 34 46 45 45 48 45 45 44 44 44 42 41 42 41 41 39 39 38 36 36 35 34 33 33 32 30 30 30 30 29 31 33 31 31 32 29 30 30 33 32 32

GFSCGP_sfc_temp_009.txt.gz
Temp
64 61 58 61 61 60 58 57 56 55 56 54 49 51 53 56 57 57 58 60 60 60 60 62 61 63 63 64 65 64 64 63 64 63 63 63 63 62 59 65 63 62 63 63
62 56 61 61 60 59 58 54 51 53 55 55 53 51 54 56 54 56 58 58 60 59 60 60 61 63 65 64 64 63 64 65 67 68 67 66 64 63 63 62 60 61 60 61
56 60 62 60 58 56 55 54 50 52 54 56 55 51 51 55 56 57 58 59 60 60 60 60 60 61 62 62 63 64 65 66 66 65 65 64 63 63 62 61 61 61 61 63
59 61 59 58 56 58 53 56 54 51 52 49 54 48 49 52 53 55 57 58 59 60 61 61 60 60 61 60 62 64 64 65 63 63 64 63 64 62 59 60 61 62 60 60
56 58 58 56 56 58 54 56 56 54 51 51 50 51 49 53 51 54 57 58 59 60 61 61 61 63 62 61 61 61 61 61 61 61 61 61 59 59 60 60 58 58 58 58
57 62 60 60 58 58 57 56 54 52 51 44 48 49 48 49 54 55 57 58 58 60 60 60 61 62 60 60 60 59 60 59 59 60 59 59 58 58 58 57 57 57 58 58
56 56 60 61 58 59 57 53 45 43 42 41 47 46 52 56 56 59 57 59 59 60 58 59 60 59 59 58 58 58 59 57 58 57 57 56 56 56 55 55 55 54 56 57
49 47 57 60 58 55 53 53 44 35 36 43 47 43 53 56 60 62 62 61 59 58 58 58 57 57 57 56 57 57 58 56 56 56 56 56 56 56 56 54 54 54 53 54
48 48 59 58 60 60 52 49 52 41 38 40 45 49 56 53 55 57 56 57 57 57 56 56 56 56 56 56 55 56 56 56 56 55 55 53 54 53 52 52 53 52 52 52
53 47 54 58 60 58 56 54 46 44 35 33 41 42 48 49 52 55 54 56 56 55 54 54 54 54 55 55 55 54 56 55 53 54 54 53 52 52 52 52 51 51 51 51
54 51 50 55 52 52 52 49 44 45 40 37 34 44 52 53 56 54 57 55 54 53 53 53 54 54 54 54 55 54 53 55 54 54 52 52 52 51 51 51 50 50 49 50
53 47 43 49 55 56 55 51 48 41 38 35 36 44 52 52 55 56 54 52 53 54 53 54 53 53 53 54 54 51 54 54 53 52 51 51 51 50 50 49 49 49 48 49
53 46 40 46 52 54 52 50 46 43 40 36 36 44 51 50 51 54 53 51 50 52 52 52 52 52 53 52 52 53 52 52 52 52 51 51 49 48 49 48 48 48 47 47
51 45 44 42 45 48 46 47 47 47 40 39 40 47 51 51 49 48 49 50 51 51 51 52 52 52 52 52 52 51 51 51 51 51 50 49 48 48 48 47 47 47 46 46
51 44 44 42 43 46 47 46 46 46 46 43 45 44 51 53 52 49 49 49 49 49 50 50 50 51 52 49 51 51 51 50 50 49 49 48 48 48 47 46 46 46 45 46
46 40 40 40 42 42 43 47 46 45 45 45 45 46 54 50 50 47 47 48 48 49 50 51 51 51 50 51 52 50 50 49 49 48 47 48 47 47 46 45 44 45 45 44
41 36 38 36 36 38 37 42 45 45 47 49 42 52 48 46 47 48 48 48 48 50 51 51 51 52 52 52 50 50 50 49 47 46 47 46 45 45 45 44 44 44 44 44
36 35 33 35 31 33 48 49 49 48 48 49 48 49 49 49 48 50 52 49 49 50 51 51 52 52 52 52 50 48 48 47 45 46 46 46 45 44 44 43 43 43 43 43
42 36 31 34 34 39 47 45 45 44 49 51 50 49 47 46 48 49 51 51 52 52 52 53 53 51 49 50 48 47 46 45 45 45 45 45 44 43 43 43 43 43 42 42
40 36 38 30 33 31 44 49 51 52 42 52 50 47 44 47 43 52 51 51 50 51 51 50 49 48 48 46 46 45 44 43 43 43 43 44 44 43 42 42 42 42 42 40
33 31 33 26 33 37 46 50 52 41 45 48 49 48 45 46 51 52 50 48 51 50 47 45 47 47 46 45 45 43 42 42 43 42 43 43 43 42 42 42 42 41 40 38
37 33 31 27 30 33 48 50 44 50 49 49 49 49 47 51 47 48 46 46 46 46 46 46 45 45 44 44 43 42 42 42 42 41 41 41 42 41 41 40 41 39 38 36
37 40 38 38 40 48 50 49 52 50 50 51 49 51 50 47 47 46 45 45 45 45 45 46 45 43 43 43 42 41 41 40 39 39 40 40 40 40 41 40 40 38 37 35
42 44 40 40 47 45 48 51 52 53 53 52 52 52 49 48 47 45 43 43 44 44 45 44 43 41 41 41 40 40 39 39 38 38 38 39 38 38 40 40 40 37 35 34
43 43 41 41 45 47 50 51 54 53 51 50 51 50 49 49 46 44 43 41 41 40 40 43 41 40 40 40 39 39 38 37 36 36 38 36 35 36 36 38 39 36 38 37
44 43 40 41 51 51 51 54 53 51 51 51 49 47 46 47 44 43 41 42 40 40 41 40 40 39 38 38 37 37 37 36 35 35 37 35 35 35 36 35 37 34 34 32

GFSCGP_sfc_temp_012.txt.gz
Temp
71 68 65 69 71 71 70 68 66 67 66 68 66 67 67 69 71 71 73 74 74 74 73 74 73 74 75 75 74 73 70 71 73 74 73 72 72 73 73 74 71 70 71 71
66 64 68 71 70 69 69 66 64 63 64 67 67 64 66 67 68 71 72 73 73 71 72 71 73 74 74 74 74 74 73 74 76 77 77 77 75 74 73 72 70 70 70 70
67 67 68 69 68 66 65 65 63 64 63 66 67 63 64 64 66 67 70 72 72 72 70 71 71 72 73 73 73 75 76 76 76 75 75 74 73 72 72 72 73 69 68 70
67 68 68 68 65 66 61 66 66 62 62 58 66 57 62 63 63 65 66 69 70 71 72 72 71 72 73 72 74 75 74 73 72 73 73 71 73 72 69 71 70 70 66 66
62 65 66 65 64 66 63 66 66 65 64 61 60 59 61 64 61 63 66 68 69 70 71 71 72 72 73 71 71 72 72 72 72 71 71 71 68 69 69 69 65 66 67 67
66 70 70 67 66 67 67 65 64 64 63 52 60 59 62 61 65 65 67 68 68 70 71 72 72 72 71 71 69 70 70 69 70 69 68 66 65 65 65 64 64 65 66 66
65 65 69 70 65 66 67 63 53 50 49 48 57 56 63 68 68 70 67 68 69 69 70 69 69 70 69 68 67 68 68 66 67 66 66 65 64 63 63 62 62 60 61 62
60 53 64 67 66 64 64 64 54 41 44 53 56 53 65 67 71 73 72 71 70 69 69 70 70 69 68 66 67 67 67 66 66 65 64 64 62 64 64 61 60 60 59 59
58 56 66 65 67 67 60 57 63 51 48 49 57 61 66 65 66 69 70 70 69 70 69 68 67 67 66 66 65 66 66 66 65 64 61 59 62 60 59 59 59 59 59 59
63 54 62 63 67 66 64 65 54 56 41 40 54 54 59 59 61 66 67 67 69 70 68 67 66 65 66 66 65 65 66 65 63 60 62 62 61 60 59 59 57 57 57 57
66 61 57 61 61 61 59 59 56 58 52 46 44 56 64 63 65 64 67 68 69 68 67 65 65 65 65 65 65 64 64 62 58 62 61 60 60 59 59 58 57 56 56 56
63 61 52 58 62 64 64 61 61 51 47 48 46 54 64 64 65 68 68 69 70 68 67 66 64 64 63 63 64 63 62 62 62 61 60 60 60 59 57 57 56 55 54 55
63 58 49 52 58 62 60 61 61 56 52 46 43 54 64 64 64 67 68 69 67 65 65 64 63 62 62 62 62 61 59 58 61 61 61 61 59 57 56 56 55 55 54 53
58 58 56 50 56 60 54 58 60 60 49 51 51 59 63 64 64 66 65 68 66 63 62 63 62 62 62 62 61 60 56 61 61 61 60 59 57 57 56 55 54 54 53 52
62 54 54 54 54 55 57 58 57 57 58 51 58 58 65 67 68 68 66 64 63 61 60 61 61 62 62 62 61 57 62 61 60 59 59 57 57 56 56 54 54 53 52 52
56 52 50 48 51 52 51 58 59 59 60 58 60 58 70 69 67 65 62 61 60 59 60 61 62 62 62 62 58 61 60 59 59 57 57 57 56 54 53 53 52 52 52 52
54 48 47 46 47 47 41 51 58 59 61 59 54 63 65 61 61 63 62 61 60 60 61 61 62 62 62 61 61 60 60 59 57 56 55 54 53 52 52 53 52 52 51 51
46 48 45 43 39 35 57 59 59 60 62 64 63 62 63 64 64 64 66 63 61 62 62 63 63 62 62 61 61 61 59 57 55 54 53 53 52 52 52 52 51 51 51 50
54 50 40 39 44 51 58 56 54 53 58 65 63 65 62 59 59 62 63 65 64 63 64 64 64 63 61 61 60 57 56 55 53 52 52 52 51 51 51 50 50 50 50 49
50 49 50 40 38 36 54 57 59 59 51 62 62 61 58 57 52 65 65 64 63 65 65 63 63 61 60 58 55 55 54 51 50 50 50 51 51 50 50 49 49 49 49 48
43 42 40 41 39 48 58 58 60 46 52 61 61 61 59 57 64 63 63 64 63 64 62 61 59 58 57 56 55 52 50 50 50 49 50 50 50 49 49 49 49 49 48 47
46 43 39 38 36 37 58 56 50 58 61 60 60 62 60 63 60 59 58 59 61 60 58 58 55 52 49 51 52 51 50 51 49 48 48 48 48 47 48 47 48 48 47 44
46 52 50 50 52 58 60 62 63 61 60 61 61 64 61 61 60 58 57 57 57 58 56 52 48 46 49 51 50 49 50 48 47 46 46 47 46 47 47 46 46 46 46 43
52 53 50 48 58 59 61 63 64 64 62 64 65 63 63 60 62 59 56 55 55 54 50 52 44 46 47 47 48 48 48 47 45 44 44 45 43 40 43 46 46 45 44 42
55 53 52 52 58 60 61 62 63 64 64 62 63 61 60 59 59 58 54 53 52 44 42 43 44 46 46 46 47 47 45 45 43 42 42 43 42 40 39 39 41 42 45 43
54 55 50 50 63 59 61 62 61 60 60 60 59 59 56 56 55 55 52 47 43 41 40 41 43 43 44 44 43 43 44 43 41 39 41 43 42 41 40 39 39 36 35 34

GFSCGP_sfc_temp_015.txt.gz
Temp
74 68 64 69 72 73 72 70 68 73 75 73 72 72 74 78 79 78 80 80 80 80 81 81 81 81 83 83 82 72 71 69 72 75 75 74 74 76 76 77 74 74 74 74
70 61 73 77 75 72 71 68 67 71 74 72 72 72 75 77 78 79 79 79 80 80 78 78 79 79 79 79 79 71 73 73 78 80 79 79 78 77 77 75 73 73 72 73
63 70 74 72 71 69 70 68 66 67 72 74 73 69 70 74 78 77 80 82 82 79 77 76 77 77 77 76 75 76 77 79 80 79 78 77 76 74 74 73 74 71 70 71
63 75 71 70 69 71 63 72 71 68 66 60 73 57 68 71 70 72 75 77 78 79 78 77 76 76 77 77 79 79 79 78 77 78 78 75 76 72 72 72 72 72 71 69
66 70 71 69 69 72 64 72 71 70 68 65 66 62 54 70 68 70 73 75 76 77 77 76 76 77 77 76 76 76 77 76 76 76 75 74 71 71 71 72 68 69 70 69
64 77 75 73 72 73 73 69 69 70 67 54 64 63 62 67 71 72 73 74 75 75 76 77 77 76 75 75 74 73 74 74 74 73 71 69 67 67 67 66 65 66 66 66
69 70 73 75 68 72 72 66 54 53 52 50 65 62 65 73 75 77 73 74 74 75 75 75 74 74 73 72 71 72 72 70 71 70 69 68 66 65 64 63 63 62 62 62
61 55 69 74 71 67 67 67 54 44 47 55 64 56 66 75 78 79 78 76 75 74 74 74 74 74 72 71 71 72 71 70 69 68 67 66 65 61 64 63 62 62 61 61
61 59 71 71 73 73 67 60 70 58 57 52 59 67 74 72 72 75 76 74 73 73 74 74 75 74 72 71 70 70 71 70 68 66 65 62 61 61 62 62 61 61 60 61
68 58 68 68 72 71 68 72 57 59 44 43 57 59 63 66 68 71 73 72 73 74 74 74 73 72 72 71 71 70 70 69 67 64 62 61 61 63 63 62 59 59 59 59
72 65 62 66 64 66 64 62 63 63 57 47 46 57 70 68 70 70 73 74 74 74 74 73 72 71 71 71 69 69 69 67 64 64 63 62 62 62 63 61 60 59 58 58
72 66 55 62 69 71 70 66 65 52 51 53 50 55 72 71 72 73 74 75 76 76 76 74 72 70 70 68 68 67 67 65 65 64 63 63 63 62 61 60 59 58 57 57
69 62 52 56 63 68 64 67 67 65 57 52 45 55 73 72 70 73 74 75 75 76 76 74 71 69 68 67 67 66 65 66 64 62 64 64 63 61 60 59 59 58 57 56
61 64 59 51 59 66 59 64 66 63 52 53 56 62 68 70 70 73 73 75 76 75 74 73 70 68 68 68 67 66 64 64 64 65 65 63 61 61 60 59 58 57 56 55
66 57 62 64 63 63 64 64 64 62 62 55 60 64 70 72 73 74 75 74 75 73 71 71 69 68 68 67 66 66 64 63 64 63 63 62 61 60 59 58 57 56 54 55
65 56 57 53 62 61 58 63 65 65 64 65 66 64 75 75 76 73 73 71 71 71 70 70 69 68 67 66 66 65 63 63 63 61 60 61 60 59 57 56 55 55 55 55
60 54 51 49 53 54 44 54 62 65 68 66 58 67 73 69 69 70 71 70 69 70 70 68 68 68 68 68 66 63 63 63 61 60 60 59 58 56 55 55 55 55 54 54
53 54 52 47 41 34 61 67 67 64 68 71 70 71 72 70 71 72 73 72 69 69 70 70 70 68 69 69 66 63 65 63 60 59 58 57 56 55 55 55 55 54 54 52
63 55 46 40 47 55 60 65 61 59 61 71 68 71 72 69 67 68 72 72 72 71 72 72 71 70 69 67 67 63 61 59 57 55 56 56 55 54 54 53 53 53 52 52
57 55 52 45 38 35 56 62 65 65 54 67 68 66 66 65 55 66 70 71 72 73 72 71 71 70 68 66 65 60 59 57 56 55 54 54 55 54 53 53 52 52 52 51
46 46 43 45 41 50 64 64 66 49 53 65 66 67 66 62 66 68 68 70 72 72 71 71 70 67 66 64 59 57 54 53 54 54 53 53 54 53 52 51 51 51 50 49
49 46 41 46 37 37 65 63 54 61 66 66 67 67 64 66 67 68 67 66 68 69 68 66 63 61 59 58 55 50 48 53 52 52 51 52 52 50 50 48 49 49 49 47
50 57 54 55 54 64 67 66 69 68 64 66 65 67 67 66 66 67 67 65 65 66 64 62 57 53 52 48 46 47 50 51 50 49 48 49 49 48 48 46 46 46 48 46
60 61 54 54 63 65 67 70 69 69 67 68 69 68 67 64 65 65 66 63 62 62 58 57 51 45 43 45 46 50 48 47 47 45 44 45 45 44 43 44 46 47 46 43
61 60 58 57 63 66 67 68 67 67 67 66 68 66 63 62 63 64 62 59 59 55 49 46 41 40 42 47 48 48 47 46 43 41 43 43 42 43 44 45 44 42 44 42
62 60 53 52 63 61 64 65 64 63 62 61 61 61 60 60 60 60 55 54 48 43 41 39 40 44 45 45 45 45 46 44 41 40 41 42 42 43 45 43 41 39 37 37

GFSCGP_sfc_temp_018.txt.gz
Temp
73 66 62 65 69 70 68 66 64 70 76 72 70 70 72 77 77 76 76 76 76 76 80 80 80 79 80 78 75 70 67 66 69 69 69 69 66 68 68 68 68 67 67 67
68 62 70 72 72 70 69 65 65 71 74 72 71 69 73 76 76 77 77 76 76 78 77 78 78 77 78 76 73 69 67 66 71 72 72 70 69 68 68 66 66 66 65 65
60 62 68 72 69 67 68 65 64 66 70 73 65 66 70 75 78 79 80 81 80 78 75 76 76 75 75 67 69 70 70 69 72 72 73 71 68 66 65 65 64 63 64 65
66 69 69 70 68 70 61 69 69 67 63 56 67 52 65 65 72 76 77 77 78 79 78 76 75 71 70 69 71 73 73 74 73 72 70 67 66 63 64 63 63 63 65 63
63 61 67 66 65 70 63 68 68 69 65 57 54 54 56 61 60 70 73 76 77 78 77 75 76 73 74 73 72 72 72 72 72 70 69 66 63 63 63 61 60 60 59 60
64 73 72 68 72 73 72 67 69 68 64 44 53 50 55 55 59 67 74 75 76 76 75 75 75 74 73 72 69 69 70 70 69 67 64 61 59 59 58 57 55 57 57 56
65 68 75 76 69 73 70 64 51 42 43 45 65 55 54 64 66 59 62 73 74 74 73 72 71 71 70 68 67 68 69 67 66 64 62 60 59 58 55 56 56 56 55 53
54 53 69 74 70 60 64 64 51 32 33 49 59 52 63 72 74 65 74 75 74 73 72 72 71 70 69 67 67 68 68 66 65 62 61 60 59 56 56 56 56 54 53 52
48 53 68 73 75 72 65 60 69 56 44 49 56 64 71 74 73 75 74 74 72 72 72 72 72 70 68 67 66 66 67 66 64 62 60 57 57 57 56 56 55 53 53 55
51 43 64 70 73 72 67 71 56 57 41 40 53 57 57 65 68 71 72 71 72 72 72 72 72 70 69 68 68 66 67 65 63 60 58 58 57 57 58 55 54 53 52 52
70 61 61 67 64 63 63 60 62 62 56 43 41 52 68 67 70 70 72 72 72 71 72 71 72 71 69 68 67 66 66 64 61 60 58 56 57 57 56 55 54 53 52 52
71 65 52 61 71 73 69 64 64 48 48 50 45 50 72 71 72 73 73 75 74 73 73 73 72 69 68 67 67 65 64 63 61 60 58 57 58 58 56 55 54 53 52 52
69 60 49 55 64 68 63 66 67 65 55 47 41 50 72 72 71 73 72 74 74 74 74 73 70 68 67 66 65 64 63 63 62 62 60 59 57 56 55 54 54 54 52 51
64 63 57 48 57 63 59 63 66 63 46 47 49 58 67 69 69 72 71 72 74 73 74 74 70 68 67 67 64 64 62 61 62 61 60 58 56 56 55 54 53 53 52 50
66 56 60 63 65 64 62 63 64 61 61 51 57 60 67 71 72 73 74 73 73 73 73 73 71 69 67 65 64 65 62 61 60 59 60 58 58 56 55 53 53 52 50 50
66 54 56 53 62 62 58 62 64 63 64 63 64 62 74 74 73 71 72 73 71 71 73 73 71 69 67 66 65 64 62 60 60 59 57 59 57 56 52 52 51 50 50 50
60 52 48 45 54 52 42 52 59 62 66 65 55 65 72 71 70 69 70 71 70 70 70 70 70 69 68 67 65 62 62 60 59 58 58 57 56 52 51 52 52 50 49 48
53 52 48 43 40 35 58 69 68 64 66 69 69 70 72 69 69 70 72 70 69 70 69 70 69 68 68 67 66 63 63 61 58 57 57 55 54 52 52 51 51 49 49 47
63 53 45 38 43 52 58 65 62 59 59 67 65 67 69 68 68 68 72 71 69 69 69 69 70 69 67 67 66 62 60 59 58 54 54 54 52 51 50 49 48 48 47 46
59 55 48 43 38 35 55 63 67 66 50 65 66 65 65 66 50 59 67 69 69 71 71 70 70 69 67 65 64 60 57 54 52 52 51 50 51 49 49 48 47 46 45 46
44 45 39 43 39 46 64 66 67 47 49 63 65 64 64 60 61 66 67 66 68 70 70 70 67 61 61 58 57 55 51 49 49 47 48 49 50 50 48 46 45 44 43 43
45 43 39 44 36 34 66 63 52 59 65 65 65 65 62 64 64 65 68 68 66 66 68 63 52 50 52 53 51 47 45 48 46 46 48 48 47 47 48 44 43 43 42 39
49 55 50 50 48 63 68 65 69 68 64 64 64 66 66 64 64 65 65 65 63 63 59 56 51 47 47 47 46 42 43 45 48 45 44 44 45 45 45 41 39 38 40 37
61 63 54 54 63 65 67 70 70 69 66 67 67 66 65 61 62 63 64 61 58 58 54 50 46 42 40 43 44 45 45 46 44 42 41 42 41 42 41 41 41 38 34 35
60 61 57 57 62 65 67 66 65 65 66 65 64 63 59 60 60 61 55 53 50 47 44 43 41 40 41 44 46 46 45 44 41 40 40 40 36 38 39 41 40 35 37 35
63 60 51 49 60 59 60 62 62 61 59 59 59 56 56 56 53 49 47 45 42 40 40 40 42 43 43 45 45 46 46 44 40 38 37 36 36 36 38 39 38 39 37 36

GFSCGP_sfc_temp_021.txt.gz
Temp
62 54 49 55 61 63 63 58 56 60 67 63 59 58 61 60 60 60 61 59 63 67 70 72 71 70 70 69 70 66 64 63 63 60 59 60 59 59 58 59 61 60 60 60
57 52 62 67 66 62 60 59 56 63 67 61 57 57 62 60 57 61 60 61 65 66 68 70 69 68 70 67 64 64 65 64 64 65 65 62 60 59 59 59 58 59 59 59
52 59 67 65 61 61 61 56 57 58 62 58 57 53 57 65 68 68 64 63 66 66 67 68 68 65 65 62 62 63 64 65 65 65 63 61 59 57 56 55 56 58 60 60
59 66 64 62 60 64 56 63 61 61 54 46 57 41 54 58 62 66 66 64 68 68 69 68 66 61 61 61 61 64 65 64 65 64 64 63 58 55 54 55 55 55 56 56
56 61 59 58 61 64 59 63 60 60 54 52 53 49 49 57 59 62 61 64 64 68 67 66 64 63 63 65 65 63 64 64 63 63 61 59 57 55 53 52 52 53 53 54
59 68 63 60 66 66 67 61 58 56 51 37 50 48 45 52 61 62 64 68 68 65 64 65 66 67 67 65 65 66 63 60 59 59 56 55 54 52 51 50 49 50 50 50
60 63 63 66 59 64 61 53 40 37 34 33 53 49 49 59 63 63 65 66 63 65 63 63 61 60 59 60 63 60 59 58 58 56 54 53 52 51 50 49 48 49 48 47
50 43 56 63 61 58 55 53 38 32 29 39 50 46 53 66 68 66 67 63 63 61 63 62 61 60 58 59 59 58 58 57 56 55 54 53 52 50 50 50 50 48 47 47
46 49 62 65 65 62 57 50 57 42 42 36 45 54 63 62 59 61 60 60 60 60 59 61 60 60 59 58 58 57 57 56 55 53 52 52 52 51 50 50 50 47 47 51
51 45 56 59 63 66 60 61 46 43 33 31 42 45 46 56 59 61 56 59 60 62 61 62 62 60 61 60 59 57 57 57 54 52 51 52 51 51 51 50 49 49 47 48
54 50 49 57 56 54 54 51 53 51 41 33 29 39 56 57 59 59 60 63 63 63 63 63 61 62 61 61 58 57 56 54 52 52 51 50 50 52 52 52 48 50 47 48
55 49 38 53 63 65 60 54 52 35 40 35 32 38 59 61 61 62 62 65 64 65 64 63 62 61 60 60 59 57 55 55 54 52 52 51 52 54 52 51 51 47 47 48
58 49 34 44 53 59 55 58 59 53 41 37 29 38 61 63 61 62 61 63 63 64 63 64 61 61 60 59 59 57 56 55 54 54 52 51 54 54 53 52 50 48 47 47
58 54 45 36 46 54 49 55 57 52 34 35 36 47 56 57 59 61 62 60 60 63 65 64 61 61 61 60 59 58 54 55 55 54 52 53 53 53 52 50 50 50 47 47
56 46 49 52 56 58 55 56 57 53 50 41 46 50 56 57 57 59 61 62 63 63 62 62 61 59 61 59 57 57 55 55 54 53 53 54 53 53 51 50 49 49 48 48
56 43 44 42 54 52 48 53 54 54 55 52 52 52 59 61 61 61 62 63 62 62 62 63 61 60 60 58 57 57 55 53 54 52 52 54 52 51 49 48 47 47 47 47
49 41 37 35 44 44 35 46 51 53 55 52 45 54 59 57 58 57 58 61 61 61 61 62 61 60 59 57 59 55 55 54 52 51 54 53 49 48 48 49 48 48 47 45
44 42 35 32 33 26 48 59 59 54 56 56 56 55 56 56 57 58 59 57 58 60 61 61 61 60 58 56 56 54 55 53 52 53 50 48 47 47 48 48 47 45 45 44
52 39 34 30 30 41 50 54 52 50 48 55 54 55 57 58 54 53 58 59 58 59 59 60 61 60 58 56 54 54 52 52 51 48 46 46 47 46 46 44 43 44 43 43
52 43 35 31 28 25 43 55 60 58 38 55 55 54 54 54 36 46 57 59 58 59 55 52 52 51 51 51 54 50 47 45 43 44 45 45 46 45 44 43 42 42 42 42
33 33 30 26 25 35 53 59 59 38 39 54 56 54 53 48 49 56 57 58 57 52 49 48 47 46 45 48 47 45 43 41 43 44 44 45 46 44 43 43 42 41 40 39
36 32 29 31 29 29 57 56 45 48 53 54 54 53 53 54 56 57 57 55 52 47 46 45 42 41 44 45 43 40 40 43 45 44 44 43 43 43 45 41 39 38 36 34
37 42 36 39 36 50 56 55 57 57 55 54 54 55 56 53 53 55 53 49 48 44 42 42 40 41 42 43 43 40 42 44 43 41 41 41 41 41 42 39 36 34 33 29
50 55 41 44 52 55 57 59 57 57 55 55 55 53 53 52 52 49 47 44 43 42 40 42 41 40 39 42 43 43 43 42 40 38 37 38 37 37 37 37 37 34 28 27
47 52 49 47 52 53 53 54 55 54 55 53 52 49 51 48 47 45 42 41 40 41 41 41 39 39 40 42 41 41 40 39 37 36 36 35 32 33 34 35 34 32 32 32
51 48 39 34 52 49 48 52 53 51 49 50 47 43 44 44 42 41 39 39 38 37 39 39 39 39 41 41 40 41 41 39 36 34 31 30 30 30 32 32 32 36 35 35

GFSCGP_sfc_temp_027.txt.gz
Temp
56 50 45 49 52 54 53 50 49 52 60 55 53 53 54 56 57 54 55 56 58 61 65 66 67 65 63 61 61 61 59 59 60 58 57 54 54 54 54 55 56 55 55 54
51 47 55 58 58 56 57 51 51 56 58 57 51 49 50 54 58 57 57 56 60 62 64 65 64 63 61 62 61 61 61 59 61 62 57 57 55 54 54 54 54 54 54 54
48 54 60 59 58 54 52 50 50 52 54 53 51 47 50 56 56 58 60 59 61 62 62 63 63 62 61 61 61 61 61 60 61 60 58 54 53 53 52 51 51 52 53 52
52 58 57 55 54 54 48 56 55 53 49 43 49 39 47 52 55 56 58 58 59 62 65 64 63 62 62 61 61 62 62 61 61 60 59 58 55 55 51 50 50 50 50 50
53 55 53 53 55 57 52 57 54 52 48 44 45 42 45 50 50 56 60 59 58 60 65 64 63 64 63 61 60 60 61 60 61 59 57 55 53 51 50 49 48 47 47 49
54 58 57 57 59 59 59 54 51 47 44 34 43 42 41 45 54 59 63 62 61 57 58 59 59 61 61 60 59 59 60 60 59 60 56 54 52 50 49 46 46 45 45 45
51 53 57 59 54 56 55 47 37 36 32 32 46 42 45 55 57 57 58 62 62 59 58 56 58 59 58 58 59 59 58 55 57 58 53 52 52 53 52 49 47 45 45 45
44 41 53 57 55 51 49 47 35 32 28 36 44 38 47 57 60 60 60 59 58 56 60 58 59 59 59 59 58 59 56 53 53 52 51 50 51 52 52 51 47 47 48 47
42 45 54 58 60 58 52 45 49 37 34 33 38 46 54 56 54 53 53 54 53 53 56 58 59 59 58 57 55 55 55 53 52 51 52 51 51 53 51 50 50 49 48 49
50 43 51 56 56 57 54 55 42 38 32 31 36 39 42 52 55 53 51 54 53 52 54 55 56 55 56 56 55 53 55 54 54 53 54 54 53 52 51 49 49 49 49 50
51 48 46 52 50 50 50 47 46 45 36 31 28 37 49 53 55 56 53 54 53 52 54 56 57 57 56 56 54 54 54 52 52 53 51 49 49 49 49 50 50 49 49 48
53 46 35 48 54 56 51 49 47 34 37 31 29 36 53 55 56 54 58 55 54 54 56 57 57 56 56 55 55 55 55 54 54 51 50 49 49 49 48 48 49 48 48 47
52 43 33 42 49 51 48 50 49 44 36 34 28 36 54 53 54 57 56 58 55 55 54 55 54 55 56 56 56 55 54 52 50 51 51 49 49 48 48 47 46 44 44 43
54 45 42 36 43 47 43 48 49 46 32 34 33 43 51 54 53 56 56 55 53 55 56 55 53 54 56 57 55 53 50 50 52 52 51 49 48 51 50 49 44 43 43 42
53 44 45 46 48 49 49 49 48 46 44 38 44 42 51 51 54 54 54 54 54 54 54 54 53 53 54 52 51 51 50 51 51 50 50 48 51 51 50 47 44 42 42 43
49 41 42 40 45 45 44 49 48 47 47 46 46 45 51 51 49 51 53 54 53 53 54 55 55 54 53 52 51 51 51 51 50 49 49 52 50 48 45 45 43 42 44 45
45 38 36 36 38 39 34 42 46 48 50 49 42 49 49 48 50 48 50 52 52 53 53 54 52 53 53 52 52 51 51 50 49 47 49 48 46 45 44 44 44 44 43 43
40 38 33 30 32 25 45 50 50 47 46 47 47 48 48 47 47 48 50 50 50 50 49 48 46 49 51 50 50 48 47 46 45 44 45 45 45 44 44 43 42 42 42 40
47 36 31 31 30 38 45 48 47 45 43 47 46 47 48 49 48 48 50 47 45 44 44 43 43 43 43 45 46 45 43 43 43 42 43 44 44 43 42 41 40 40 39 40
43 39 36 28 28 27 41 48 53 51 36 50 49 48 47 46 34 43 47 45 43 42 41 41 41 41 41 41 43 41 40 40 40 41 42 43 43 42 40 39 39 39 40 39
32 30 30 24 25 33 45 52 53 37 39 49 50 49 47 45 44 45 43 41 41 41 41 41 40 39 40 41 42 40 40 40 42 42 42 42 42 41 40 40 40 40 38 34
36 31 26 26 24 30 50 49 43 45 45 49 48 49 46 44 43 42 42 40 40 39 40 40 39 38 39 41 42 40 40 42 43 43 42 42 41 41 41 39 36 35 33 30
37 39 34 37 36 47 49 48 51 50 49 49 49 48 49 44 42 41 39 38 38 38 37 38 38 38 39 40 41 39 40 42 41 41 40 38 37 37 36 33 32 31 30 27
43 46 39 40 45 46 47 47 50 49 49 49 48 48 47 42 41 39 39 38 37 36 36 37 38 37 37 40 39 39 39 37 36 35 34 34 33 33 32 32 32 30 27 27
43 46 42 40 42 46 46 45 45 44 45 44 44 44 43 41 39 39 37 37 36 35 36 36 35 35 35 36 36 36 36 36 34 34 34 33 30 31 31 31 31 31 31 31
45 44 38 36 47 46 45 45 45 44 42 43 42 40 41 41 38 38 36 36 35 35 35 34 34 34 34 34 33 34 35 33 32 32 30 29 29 29 30 30 31 34 34 34

GFSCGP_sfc_temp_030.txt.gz
Temp
53 49 44 49 52 52 51 47 45 50 57 54 52 50 52 53 55 53 55 56 57 58 62 62 62 61 61 60 60 60 58 57 58 57 55 53 53 53 53 54 55 55 54 53
50 45 53 55 54 53 52 48 48 53 56 53 46 46 49 52 54 57 55 56 58 59 59 61 60 60 61 61 61 60 59 58 60 61 56 55 54 53 53 53 53 53 52 51
46 51 57 57 55 53 50 48 48 50 51 48 46 45 46 53 55 57 57 58 60 59 59 61 61 60 60 60 60 60 59 59 60 60 56 52 53 52 51 50 50 51 51 50
50 56 56 53 52 53 45 53 50 51 46 40 46 38 44 48 52 54 56 55 57 59 61 62 61 59 59 60 60 61 60 59 60 59 58 56 55 52 50 49 48 48 49 48
50 51 51 50 52 55 51 54 50 50 46 43 43 41 44 46 49 54 57 56 58 58 60 60 61 62 61 58 59 60 59 59 59 59 59 55 53 52 50 48 46 46 46 47
51 56 54 54 57 57 56 51 49 46 43 34 41 39 40 43 52 58 61 60 60 57 58 59 60 60 58 57 57 58 59 59 59 59 56 54 51 51 50 46 45 45 44 45
48 51 54 56 51 53 51 45 36 35 32 32 43 39 44 53 53 54 57 58 60 60 56 55 56 58 58 57 58 59 60 59 58 57 55 54 55 53 52 49 46 44 44 44
42 40 51 55 53 50 46 46 34 31 28 35 42 37 47 54 57 57 57 56 57 55 59 57 58 59 58 58 58 59 59 59 56 57 55 55 55 53 54 49 48 48 48 47
40 42 51 54 55 53 47 42 48 36 33 32 37 44 52 52 53 53 54 53 52 51 55 58 57 58 58 58 58 59 57 58 55 54 53 53 52 53 50 48 48 47 49 49
50 41 50 53 54 53 50 52 40 36 32 30 34 36 40 50 52 52 52 53 52 51 52 54 56 57 58 59 59 57 56 54 54 52 51 51 50 50 50 49 47 47 48 49
49 46 44 49 48 48 46 44 43 43 35 31 27 35 47 51 52 51 53 53 53 52 52 53 55 56 56 55 53 53 52 51 50 50 49 48 48 48 49 49 49 49 49 48
51 45 35 46 51 52 49 47 44 33 36 30 29 34 52 52 52 53 54 55 52 52 52 52 53 53 52 53 52 52 50 50 49 48 47 47 48 49 48 48 50 49 49 47
51 42 33 40 46 47 46 47 47 41 35 33 27 36 53 51 53 55 55 54 54 52 51 52 52 51 52 52 51 51 50 49 48 48 48 47 47 47 48 50 49 48 47 46
54 43 41 38 42 45 41 46 45 44 32 34 33 42 50 52 51 53 54 52 52 53 52 51 51 51 51 52 51 50 49 48 48 48 48 47 46 47 48 49 47 46 46 44
51 42 41 44 47 47 47 47 44 44 42 38 42 41 49 50 51 53 52 52 52 51 51 51 50 50 51 51 50 49 48 47 48 48 48 47 46 46 47 47 45 44 44 45
47 42 40 39 43 44 42 46 45 44 44 43 43 43 51 49 47 48 49 51 50 50 50 51 50 50 51 50 49 49 48 48 48 47 46 47 46 46 44 45 44 44 43 44
44 38 36 36 36 39 34 40 44 44 46 46 40 47 49 45 47 45 47 49 48 47 47 47 48 50 50 49 49 47 47 47 46 45 46 45 45 44 42 44 44 43 42 42
38 37 34 30 32 25 44 47 47 46 46 46 46 45 47 47 44 45 46 46 46 45 44 43 42 43 43 45 45 44 45 44 43 42 42 43 43 44 44 44 42 41 41 40
45 35 31 31 30 37 42 46 45 44 44 47 45 44 45 46 46 44 44 43 41 41 40 39 39 40 40 41 41 41 41 41 41 40 41 42 44 43 42 40 40 40 39 39
42 38 36 27 27 27 40 48 50 50 37 47 47 45 45 45 34 41 42 41 39 39 39 38 39 39 39 39 41 39 38 39 38 39 40 42 42 41 40 39 39 39 39 39
32 30 30 22 25 33 44 49 50 37 40 47 48 46 45 44 43 41 40 38 39 39 38 39 38 37 37 39 40 38 39 37 39 40 40 42 42 41 40 40 40 39 38 36
37 32 27 27 24 30 48 47 42 45 43 46 47 47 45 41 40 39 39 38 38 37 37 38 37 36 37 38 40 37 37 39 40 41 42 41 41 41 41 37 35 34 32 31
38 40 35 38 37 46 47 46 50 48 47 47 47 46 45 41 39 39 37 36 36 36 35 36 37 36 37 38 38 36 37 41 39 37 35 35 36 35 34 32 32 31 30 26
40 43 39 40 44 44 47 46 46 47 46 48 47 46 45 40 39 36 36 36 35 35 35 36 37 35 34 36 36 35 35 35 34 33 32 32 32 32 31 31 31 29 27 27
41 44 40 39 41 43 46 45 45 43 44 43 43 43 41 39 37 37 35 35 35 34 35 35 35 35 33 34 33 33 33 33 32 32 31 30 29 29 29 30 29 29 30 30
43 42 39 39 46 47 47 44 44 43 41 41 41 38 39 40 37 37 35 35 34 34 35 36 34 33 31 31 31 31 32 31 30 30 29 27 27 26 28 29 29 33 34 35

GFSCGP_sfc_temp_033.txt.gz
Temp
61 58 54 58 57 59 58 55 54 59 63 60 58 57 55 57 57 58 59 61 62 64 68 68 67 68 68 67 68 68 67 66 66 64 65 64 61 62 63 66 65 64 65 64
57 53 59 59 58 58 57 55 55 58 59 59 56 55 58 57 58 60 61 61 62 65 66 66 67 67 67 68 68 67 68 66 67 69 68 67 64 63 65 65 64 64 63 63
53 59 59 58 57 55 56 55 54 55 57 57 56 54 54 58 61 62 63 65 66 66 66 67 65 66 67 68 67 68 68 67 67 68 67 63 61 60 61 62 62 63 62 63
57 60 58 58 57 58 54 59 56 54 54 50 56 50 54 55 57 59 63 63 64 66 67 69 68 67 66 67 68 68 68 67 67 66 66 63 63 62 62 60 61 61 60 60
56 56 56 56 57 59 57 59 57 57 53 52 51 51 56 54 54 59 62 64 65 67 67 68 69 70 70 68 66 67 67 66 66 64 64 62 62 62 59 58 57 57 58 59
58 62 61 61 61 60 61 57 54 52 51 44 48 50 54 56 60 62 66 66 66 67 67 69 70 70 70 67 66 66 64 65 64 63 64 62 61 58 56 53 53 55 57 56
55 57 61 62 59 60 59 53 46 44 42 42 49 47 55 61 62 63 65 67 68 68 68 68 67 67 68 64 64 65 63 62 60 61 61 62 60 59 58 53 50 51 54 55
49 46 57 60 60 57 55 54 45 36 37 44 47 44 57 63 64 64 64 65 66 67 68 69 70 69 68 64 65 65 64 63 61 61 62 61 61 61 58 54 52 53 56 57
45 48 58 59 61 61 54 50 54 42 39 40 46 52 60 62 63 62 61 61 64 65 65 67 69 69 68 65 64 65 66 66 64 61 62 61 61 60 57 55 57 56 57 56
53 47 54 57 61 58 57 58 47 45 37 35 43 44 51 58 61 62 63 64 64 63 62 64 66 66 67 66 66 65 67 67 67 63 62 62 62 60 60 57 55 54 55 56
54 53 50 55 54 54 52 51 49 50 45 40 37 45 56 59 62 62 62 62 63 63 63 64 64 65 66 66 66 65 66 66 64 64 62 61 60 59 57 55 53 54 55 55
56 50 43 51 56 59 56 54 52 44 41 40 39 45 60 60 60 60 63 62 63 64 64 64 64 63 63 63 64 63 63 63 62 60 58 59 58 56 54 54 55 55 55 54
54 48 42 47 52 55 53 53 51 47 44 40 38 47 59 59 61 62 61 63 63 62 63 62 62 62 62 61 60 60 60 60 58 57 58 57 56 55 54 55 55 54 53 51
57 48 47 43 49 52 47 50 51 51 42 44 43 51 59 62 61 64 63 62 63 63 62 62 61 60 60 60 60 61 58 58 57 57 57 56 55 55 55 55 53 52 53 47
56 47 47 49 51 52 52 51 49 49 50 46 50 48 56 60 61 62 59 60 61 60 59 59 59 60 60 60 59 59 58 56 56 56 56 55 54 55 54 52 49 48 49 49
52 47 46 46 48 49 48 51 50 50 49 49 50 49 59 60 59 57 56 57 55 55 56 57 58 58 58 58 59 57 56 55 56 56 55 54 53 54 50 48 46 45 45 45
48 43 42 41 43 46 39 45 49 50 52 53 47 57 57 56 55 55 54 54 52 51 51 52 52 53 54 56 56 56 55 55 54 53 53 52 52 48 46 46 45 44 44 45
43 43 41 37 37 33 52 53 54 53 53 54 53 55 56 55 51 52 55 54 50 49 48 48 49 50 50 52 52 52 53 52 51 51 50 50 50 47 45 45 43 42 44 42
49 42 37 36 38 43 49 51 51 50 55 55 55 54 52 51 53 49 47 49 47 46 46 46 47 47 48 48 49 49 48 48 48 47 47 48 48 46 44 42 41 41 41 43
43 44 44 34 35 34 48 55 55 57 46 55 54 51 50 51 48 52 47 46 44 45 46 45 46 46 46 46 48 47 46 46 44 45 46 48 48 46 45 45 45 43 44 43
38 37 38 33 37 41 51 54 56 44 50 54 54 53 52 51 53 50 45 43 44 44 44 44 45 44 45 47 47 45 45 44 46 47 48 47 47 45 44 43 42 41 40 41
41 38 35 35 35 37 52 52 48 55 53 53 53 54 52 46 44 44 44 42 43 43 43 45 43 43 44 47 46 43 41 45 46 44 42 41 41 42 44 44 43 43 42 40
41 45 42 45 46 53 53 56 56 55 55 52 54 53 49 44 44 43 42 42 42 43 43 44 43 42 43 44 45 42 41 43 43 42 41 41 41 41 41 41 41 41 41 39
44 47 46 46 51 51 52 54 55 55 55 54 56 54 50 46 43 41 41 41 41 43 42 43 42 40 39 40 40 41 41 42 40 39 38 39 39 39 40 41 40 39 38 37
46 48 44 45 49 49 52 53 55 52 51 50 51 51 48 44 42 42 41 41 41 41 41 41 39 37 36 37 36 38 39 39 37 37 36 36 36 36 37 37 36 35 37 35
47 46 43 44 54 53 54 55 50 49 49 49 46 44 45 45 42 42 40 41 40 39 39 38 37 35 34 33 33 35 37 37 36 35 34 32 33 33 34 33 34 33 32 32

GFSCGP_sfc_temp_036.txt.gz
Temp
71 67 63 68 70 68 67 64 63 68 71 68 68 70 69 68 67 67 68 71 72 73 77 77 76 75 74 74 73 74 73 73 72 75 74 75 73 74 75 76 76 74 75 74
65 62 70 70 69 66 65 63 63 67 67 67 67 68 72 70 68 69 70 71 73 74 76 75 76 76 74 75 74 74 75 74 74 78 77 77 75 75 76 76 74 74 73 74
64 66 69 67 66 64 65 63 63 62 66 67 66 64 65 70 72 71 72 75 76 76 76 76 75 75 76 75 74 75 77 77 76 78 78 76 75 71 70 72 72 72 72 73
66 70 66 66 65 66 60 68 64 63 61 57 65 57 65 69 67 70 72 73 75 77 79 80 78 77 76 76 77 77 78 78 78 77 76 72 72 69 68 69 72 69 67 70
63 65 64 63 66 69 64 67 65 64 62 59 60 59 63 65 66 70 72 74 77 78 80 80 81 80 80 79 77 77 78 78 78 76 74 71 70 72 71 70 69 67 66 68
68 71 70 69 69 70 69 66 64 63 62 51 59 58 63 66 69 73 77 77 77 79 80 81 83 83 81 80 77 75 75 77 76 71 66 66 68 69 66 67 66 65 65 64
64 66 70 70 65 67 67 63 52 50 49 48 58 56 63 71 74 74 75 79 80 80 80 80 80 81 81 80 76 75 75 69 71 67 63 65 67 67 63 65 64 60 55 55
56 52 65 70 67 64 64 64 53 41 43 53 56 52 66 73 75 76 77 78 79 81 81 81 82 82 82 80 78 76 74 67 63 62 65 66 67 68 66 68 59 54 53 55
56 57 66 67 70 70 61 57 65 52 50 50 57 61 70 73 72 74 74 73 76 79 81 81 83 83 81 80 77 75 74 72 69 64 63 64 65 66 68 68 58 57 58 61
63 54 63 64 68 66 65 68 54 57 43 41 52 54 60 66 69 72 74 75 76 77 77 78 79 80 82 81 79 76 77 76 73 69 66 67 66 67 68 68 62 61 60 64
68 62 56 62 60 62 60 59 59 60 55 46 44 54 69 68 71 72 74 74 77 78 77 76 77 78 78 79 78 76 76 77 77 75 70 67 68 68 67 66 62 61 61 62
68 62 53 59 65 67 68 64 63 52 50 52 49 52 73 74 72 72 74 73 75 76 77 78 76 75 75 75 77 76 76 77 78 77 74 70 68 66 64 62 61 60 59 60
65 58 50 54 58 63 61 64 65 61 56 52 45 53 72 72 72 74 74 76 74 74 77 76 74 74 74 74 74 74 74 74 75 74 72 68 63 62 61 59 59 58 59 59
62 62 56 49 56 63 56 61 63 61 52 53 54 59 68 71 72 75 75 75 75 74 74 76 74 73 73 72 71 71 70 70 68 67 67 65 63 60 59 58 58 58 57 59
64 56 60 62 64 64 62 62 62 59 60 54 59 61 66 71 73 75 72 71 71 70 70 71 72 73 72 70 70 70 68 67 66 66 66 64 63 64 63 62 61 60 58 55
64 56 59 55 62 60 58 62 64 62 63 62 63 62 73 75 74 72 69 67 67 66 67 68 69 70 68 68 69 66 65 64 65 65 64 63 61 61 59 57 54 50 48 48
57 56 52 49 54 54 46 56 61 62 65 63 57 66 73 71 70 70 68 66 64 63 63 64 65 65 66 66 66 65 64 64 63 62 61 60 60 58 56 52 49 47 45 47
55 54 54 48 42 36 60 66 67 63 66 68 67 70 71 71 70 66 68 65 62 61 61 62 63 63 63 64 63 63 63 62 60 59 58 58 57 55 54 52 48 46 46 44
60 55 48 42 45 55 56 59 60 59 62 70 68 71 71 66 63 59 61 64 61 60 59 60 61 61 61 61 61 61 60 59 58 56 56 56 55 53 52 50 48 48 50 50
54 54 51 43 43 38 59 68 69 67 55 72 71 69 66 62 55 65 58 57 56 58 59 58 59 59 59 59 60 58 57 56 54 54 55 55 55 54 52 51 50 51 52 48
44 46 43 46 44 54 64 65 67 51 57 70 72 70 65 60 67 63 58 56 57 57 56 57 58 56 57 58 58 55 54 52 54 55 55 54 53 51 50 48 47 47 48 49
47 45 42 48 41 41 64 61 58 67 67 69 68 69 65 62 58 56 56 54 54 54 55 56 54 54 56 57 56 54 52 53 52 49 46 44 46 48 51 50 51 50 50 47
46 53 51 53 56 67 65 69 70 70 71 66 68 68 66 57 56 56 54 54 54 55 55 55 54 52 54 55 54 50 49 50 48 49 49 49 49 49 49 49 48 49 48 46
51 53 51 53 65 64 65 69 67 68 68 69 70 68 62 58 56 55 54 53 53 55 54 54 51 49 48 50 51 50 50 51 49 47 47 47 45 46 47 49 47 46 43 41
57 52 57 57 64 59 63 66 70 66 65 64 68 66 63 60 56 55 53 52 54 54 52 52 49 47 46 48 47 49 49 49 46 45 44 43 43 44 44 44 42 40 40 35
56 56 51 54 67 65 70 72 69 65 62 64 65 62 63 60 56 55 53 53 52 50 50 48 47 45 44 44 44 44 46 47 45 42 41 39 40 41 42 41 42 31 31 31

GFSCGP_sfc_temp_039.txt.gz
Temp
75 69 65 70 73 74 71 68 66 67 75 71 69 71 68 74 74 71 70 72 73 74 77 76 76 75 74 74 73 72 73 74 73 74 76 76 74 76 74 75 77 77 79 77
71 64 72 76 74 71 70 67 67 71 74 71 71 71 76 76 74 75 74 74 76 78 77 76 76 75 75 74 74 74 74 75 75 78 78 78 78 79 79 78 76 78 77 77
66 71 76 71 70 67 68 66 67 66 71 74 71 68 72 77 77 76 77 78 78 78 78 78 77 76 75 75 75 76 78 76 75 78 80 80 79 78 77 77 77 77 76 77
70 76 70 69 68 70 62 73 69 67 65 59 72 55 63 74 73 75 76 77 79 80 81 81 80 78 77 77 78 78 79 78 76 77 76 77 76 71 73 74 76 76 74 73
67 69 68 66 69 73 66 72 69 69 66 64 65 60 63 74 70 73 77 77 79 81 82 82 82 82 82 80 79 79 80 80 81 76 77 78 75 76 75 74 73 73 70 71
71 79 75 72 75 73 75 69 69 69 65 53 62 62 59 67 72 76 79 80 80 81 83 84 86 85 84 83 81 79 79 80 81 79 76 74 74 72 69 71 69 69 69 69
67 69 75 75 68 72 70 64 52 51 50 49 65 61 65 64 77 77 78 82 82 83 83 84 84 85 84 82 81 80 80 79 80 78 74 67 65 67 67 67 66 66 67 67
58 55 69 74 70 67 66 65 53 33 45 52 63 55 65 78 80 81 82 83 85 84 84 85 86 86 85 84 82 80 79 78 78 74 69 66 65 66 67 69 66 67 68 66
59 60 75 74 75 73 65 60 70 56 58 53 60 66 73 77 76 78 79 79 81 84 86 85 87 87 86 86 84 81 80 78 76 72 66 65 67 68 69 67 68 66 62 57
67 58 69 71 74 73 69 72 57 59 44 42 55 59 62 68 72 75 77 78 80 83 84 86 87 87 88 88 87 83 82 80 75 68 71 66 69 69 70 69 66 65 61 59
69 63 63 67 63 64 64 62 64 63 58 46 45 56 72 71 74 74 78 79 81 81 81 82 84 86 87 89 87 84 82 81 74 72 72 69 70 69 68 67 65 63 61 60
68 64 56 60 71 74 70 65 65 53 52 56 53 55 76 76 77 77 78 79 81 82 83 83 83 82 83 83 84 83 81 81 81 75 74 72 72 69 66 65 64 63 62 62
68 61 51 56 63 69 64 67 68 66 63 53 45 54 75 76 76 78 78 80 81 81 82 82 81 80 80 80 80 81 80 80 82 79 74 71 67 65 64 63 62 62 60 60
64 63 57 51 58 65 59 64 67 64 54 54 55 60 69 73 74 78 79 80 81 81 81 83 81 80 80 79 78 79 78 79 80 79 77 71 64 62 61 60 59 58 57 56
66 56 61 63 66 67 65 64 65 62 63 55 60 62 69 74 76 78 78 78 78 78 79 80 80 78 77 76 75 76 74 73 73 71 71 67 64 64 61 58 57 57 56 56
66 56 60 57 65 65 62 66 67 66 66 65 66 65 77 78 80 77 78 76 75 76 76 76 78 77 75 74 74 71 70 69 70 69 69 67 67 66 64 63 62 60 54 53
60 56 54 49 61 60 51 61 64 66 69 67 59 68 76 75 76 76 77 77 75 73 73 73 74 73 72 72 71 69 68 69 69 67 66 65 64 62 60 58 56 53 51 52
56 56 56 48 48 39 59 71 71 66 69 72 71 73 75 77 79 78 78 77 72 71 70 70 70 69 70 71 70 69 69 67 65 64 63 62 61 59 58 57 54 53 51 49
60 55 49 44 47 55 61 67 66 64 64 73 72 74 77 79 74 69 73 75 71 69 69 70 70 69 68 68 68 67 65 64 63 61 60 60 59 57 56 53 52 52 52 51
55 58 51 49 43 39 58 70 75 74 56 74 75 74 74 74 59 69 69 70 68 68 68 67 67 67 66 66 67 64 62 61 59 59 59 59 59 57 55 52 50 51 50 49
43 45 44 46 46 54 68 74 77 53 57 75 76 76 74 70 71 72 67 65 67 67 66 66 66 65 65 65 64 61 60 58 59 59 59 58 57 54 53 52 52 51 51 51
40 44 43 48 45 41 71 70 61 68 74 75 76 76 73 75 69 66 64 64 64 64 63 65 63 62 63 64 62 60 58 59 58 56 54 52 52 52 55 54 54 53 52 50
45 50 50 56 56 67 70 70 75 78 76 76 75 77 75 70 66 64 63 63 63 63 63 64 62 60 61 62 62 57 55 55 53 53 53 53 54 54 54 53 52 52 51 48
58 60 53 57 64 68 70 72 76 77 76 78 77 77 75 68 66 64 63 62 62 64 63 62 59 57 57 59 58 55 55 56 54 52 52 52 51 50 51 52 51 48 45 43
58 58 57 59 64 68 71 72 74 76 75 74 75 75 73 69 66 64 63 62 63 63 62 60 57 55 54 55 54 56 55 55 51 50 49 48 47 48 47 46 44 42 37 36
62 58 50 52 64 62 67 72 72 74 74 72 72 72 71 69 66 65 63 63 62 60 58 57 55 53 53 53 52 53 54 53 49 46 46 44 44 45 46 45 38 32 33 31

GFSCGP_sfc_temp_042.txt.gz
Temp
72 64 60 66 70 71 69 66 63 68 71 68 65 61 57 65 70 68 68 64 66 66 70 70 69 67 67 67 65 66 62 62 64 65 66 66 64 67 67 68 70 70 70 70
67 61 70 74 73 71 69 65 65 71 74 71 69 69 69 72 71 70 67 67 67 68 69 70 68 68 67 66 66 66 67 68 68 68 68 68 68 68 70 69 69 70 69 71
62 68 75 72 70 67 66 64 65 63 68 72 69 65 70 72 75 75 73 73 74 72 68 70 70 68 68 66 66 68 69 69 69 71 72 72 70 69 70 70 67 69 69 70
67 74 72 69 66 69 61 72 69 66 63 56 70 52 65 69 70 72 74 73 74 76 74 72 72 69 69 69 69 70 71 72 72 72 72 70 70 68 68 68 69 69 69 69
64 68 68 65 67 72 65 70 67 67 63 62 63 58 65 71 68 70 72 74 76 77 77 74 73 73 72 72 71 71 72 74 72 71 71 69 69 68 68 67 68 68 66 66
69 77 74 71 73 74 75 68 67 66 62 49 60 60 58 62 64 72 75 76 77 77 78 79 78 77 75 73 72 71 72 74 74 72 71 69 65 68 65 64 63 64 62 63
65 67 75 76 68 73 70 63 50 47 47 46 63 60 63 66 71 73 76 78 77 78 78 78 79 77 77 74 72 73 73 73 74 71 70 69 68 66 65 63 63 60 60 60
55 52 67 73 68 65 64 63 50 34 34 46 59 54 63 75 79 80 81 81 81 79 78 79 80 79 78 76 75 74 73 73 74 72 70 70 69 67 65 65 63 61 61 61
55 57 72 73 73 71 64 57 67 46 45 41 47 62 73 76 76 77 78 79 78 80 80 80 81 81 80 78 76 74 75 75 74 73 70 68 68 67 66 64 64 62 62 60
63 54 68 71 73 72 67 71 55 56 40 38 53 56 58 65 70 75 75 76 78 81 81 81 81 81 82 81 80 76 77 74 77 74 71 67 67 64 64 65 63 62 61 57
67 60 58 68 64 62 63 60 61 61 56 43 42 52 62 60 61 73 76 77 78 78 79 80 80 81 81 82 82 77 77 77 75 73 68 67 66 65 65 64 63 63 57 57
68 61 52 58 70 71 68 63 62 50 50 53 47 50 74 72 70 76 76 78 79 79 80 80 79 79 79 79 81 77 78 75 73 70 69 68 65 65 64 63 62 59 58 58
67 57 46 53 62 68 62 65 66 64 60 51 40 49 74 75 75 77 75 77 78 78 80 80 79 78 78 78 78 78 77 77 71 70 68 67 65 64 63 61 59 58 58 57
62 61 54 46 54 62 58 63 64 61 49 49 48 57 65 71 68 68 75 77 78 78 79 79 78 77 77 77 76 76 74 75 72 70 68 66 61 60 57 57 56 55 55 54
64 54 58 61 64 64 62 62 63 60 60 53 58 60 66 71 67 65 73 77 78 78 78 78 78 76 76 74 74 75 72 68 70 69 65 60 59 59 57 56 55 54 53 53
63 53 57 54 62 63 58 64 65 64 64 64 64 63 74 75 68 69 72 77 75 76 77 78 78 76 74 73 73 71 67 67 68 66 61 61 61 59 57 55 54 53 51 49
58 54 52 46 57 56 47 58 63 64 68 66 58 66 73 72 73 71 74 77 76 75 75 75 75 74 72 72 69 67 66 67 66 64 64 63 62 59 56 55 53 49 48 47
56 55 53 44 44 37 57 69 68 64 67 69 69 71 74 74 77 78 78 75 74 74 73 72 72 70 70 69 68 66 67 65 63 62 62 61 58 56 55 54 51 48 47 45
56 50 42 41 43 52 58 64 62 60 60 70 69 72 75 77 76 71 75 75 73 71 70 70 70 69 68 66 66 65 64 63 61 60 59 59 57 55 53 50 48 47 47 46
52 52 42 43 39 36 53 65 72 70 52 71 72 70 72 74 56 66 71 72 70 71 70 68 68 67 66 65 65 62 61 60 58 58 58 57 56 54 51 50 48 48 49 48
41 41 37 41 40 49 63 68 71 49 53 72 72 72 71 67 70 71 70 69 70 69 68 67 66 64 64 64 63 60 58 56 58 58 58 57 55 51 49 48 48 48 47 46
40 36 38 42 39 37 66 65 57 64 68 72 71 72 69 71 68 67 67 66 66 66 66 66 63 62 63 63 61 58 56 58 58 56 54 52 50 51 52 49 48 49 46 42
42 48 43 46 46 52 56 64 69 71 69 72 71 75 73 69 66 66 64 64 65 65 64 65 62 60 61 62 60 56 55 56 53 51 50 50 51 52 52 48 46 45 43 38
57 57 48 46 53 55 55 65 70 72 71 74 76 76 73 68 66 64 64 63 63 64 63 63 60 58 57 60 59 55 54 53 52 50 49 49 48 48 47 48 46 41 36 34
55 54 52 52 57 61 64 65 65 70 72 73 74 72 70 71 67 65 63 62 63 62 62 61 58 57 56 56 54 55 54 54 50 48 47 45 43 44 41 36 37 32 31 31
61 57 50 48 60 57 61 65 68 66 66 70 70 69 71 72 68 66 63 63 62 61 60 58 57 55 54 54 53 53 53 52 48 45 42 38 38 38 41 36 32 33 32 31

GFSCGP_sfc_temp_045.txt.gz
Temp
62 52 48 52 57 61 60 58 56 57 64 61 57 54 55 58 53 58 57 59 59 58 60 60 58 58 57 57 57 57 57 58 59 59 57 60 59 62 65 63 66 65 64 66
57 51 60 65 64 62 61 57 55 62 69 60 57 55 56 55 55 60 59 59 59 60 59 60 59 59 58 58 58 57 58 58 59 61 62 62 63 65 67 65 64 64 64 64
53 58 67 65 62 61 60 56 56 57 62 64 58 51 53 59 61 65 62 62 63 62 58 61 60 59 60 59 60 58 59 60 60 62 64 64 62 60 61 63 62 65 66 66
57 66 64 63 62 62 53 63 63 60 54 46 56 45 55 58 59 63 63 62 62 63 64 63 61 60 61 61 62 63 62 62 63 65 65 64 63 63 63 62 65 64 66 65
56 59 60 59 62 66 58 65 61 59 53 49 52 50 54 63 57 60 62 64 64 65 65 64 62 63 64 64 63 64 65 66 67 66 66 63 64 63 62 62 62 62 62 63
60 69 66 64 69 67 68 61 58 56 51 38 50 47 48 57 62 64 66 67 67 66 65 66 66 66 64 64 64 64 64 66 67 66 65 63 61 63 60 60 61 59 60 58
57 60 67 69 61 64 62 53 40 37 35 34 53 48 51 60 65 67 68 68 69 69 66 66 66 65 66 65 64 65 65 65 67 67 66 65 63 62 63 63 60 59 58 57
46 44 60 67 62 58 57 53 38 30 29 38 50 45 52 68 67 68 70 72 71 70 71 68 68 67 66 67 67 66 66 66 67 67 66 67 67 66 63 63 61 61 60 60
46 49 65 68 68 64 57 50 56 42 42 35 43 50 58 68 65 68 68 69 66 70 71 71 71 70 69 68 68 68 68 68 69 67 67 67 67 64 64 60 59 59 58 57
54 46 62 67 67 65 62 63 48 45 32 29 43 44 50 59 63 64 66 66 65 67 71 72 72 71 72 72 71 69 70 68 70 69 67 67 67 62 60 59 58 57 57 55
60 52 51 60 56 55 55 54 54 53 47 35 32 42 55 58 60 62 63 66 67 68 67 67 67 69 68 68 68 69 69 68 67 67 68 66 64 61 60 60 58 58 54 54
61 52 45 52 63 65 62 56 54 40 42 41 35 40 60 61 62 66 68 68 66 67 69 67 65 64 62 65 68 71 71 67 67 68 68 65 62 60 60 60 59 58 57 56
60 52 41 48 56 59 57 58 58 55 48 42 33 40 65 67 65 66 64 64 67 69 69 67 68 68 68 67 69 72 69 69 68 66 64 61 60 60 60 60 58 55 55 55
59 54 49 41 48 54 50 56 59 55 39 42 40 49 56 62 61 65 61 61 64 66 70 67 66 67 67 68 66 68 68 67 65 64 63 60 59 59 57 56 55 55 56 54
55 49 51 55 57 57 57 57 57 54 55 46 48 51 57 61 62 62 64 64 66 69 68 67 65 65 65 65 64 63 62 64 63 63 59 56 55 55 54 55 54 54 54 52
52 45 49 46 55 58 53 57 58 58 55 55 57 55 65 66 62 62 66 66 65 70 69 69 67 66 65 65 62 61 61 59 61 58 57 56 56 55 55 54 52 51 49 49
42 42 42 41 49 49 41 51 56 56 60 58 49 57 63 63 66 62 64 68 68 68 67 68 66 66 65 63 62 58 59 60 58 57 58 58 57 55 53 52 50 48 47 46
41 39 41 33 41 32 51 61 60 57 60 62 61 62 63 64 67 65 67 66 66 65 65 64 63 61 61 61 60 60 59 58 57 56 56 55 53 51 50 50 48 46 45 42
45 39 36 35 38 44 50 57 55 53 53 62 60 62 63 65 62 58 66 64 62 62 61 59 59 59 58 59 58 58 57 57 56 54 53 52 51 49 47 44 42 42 41 40
44 40 34 32 33 32 46 57 63 62 45 62 62 60 60 60 47 54 62 63 60 60 60 59 58 58 58 55 57 56 53 53 52 52 52 52 51 48 45 43 42 42 41 42
33 32 32 31 32 37 54 61 65 44 45 62 64 62 60 57 56 60 60 60 60 60 59 58 58 56 54 55 56 52 50 49 51 52 52 51 49 46 45 44 44 43 43 45
36 33 32 35 32 31 53 55 49 50 58 63 63 62 59 60 59 60 59 59 59 58 58 57 55 54 53 55 54 50 49 52 51 50 48 46 46 47 47 44 43 43 40 37
36 40 37 39 38 49 52 53 54 55 54 61 61 65 63 58 58 58 57 57 57 57 55 56 54 52 53 53 54 50 48 49 48 47 46 46 46 46 45 41 39 39 37 33
48 50 42 43 49 52 55 54 57 57 59 61 64 62 59 59 57 55 56 55 55 54 53 53 52 51 49 52 52 49 49 48 47 45 44 42 41 41 40 40 38 34 30 30
45 49 47 45 52 55 55 54 56 58 59 62 61 60 63 59 57 57 54 54 53 54 53 53 49 48 47 49 48 49 48 48 45 43 42 40 36 34 33 33 31 29 29 30
50 46 40 37 53 52 55 56 59 59 60 62 59 59 64 59 58 57 54 53 53 51 51 51 48 47 47 47 46 46 46 45 42 39 37 33 33 32 33 31 29 32 32 32

GFSCGP_sfc_temp_048.txt.gz
Temp
59 51 46 49 52 55 54 51 50 55 62 57 54 53 55 53 54 53 52 53 53 54 55 55 55 55 53 55 58 58 57 57 59 60 59 59 59 61 62 62 60 62 62 64
53 48 57 58 57 55 54 52 52 57 62 59 53 53 52 54 54 55 55 54 54 55 54 55 54 53 54 54 55 55 56 57 60 61 62 62 61 61 63 63 61 63 61 62
51 55 62 59 56 54 55 52 53 54 58 56 51 48 52 56 57 58 59 59 58 55 53 54 54 54 53 54 54 55 56 57 58 59 59 59 57 60 61 63 62 61 62 63
53 61 59 56 55 57 50 60 59 57 50 43 53 39 48 54 54 57 58 58 58 57 57 57 55 54 54 55 57 57 57 57 58 59 59 58 58 57 61 63 64 62 62 62
51 54 55 54 56 60 55 60 59 57 50 45 48 43 47 55 51 55 57 58 59 58 57 57 57 57 57 57 57 57 58 59 60 59 60 60 59 61 59 58 59 61 60 61
55 61 58 57 63 62 64 58 55 52 47 37 45 44 42 47 55 59 61 61 61 60 59 60 60 60 59 59 59 58 57 59 60 60 59 59 59 60 57 57 59 60 61 61
54 56 61 62 56 60 58 49 39 36 34 33 48 44 46 55 62 64 63 63 63 63 62 60 59 59 59 59 59 60 59 59 61 61 61 61 61 60 58 60 60 59 59 57
43 39 55 61 58 54 53 50 37 30 30 37 46 41 49 60 61 66 67 67 66 64 64 63 61 61 61 61 60 61 60 61 62 62 62 63 63 63 61 62 61 60 60 59
42 44 59 61 63 60 53 46 54 40 39 33 40 46 56 61 61 61 63 63 64 65 64 64 64 63 63 62 61 61 62 62 63 63 64 63 64 64 64 63 60 61 60 57
51 42 56 61 61 61 58 58 45 41 32 30 38 40 43 55 58 61 61 61 63 66 65 65 66 64 64 64 64 63 63 63 64 64 65 65 64 65 64 60 60 60 58 57
55 48 49 55 52 53 52 50 50 48 41 32 30 38 52 57 60 59 61 63 64 65 66 67 66 67 66 65 65 64 64 63 63 64 66 66 65 65 62 61 61 60 57 56
56 49 43 49 58 60 57 53 52 40 39 39 33 41 59 58 59 61 63 64 61 63 65 69 68 69 67 66 66 66 66 65 65 66 66 66 64 59 59 59 59 58 57 56
51 46 35 42 51 57 52 54 54 50 44 37 33 40 59 59 60 63 60 61 64 61 63 62 63 66 68 67 68 67 67 67 66 66 66 64 61 59 60 61 61 61 56 55
52 48 44 39 45 51 48 53 55 52 35 38 39 48 54 59 58 62 61 60 63 64 64 62 61 65 66 65 66 67 67 66 66 66 64 63 61 60 61 61 61 59 56 54
49 39 46 50 54 55 54 56 54 50 48 42 47 47 56 57 59 61 62 62 63 65 64 63 61 64 63 62 62 65 66 66 66 64 64 62 61 61 59 57 55 54 53 53
47 38 41 43 52 53 51 53 55 55 53 51 53 50 60 64 60 57 62 63 63 63 65 65 64 62 63 62 60 60 60 64 64 63 63 61 58 58 55 55 54 53 51 51
44 39 36 34 46 47 39 50 53 52 54 54 45 53 60 59 61 59 61 62 63 63 64 63 64 64 63 61 60 57 58 59 61 61 59 56 56 55 54 53 51 49 48 48
40 38 37 31 37 33 49 58 58 54 56 56 57 59 60 60 63 63 63 65 63 62 63 62 62 61 58 57 56 55 56 56 56 56 56 55 54 52 51 50 48 47 47 46
46 38 32 30 32 42 47 53 52 51 53 58 58 60 61 62 58 57 63 62 63 63 62 62 60 57 56 57 56 55 54 54 53 52 53 52 51 49 48 46 46 45 44 43
42 41 36 32 29 27 43 54 60 57 41 57 58 59 59 57 45 52 61 61 60 59 59 56 54 55 55 53 55 53 51 51 49 49 49 50 49 48 44 42 41 41 42 41
32 32 31 31 30 36 48 52 57 43 43 51 57 58 55 53 54 59 58 58 58 57 57 55 56 55 53 54 54 51 50 48 49 49 48 47 46 44 43 41 41 40 40 40
33 31 30 32 31 31 51 52 45 47 48 52 55 54 54 57 59 55 57 56 56 55 54 54 53 52 51 54 53 49 48 49 50 48 46 44 43 44 44 42 41 42 41 36
35 39 34 38 38 50 52 52 54 53 50 53 52 56 56 56 55 56 55 55 56 55 52 52 52 48 48 50 52 48 45 47 45 45 43 43 44 43 42 40 38 38 37 34
44 47 42 41 48 50 53 53 55 55 54 56 57 58 57 55 56 55 53 52 52 52 51 51 50 48 45 48 48 46 46 46 45 42 41 40 38 36 36 36 35 33 30 30
42 46 46 43 49 51 52 54 56 56 58 57 57 56 57 57 56 55 53 52 52 51 50 51 49 47 44 45 45 46 45 45 41 40 37 34 33 32 30 29 29 29 30 30
40 39 36 37 45 45 50 54 55 56 57 57 55 55 56 57 57 56 54 52 52 50 49 47 45 44 43 44 43 43 43 43 39 35 33 30 30 30 30 29 28 32 32 32

GFSCGP_sfc_temp_051.txt.gz
Temp
56 49 45 49 51 51 49 47 45 49 57 53 54 50 51 51 50 49 48 49 50 51 53 52 54 56 56 57 57 57 56 56 58 58 57 55 56 58 62 63 62 62 62 63
50 47 55 56 54 51 50 46 47 53 58 54 52 51 51 51 53 53 51 49 51 51 51 52 51 54 54 55 56 57 57 58 59 59 61 60 58 58 63 63 62 61 61 61
47 52 59 55 52 50 49 46 48 49 55 53 49 49 49 53 54 54 54 54 54 53 51 51 51 52 51 53 52 57 56 58 60 62 63 60 58 58 57 60 59 60 60 60
50 58 55 52 52 52 45 54 54 52 47 42 50 37 48 49 50 53 54 53 54 54 55 53 51 50 50 51 53 54 55 56 57 59 59 57 59 57 59 58 59 59 59 59
48 51 51 51 53 55 50 56 53 52 47 44 44 40 46 50 49 52 54 56 55 56 55 53 53 53 52 53 52 54 55 56 57 56 56 53 53 54 55 56 56 57 59 59
54 57 56 54 58 57 60 54 51 48 44 35 44 42 40 46 53 55 58 57 57 56 56 56 56 55 53 52 52 53 54 55 57 56 55 54 55 56 55 54 56 58 59 59
50 52 55 58 51 54 53 45 35 34 32 33 46 41 44 53 57 60 58 59 58 59 57 56 55 54 54 53 53 53 54 54 56 56 56 56 56 56 56 56 56 57 58 58
42 38 52 57 54 50 49 47 35 28 28 36 44 38 47 57 60 61 62 63 60 59 58 57 57 56 56 56 55 55 55 55 56 56 56 58 58 59 59 60 58 57 58 60
39 42 55 57 58 56 49 43 51 38 36 32 38 45 53 57 57 59 60 59 59 60 60 59 60 58 58 58 57 56 57 57 58 58 58 58 59 59 60 61 59 60 59 59
47 40 53 56 57 56 54 54 42 38 31 29 36 38 42 52 55 57 57 57 59 62 61 62 61 60 60 60 59 58 59 59 59 59 59 60 60 62 61 62 60 58 60 57
52 45 45 52 48 48 48 45 46 45 38 32 31 37 49 52 55 56 56 58 58 59 62 62 63 62 62 61 60 59 59 59 60 61 61 61 61 62 61 61 61 60 58 58
51 45 40 47 55 56 52 49 48 39 37 36 33 41 55 55 56 57 58 59 60 59 62 63 64 64 62 61 61 60 60 60 61 61 61 61 62 62 61 60 60 60 60 58
49 41 34 42 47 51 47 51 51 47 42 38 34 39 56 55 57 59 57 60 61 60 59 60 62 63 63 62 62 62 61 61 61 62 61 60 60 61 61 61 61 61 60 59
51 44 38 33 40 47 43 50 51 50 37 38 42 46 52 56 56 58 58 59 60 60 62 58 60 63 64 64 63 63 62 62 62 62 62 61 61 61 62 62 60 60 60 59
48 37 41 41 45 48 49 50 50 48 47 42 45 45 53 55 56 58 61 60 60 61 60 59 58 60 63 63 63 65 64 64 63 62 62 62 62 62 60 59 60 61 59 57
46 38 38 38 45 47 45 50 52 53 49 48 49 47 56 59 59 56 59 60 60 61 61 63 63 61 61 62 62 63 64 64 64 62 62 63 62 59 58 59 60 57 54 54
41 37 33 31 39 38 36 45 50 51 53 52 45 51 57 56 57 57 59 59 60 62 63 62 62 63 62 63 63 62 63 61 60 62 62 61 60 59 59 57 54 53 52 50
39 38 35 30 33 28 42 50 54 52 54 55 56 57 58 57 60 60 59 59 59 62 63 61 60 61 64 60 56 54 56 57 59 58 58 58 58 58 54 53 51 49 48 47
43 36 31 26 30 37 43 50 46 42 44 55 56 57 60 60 54 56 61 59 60 61 63 62 60 57 56 55 53 54 56 56 56 56 55 54 54 51 51 48 47 46 45 44
40 39 31 31 28 25 40 53 56 54 40 51 51 51 55 55 43 52 60 59 59 59 58 57 54 54 54 52 54 53 54 54 53 52 52 52 51 50 48 46 44 45 45 43
31 33 31 29 29 33 44 51 52 38 38 51 52 51 50 49 51 58 56 57 57 55 54 53 54 54 53 52 53 50 49 49 50 51 50 49 48 46 45 42 42 42 42 41
32 31 30 33 29 26 50 47 40 45 48 50 52 52 50 51 52 53 54 54 54 54 52 52 51 48 49 51 51 47 45 47 47 45 45 44 44 44 43 42 41 41 39 35
31 35 31 35 35 47 48 49 51 51 50 52 51 53 52 51 52 53 53 51 50 50 49 49 50 47 47 49 50 46 44 45 44 43 42 43 43 41 40 38 38 35 34 33
38 43 37 39 49 50 52 52 54 54 53 55 56 55 54 51 52 53 52 51 50 49 49 47 47 46 44 46 46 45 45 45 43 41 39 38 36 34 34 34 35 33 32 32
37 41 38 39 43 45 52 50 52 54 55 55 57 55 55 54 54 53 52 50 48 49 47 47 46 44 43 44 43 44 44 43 39 36 35 33 31 30 30 31 32 31 32 34
41 38 35 34 41 40 42 48 49 52 52 52 51 53 54 54 53 55 52 50 48 46 45 45 43 43 42 42 41 41 42 40 36 33 32 30 29 29 30 29 29 32 32 32

GFSCGP_sfc_temp_054.txt.gz
Temp
52 46 44 48 51 50 48 45 43 46 52 50 50 49 55 49 48 48 49 48 49 49 52 52 53 54 55 56 57 57 57 57 57 56 56 56 56 57 59 61 61 62 63 62
48 46 52 56 52 50 48 44 43 49 54 52 48 49 50 49 49 51 50 48 49 50 49 50 51 55 54 56 57 57 57 57 58 57 60 60 58 57 57 60 60 61 61 61
47 49 57 55 49 48 45 43 44 46 49 50 46 46 48 52 50 52 52 52 52 51 49 49 51 54 54 55 55 57 57 58 59 61 58 56 57 57 56 58 59 60 61 61
48 55 52 49 49 50 42 50 50 48 44 38 46 35 46 49 50 51 51 51 52 52 52 50 49 53 54 55 55 56 58 58 58 61 59 58 56 58 59 59 60 60 60 60
46 49 49 47 49 52 48 53 50 48 43 39 42 37 44 47 49 51 52 53 53 54 53 50 50 50 53 51 52 51 56 58 59 60 60 59 59 59 59 57 57 57 59 59
51 54 53 54 55 55 55 50 48 45 41 32 42 40 38 45 51 54 55 55 55 54 53 53 52 51 50 50 51 51 52 54 55 54 55 55 56 55 55 53 54 53 55 55
48 50 54 56 50 51 50 43 34 32 30 31 43 38 43 52 55 57 58 56 56 56 55 53 50 50 49 49 50 52 52 53 55 53 53 53 54 55 54 55 54 52 54 55
40 37 51 55 52 47 45 44 33 28 28 34 41 36 46 55 59 58 58 58 56 55 56 55 54 52 51 51 51 52 52 53 54 54 54 54 55 55 57 56 57 56 56 57
40 41 54 55 57 56 46 41 48 36 34 31 36 43 52 56 56 57 55 56 53 55 56 56 57 55 54 53 53 52 53 53 54 54 55 55 55 56 57 57 56 57 56 56
48 40 51 53 55 52 51 52 39 36 30 28 34 35 41 51 56 55 55 54 55 55 56 57 58 56 57 56 55 54 55 54 55 55 55 56 55 56 56 56 57 57 58 55
47 43 44 50 46 45 46 43 43 43 36 31 29 34 47 52 53 54 56 58 55 55 55 57 58 59 58 57 56 55 55 55 55 56 57 56 56 56 56 57 57 56 57 56
49 44 37 45 52 53 50 46 45 35 36 34 31 37 53 54 55 55 57 58 58 56 57 58 59 58 57 57 57 57 56 56 57 58 57 56 57 58 56 57 58 58 58 58
48 39 32 38 45 48 44 47 48 44 39 34 31 37 56 54 56 57 57 57 58 58 55 56 57 58 58 58 58 59 58 58 58 59 58 57 57 57 57 58 60 60 60 60
49 42 38 31 36 41 38 45 47 46 35 35 36 42 52 56 55 59 57 57 58 59 59 56 57 59 60 59 59 59 59 59 59 59 58 57 57 58 59 60 60 60 61 60
46 37 40 42 42 43 41 43 45 43 43 39 43 43 51 56 55 57 59 58 58 59 59 58 57 58 60 60 59 60 60 59 59 58 58 57 58 59 59 59 59 60 60 60
44 36 36 37 44 42 39 43 45 46 46 45 46 45 53 58 57 55 58 57 57 58 60 60 60 58 57 60 60 60 60 60 60 59 58 59 59 58 58 59 59 60 59 59
40 36 33 31 37 39 33 38 41 43 48 48 42 49 56 54 56 55 58 57 58 58 59 60 60 62 61 60 61 60 60 61 59 59 59 59 59 58 59 59 59 58 58 58
38 37 33 30 31 25 41 48 47 43 46 49 50 51 55 56 60 60 58 57 57 57 59 59 60 60 61 60 59 61 58 58 59 59 59 58 57 58 57 58 58 57 53 52
42 37 28 25 26 35 40 47 43 43 43 52 48 50 51 55 55 54 58 57 58 58 58 59 58 57 58 57 56 55 54 55 55 56 56 55 55 56 54 53 51 50 47 47
38 39 33 30 23 22 35 48 51 51 36 48 47 47 48 49 40 52 59 57 58 57 57 58 54 54 54 53 54 54 54 54 54 54 53 53 52 51 50 47 46 45 45 43
31 33 32 30 28 30 42 48 51 34 37 48 48 48 47 44 47 54 54 54 55 55 54 55 53 53 53 51 53 53 54 52 50 50 50 50 49 46 45 43 43 43 41 38
30 29 26 32 29 23 46 46 41 45 47 47 49 50 47 49 51 50 52 52 51 51 50 50 49 48 47 49 50 48 47 48 48 48 46 44 43 44 43 42 41 39 37 34
30 34 30 33 33 43 45 46 51 50 49 51 50 53 51 48 50 51 52 52 50 48 47 47 45 45 45 47 48 44 42 45 45 44 43 42 41 41 41 39 37 36 35 34
37 40 35 34 41 42 45 46 46 47 50 54 55 54 54 50 52 49 50 50 49 47 47 47 45 43 41 43 44 44 43 44 44 40 39 39 37 35 35 35 35 35 34 32
36 39 37 36 39 42 44 44 43 45 49 50 53 52 47 46 46 47 49 48 46 46 45 45 43 41 40 42 42 43 44 42 37 35 34 34 33 33 31 30 31 31 33 34
38 35 32 30 42 40 42 43 42 43 42 43 41 41 40 41 41 46 41 41 42 42 41 40 39 38 37 37 37 38 40 39 36 33 32 31 31 31 31 30 28 32 32 32

GFSCGP_sfc_temp_057.txt.gz
Temp
57 52 48 53 57 56 55 52 51 55 59 58 57 58 64 64 58 58 59 59 58 58 61 61 60 61 60 61 61 59 58 59 59 58 58 58 58 60 64 68 68 66 69 68
52 47 56 58 57 56 55 51 52 56 58 57 60 59 64 62 62 61 61 60 60 59 58 58 59 59 59 59 60 60 58 59 59 59 60 61 60 57 63 67 67 68 68 69
50 53 58 56 53 51 53 51 50 53 55 58 55 56 60 64 60 60 60 62 63 61 57 55 56 58 59 59 59 60 59 59 60 61 60 59 59 57 57 61 64 67 66 68
52 58 55 54 52 54 48 54 55 52 51 47 57 45 55 63 62 61 62 60 62 61 61 57 55 55 58 60 62 61 61 59 60 60 60 57 59 57 62 60 62 63 63 64
49 50 52 51 53 56 53 56 54 54 50 49 50 48 54 56 59 65 67 64 62 63 62 59 55 57 60 61 61 61 61 59 60 61 63 60 59 59 62 60 58 63 64 63
54 59 58 57 56 58 58 55 53 51 49 41 49 49 51 56 61 65 67 68 64 62 62 62 61 59 60 61 60 59 61 60 60 60 61 60 59 58 57 57 57 57 59 60
51 52 57 59 54 56 56 51 42 40 39 40 48 46 53 61 63 64 67 70 66 63 63 61 59 57 56 54 56 58 60 60 61 61 62 62 61 60 58 59 59 59 58 60
43 40 53 58 55 50 51 51 43 34 36 43 47 44 54 64 66 65 66 67 67 64 63 63 61 60 57 55 56 57 59 60 61 61 61 62 64 64 64 64 65 64 63 65
43 44 56 57 58 59 49 45 54 43 40 39 45 51 59 66 65 67 65 65 67 66 63 64 63 61 60 59 58 58 60 61 61 61 62 61 62 63 63 64 64 65 65 64
50 43 53 55 59 58 56 57 45 43 36 34 41 44 51 59 63 64 64 64 66 67 64 64 64 61 62 61 61 59 61 61 62 61 62 62 62 62 63 63 63 63 64 65
52 48 47 53 51 50 51 50 49 50 43 38 37 45 57 60 63 63 65 65 66 66 65 64 65 64 63 62 61 59 60 60 61 61 62 62 62 62 62 62 63 63 64 64
51 46 40 46 55 57 56 51 52 42 40 40 39 46 62 61 63 62 65 66 68 67 67 66 66 65 63 62 62 61 61 61 61 61 61 61 61 62 61 61 62 63 63 64
50 43 37 42 49 52 48 50 52 48 44 41 38 45 62 62 62 65 63 68 67 65 68 66 64 64 64 64 63 62 62 62 62 62 61 60 59 59 59 59 60 61 62 62
51 45 41 37 40 45 42 46 48 48 40 43 43 49 58 61 62 65 65 68 68 66 67 67 64 66 66 64 64 64 63 63 63 62 62 61 60 60 60 61 61 61 62 61
48 40 43 44 44 44 44 45 47 45 47 42 47 47 56 59 62 66 67 65 66 67 67 66 65 67 67 65 64 65 65 64 64 63 63 62 62 62 63 62 62 62 62 61
45 38 41 39 45 43 41 46 46 48 48 48 50 50 58 59 62 62 64 64 65 67 67 68 68 65 65 66 65 65 65 64 64 63 62 64 64 63 62 63 62 63 63 63
39 39 37 36 39 40 37 43 45 46 48 48 44 51 57 55 56 58 62 65 62 64 65 66 67 68 66 66 65 65 66 65 63 63 63 64 64 63 62 63 63 63 62 63
38 38 36 33 35 29 45 50 51 49 51 52 52 54 55 55 57 59 61 63 64 63 63 65 66 68 70 71 68 67 67 66 64 63 63 63 63 62 63 62 62 62 63 62
43 39 32 31 32 38 46 49 46 47 48 52 50 52 54 56 56 61 61 61 59 61 62 64 66 67 68 67 68 66 64 66 64 63 63 63 62 62 62 61 61 61 54 51
40 41 37 31 29 26 41 50 54 54 41 53 52 52 52 54 48 55 61 58 58 61 61 62 63 63 63 65 64 63 63 63 63 63 64 63 62 61 58 55 52 48 47 44
33 35 32 32 31 35 46 50 53 38 43 54 53 53 53 50 55 59 57 58 59 58 57 57 58 58 57 59 60 60 60 59 55 55 55 53 53 50 47 45 44 43 41 39
33 31 31 35 29 28 49 50 44 46 51 53 54 54 53 55 55 55 57 56 56 55 54 53 53 51 53 55 57 55 50 50 51 49 46 45 45 45 44 43 42 40 38 34
35 39 37 39 39 47 50 48 48 48 46 49 51 56 55 53 53 53 53 54 53 52 52 52 51 49 48 50 53 48 46 47 46 44 43 42 42 42 42 39 38 36 36 34
41 44 40 40 46 46 46 47 46 47 45 46 49 46 46 43 46 47 49 48 48 48 48 50 48 45 43 45 46 46 46 46 44 41 40 39 37 36 37 37 37 35 34 33
43 43 41 40 45 47 45 43 43 45 45 44 45 43 41 40 41 43 41 39 41 41 42 43 42 41 39 41 40 42 43 43 41 39 38 36 35 34 32 31 32 32 32 34
42 39 39 39 43 41 44 42 42 42 40 40 39 39 38 37 36 37 35 35 35 34 35 36 36 35 34 36 37 37 40 41 39 37 36 35 34 34 33 30 29 32 32 32

GFSCGP_sfc_temp_060.txt.gz
Temp
63 59 55 60 65 67 67 63 63 69 70 65 66 69 74 79 75 74 75 74 74 73 76 74 71 71 70 67 66 60 59 60 60 58 59 59 60 61 60 62 66 70 75 74
59 53 62 65 67 64 63 60 62 68 68 65 67 68 74 78 76 77 77 75 74 74 73 71 70 70 68 69 67 62 59 60 59 63 61 62 64 63 62 63 65 70 73 74
55 58 63 62 61 59 61 59 61 61 65 67 64 63 69 76 76 76 75 78 78 76 73 71 69 69 69 66 63 68 65 60 60 61 63 62 61 58 60 61 65 68 74 74
57 64 59 60 59 62 56 65 63 61 59 55 64 53 67 71 73 76 78 75 76 76 76 74 71 70 69 69 68 69 67 64 62 62 61 61 58 60 61 65 66 71 71 72
56 56 57 56 59 65 59 66 61 62 59 59 59 56 64 70 67 73 78 80 76 78 76 74 72 72 72 71 68 66 68 65 61 62 62 60 59 61 64 64 66 69 66 69
59 64 63 63 64 64 66 61 60 61 59 48 57 58 60 67 70 73 77 80 79 78 77 76 74 72 72 72 70 66 65 65 61 61 62 61 61 60 60 60 60 61 65 67
56 57 63 64 60 64 62 57 48 45 45 45 60 56 60 70 74 75 76 79 79 77 77 75 73 71 72 70 69 68 63 63 64 61 62 63 66 65 59 58 61 64 66 66
46 43 56 63 60 57 56 58 51 38 42 51 58 51 62 73 76 77 78 79 80 78 77 76 75 72 72 70 70 69 67 64 62 62 63 64 67 68 62 62 63 63 65 68
46 49 61 62 63 63 56 51 62 51 51 48 55 60 68 73 74 77 78 79 79 81 78 77 76 74 72 71 69 68 69 70 67 65 65 64 67 68 69 68 65 65 68 66
54 46 58 60 64 64 61 65 49 52 40 39 51 52 58 65 70 73 74 76 78 79 79 77 77 74 74 72 71 69 71 71 71 69 69 69 69 70 71 71 70 70 72 72
55 52 51 58 55 55 56 54 57 58 53 44 43 52 67 68 70 71 75 77 78 78 78 78 78 77 76 75 73 70 70 71 71 70 70 70 70 70 71 71 72 72 72 72
56 51 47 53 59 64 63 58 58 48 47 51 50 53 70 69 72 72 75 78 80 79 79 79 78 77 75 74 73 72 71 72 72 71 70 69 69 70 69 69 70 71 71 72
54 50 41 46 55 57 55 58 58 59 57 49 44 52 70 70 71 75 76 78 80 79 79 79 78 77 76 75 74 73 72 72 73 72 70 69 68 68 69 69 69 70 69 70
53 49 48 42 49 54 49 54 55 55 48 49 51 54 62 65 67 71 73 76 78 79 78 79 78 78 77 76 75 74 73 72 73 72 70 69 69 69 69 69 69 69 69 68
51 41 47 49 50 51 51 51 53 52 54 48 54 55 61 65 64 66 70 72 74 76 79 79 78 80 79 77 76 76 75 73 73 72 71 70 69 69 69 69 69 69 68 69
50 44 46 44 49 49 47 52 54 54 55 56 57 56 66 68 69 66 67 70 69 70 75 79 81 81 79 80 78 76 75 74 73 71 71 72 71 70 69 69 68 68 68 68
45 45 43 39 46 46 41 49 53 55 57 57 51 59 65 65 66 66 67 68 67 68 69 72 75 77 78 79 79 78 77 76 73 71 71 72 71 70 69 69 69 68 67 68
43 42 44 39 39 31 50 58 58 55 57 60 59 61 62 63 66 68 68 66 66 66 67 69 70 72 76 79 79 78 80 78 74 73 72 72 71 70 70 69 68 68 68 67
49 44 39 36 38 46 51 54 52 52 54 58 58 60 62 65 65 67 68 66 65 67 68 69 71 72 72 74 76 77 77 78 76 74 73 73 71 70 70 68 68 68 68 67
48 47 41 37 34 31 49 55 59 59 47 60 60 60 60 62 54 64 65 65 65 67 68 66 67 69 70 71 73 73 75 75 74 74 75 74 73 70 70 69 67 67 66 62
35 39 35 36 36 42 54 57 60 43 45 57 59 60 60 58 61 64 65 64 65 65 64 63 64 63 61 63 65 69 73 72 72 72 72 72 71 70 69 64 57 50 43 40
38 37 35 39 34 32 55 55 47 50 56 55 56 58 57 60 61 61 62 61 60 60 61 61 59 56 52 54 60 62 56 56 59 56 52 50 50 49 48 46 43 42 40 36
39 46 42 45 45 53 56 53 54 54 52 52 52 54 54 56 55 56 57 54 54 55 56 56 53 47 46 47 48 47 46 47 46 44 42 42 42 42 43 42 41 40 38 35
50 52 47 46 53 54 53 54 54 54 51 52 52 52 52 51 52 52 51 48 48 44 47 49 46 40 38 41 42 42 45 44 42 40 38 37 37 36 37 38 38 36 34 33
51 51 49 49 54 54 50 49 51 53 52 51 51 49 47 47 48 49 48 45 45 40 40 40 38 35 34 36 36 40 42 41 38 36 35 34 34 32 31 31 32 32 33 34
54 50 45 45 48 48 49 47 48 49 48 47 46 45 46 43 42 40 38 40 38 36 36 36 35 33 32 33 33 34 37 40 36 35 34 34 34 33 32 30 29 31 31 31

GFSCGP_sfc_temp_063.txt.gz
Temp
66 59 57 61 62 63 66 68 67 72 78 72 71 72 77 82 82 80 80 81 82 81 83 82 78 77 76 74 69 64 62 61 60 60 61 60 59 59 60 62 67 71 71 73
55 55 65 67 65 64 64 64 65 71 75 69 70 71 77 80 81 82 82 82 82 82 82 79 77 76 75 74 68 62 61 60 59 61 62 64 61 59 61 61 63 70 72 75
48 60 65 64 62 61 64 62 64 64 72 71 68 66 72 79 82 83 83 84 85 83 81 79 76 75 75 74 70 68 62 60 60 60 61 62 61 60 58 59 60 64 67 75
55 62 60 59 58 62 58 68 67 66 64 57 71 55 69 75 77 79 81 82 83 84 84 82 77 76 75 74 73 72 68 62 62 62 62 61 63 60 64 61 61 62 63 72
53 59 58 56 59 64 60 68 66 65 62 62 62 59 66 75 73 77 80 83 84 85 84 82 80 78 78 76 72 72 68 66 64 64 62 62 62 64 65 64 63 64 64 67
55 64 63 62 64 65 68 65 64 64 61 50 59 59 62 70 73 77 80 83 85 84 84 84 83 81 79 77 74 72 68 67 65 62 62 62 61 64 61 62 62 64 66 67
50 52 61 66 59 63 64 59 48 47 48 46 63 60 62 73 77 78 79 82 84 85 84 83 81 79 79 76 73 72 70 66 65 62 62 63 63 63 63 63 62 62 64 66
44 40 54 64 60 57 60 59 50 39 43 52 63 54 65 77 80 80 82 82 85 83 83 83 82 79 79 76 75 74 70 70 65 62 62 62 64 65 66 64 64 63 65 68
48 50 63 64 63 62 59 54 63 53 54 50 58 63 72 75 77 79 80 82 82 84 84 83 83 81 79 77 75 74 73 72 69 64 62 62 64 64 65 67 65 63 67 70
56 46 60 61 64 63 59 67 52 55 40 39 52 55 60 67 71 76 77 78 80 84 86 84 84 81 80 80 79 75 75 74 72 70 66 64 64 67 66 67 66 66 67 71
58 53 52 60 56 55 55 55 57 58 54 44 43 53 70 68 72 73 77 79 81 82 83 84 84 83 81 81 79 76 75 75 74 72 69 66 66 69 67 68 70 70 70 71
57 53 46 48 62 66 62 57 58 48 44 53 50 52 72 68 71 75 76 80 82 83 84 85 84 84 81 80 79 77 76 76 76 75 73 70 70 70 68 70 71 72 71 72
53 50 41 45 52 61 58 60 59 59 56 45 43 52 72 72 70 73 75 79 80 82 83 83 84 83 82 80 79 78 77 76 77 77 75 73 72 72 72 72 72 73 73 73
51 49 48 42 50 58 52 57 59 57 47 50 50 55 63 68 67 70 71 75 78 80 82 83 83 83 83 82 81 80 78 77 77 77 75 74 72 72 73 73 73 73 74 73
52 39 44 53 55 56 58 56 57 53 54 48 53 56 63 68 68 67 70 73 75 77 77 80 82 84 85 83 82 82 80 79 77 77 76 74 74 74 73 73 73 73 72 73
54 40 39 44 52 53 51 55 59 58 59 58 59 58 70 71 72 70 70 70 71 71 73 75 76 80 82 84 84 82 81 80 79 76 76 77 75 74 73 73 72 71 71 71
48 46 39 33 47 47 41 51 54 56 61 60 53 61 65 66 68 68 68 67 67 68 69 71 73 75 76 79 81 82 84 82 79 77 76 76 76 74 73 73 72 71 70 71
45 46 45 38 41 28 52 61 62 58 61 63 63 64 65 67 69 72 71 66 66 66 67 69 70 72 74 76 78 79 83 83 80 78 77 77 76 75 74 72 71 71 70 70
52 46 41 36 39 48 52 57 56 55 55 62 61 63 65 67 68 68 69 68 66 66 68 68 68 70 70 71 73 74 77 80 82 80 78 78 77 75 75 73 71 71 71 70
52 49 43 41 34 33 51 60 63 62 48 62 62 61 62 64 56 60 67 68 67 68 68 66 67 66 59 57 61 66 70 74 78 79 82 81 79 77 74 73 71 71 71 69
40 41 37 38 38 46 59 61 62 44 46 59 60 61 61 59 64 66 67 66 67 67 65 64 64 56 48 47 51 63 66 64 67 69 72 76 78 76 75 73 72 68 59 46
40 38 37 40 37 34 60 59 49 53 58 58 59 57 56 59 62 62 64 62 61 61 60 60 58 52 44 43 43 45 46 50 52 54 51 50 50 52 53 52 48 44 41 37
39 47 44 46 46 56 59 56 58 59 56 56 55 57 57 57 57 59 59 57 57 56 56 54 52 46 42 39 39 37 41 43 43 42 40 40 40 40 40 40 39 38 38 36
48 57 48 50 52 55 55 59 59 59 56 57 57 56 55 53 56 55 55 54 53 53 52 49 47 41 38 38 36 36 38 40 39 36 35 35 33 33 34 35 35 35 33 33
49 55 51 51 53 55 55 56 55 57 57 55 56 54 52 51 52 49 49 46 44 45 44 44 42 38 34 35 34 34 35 38 36 35 34 33 32 31 30 30 31 30 31 32
56 52 48 46 52 53 48 54 54 54 52 51 51 50 51 48 46 44 40 37 35 34 35 35 36 35 31 32 31 32 32 33 33 32 32 31 31 32 30 30 29 31 31 31

GFSCGP_sfc_temp_066.txt.gz
Temp
60 51 49 55 59 62 61 58 57 65 75 73 70 70 74 79 80 77 78 79 80 79 82 80 77 75 74 70 69 64 62 61 60 60 59 58 57 58 59 60 61 63 67 68
52 43 55 63 62 60 59 53 55 65 74 71 70 69 74 78 79 81 80 79 79 81 81 79 75 73 72 69 65 62 61 60 61 61 62 62 60 59 60 60 62 64 66 67
47 51 57 55 60 57 57 55 57 59 68 72 68 64 68 75 79 82 83 83 83 81 79 77 74 72 71 69 66 64 61 60 60 62 60 60 59 59 58 59 60 65 66 67
46 53 53 49 53 60 53 63 62 62 60 54 69 51 66 72 74 78 80 79 80 82 82 78 75 72 71 71 66 65 62 60 61 61 61 59 58 57 60 60 61 64 65 67
42 49 46 44 48 60 55 63 60 61 59 58 59 55 62 71 70 74 78 80 80 81 82 79 75 75 74 72 68 65 63 60 61 61 62 61 60 60 62 61 61 61 61 64
51 58 51 49 55 58 61 55 56 59 57 46 55 56 57 64 70 76 80 81 82 81 82 82 79 77 75 73 69 67 64 62 62 61 62 61 61 61 60 60 59 60 62 63
49 49 55 60 52 58 58 48 40 40 42 41 58 55 59 69 76 77 78 80 82 81 80 80 78 76 74 71 68 67 65 63 63 61 61 62 62 62 61 60 60 61 61 62
38 37 51 58 54 49 52 48 42 32 37 45 60 51 60 75 79 80 81 82 83 81 80 80 80 77 75 71 70 69 67 65 63 61 61 62 63 63 63 62 63 62 62 64
42 41 59 58 59 57 50 42 55 48 49 43 52 61 71 75 75 77 78 79 79 80 80 79 81 77 76 73 70 68 68 67 65 63 62 61 62 62 63 63 63 63 64 64
51 40 55 60 59 58 56 60 44 49 34 34 50 54 56 67 69 75 76 77 79 81 81 80 80 77 77 75 73 70 70 69 65 64 62 62 62 64 64 64 63 63 63 64
54 49 48 57 54 50 52 50 50 50 48 40 39 47 66 66 71 71 74 76 78 79 80 81 80 79 78 76 75 71 71 70 68 64 63 62 62 63 64 63 64 64 63 64
52 50 43 48 60 58 57 51 52 41 42 48 45 48 69 67 68 71 74 76 77 79 80 81 80 79 77 76 76 73 72 72 71 69 65 63 63 63 63 63 64 65 64 64
48 46 39 43 49 55 51 55 54 52 46 38 39 47 68 69 68 69 68 72 75 76 79 80 80 80 78 77 76 75 73 72 73 72 68 65 63 63 63 64 64 65 65 65
49 44 42 38 44 46 48 53 53 52 40 42 42 51 56 62 64 66 66 70 73 75 75 75 76 79 80 78 77 76 74 73 73 74 71 67 65 64 64 66 65 65 67 66
46 37 43 44 48 54 52 51 53 43 46 41 47 49 58 59 64 67 69 69 70 71 71 72 72 73 75 76 77 78 77 75 74 73 72 70 69 68 67 66 66 66 67 67
49 37 42 40 50 51 50 52 55 53 55 55 55 52 60 67 69 67 67 66 65 66 67 69 70 71 72 73 73 75 77 76 75 73 72 73 71 70 68 68 68 67 67 67
43 43 38 34 40 42 41 50 50 52 52 57 43 49 55 61 66 66 63 63 62 63 64 65 65 67 67 66 67 67 72 75 75 74 73 73 72 71 69 69 68 67 66 66
43 41 38 33 34 28 51 61 60 57 57 60 58 58 62 64 67 66 65 62 62 63 63 63 64 63 60 58 57 58 63 68 71 75 75 74 73 71 71 69 68 67 66 65
50 44 34 32 33 40 48 55 55 54 51 51 51 63 65 66 65 60 66 65 64 63 62 62 61 57 53 50 52 57 62 63 69 63 67 75 73 72 71 69 67 67 66 65
50 49 38 36 30 30 49 60 65 62 43 58 59 60 60 63 49 51 63 63 62 62 60 60 58 52 47 46 49 52 52 51 49 51 57 58 57 73 71 69 67 66 66 65
39 39 34 34 32 41 57 60 63 42 42 57 58 57 55 53 55 59 61 60 60 59 57 56 54 46 43 43 45 44 44 42 45 47 49 50 49 53 53 59 56 60 46 40
39 35 34 37 34 31 60 57 48 50 56 57 56 55 55 57 57 58 58 56 56 55 53 52 49 45 43 41 40 40 38 41 42 40 40 40 40 42 46 45 43 42 40 37
36 45 41 43 42 54 58 54 57 57 54 55 54 55 55 55 54 56 54 52 51 49 48 48 46 41 40 39 38 35 37 40 38 36 35 34 35 35 37 37 38 37 36 34
49 55 47 48 54 54 54 57 57 57 55 56 55 54 52 51 51 50 47 43 42 40 40 41 39 35 34 35 35 34 36 38 37 34 33 32 31 31 32 33 32 32 33 31
40 50 46 48 47 49 51 53 55 54 54 54 54 51 49 49 46 45 40 37 36 35 36 35 33 31 31 32 31 33 34 36 34 33 32 30 30 30 29 30 30 29 30 30
48 44 43 38 44 43 46 51 54 50 48 49 48 48 47 46 43 40 35 33 32 30 31 31 30 30 30 30 30 31 33 33 32 31 30 29 29 29 29 28 28 31 31 31

GFSCGP_sfc_temp_069.txt.gz
Temp
54 45 41 48 54 55 54 53 51 55 62 58 59 63 64 72 66 64 65 67 66 68 71 70 69 67 64 61 60 62 61 61 60 59 58 58 58 60 60 61 62 62 63 65
47 41 51 56 54 51 53 51 50 58 63 61 61 63 63 68 66 66 67 65 67 68 69 69 66 65 64 60 60 61 60 60 60 60 60 60 59 60 61 61 61 62 63 65
46 48 55 52 47 46 49 51 52 53 59 61 60 57 59 69 69 70 70 72 72 69 67 67 65 64 61 60 59 60 60 60 60 61 60 59 58 58 58 58 59 61 63 66
46 52 51 48 46 50 42 57 58 56 53 42 59 44 55 64 67 69 69 65 70 68 69 68 66 64 61 60 59 60 60 60 61 61 60 58 57 55 58 59 60 63 62 63
44 46 45 44 48 52 46 55 53 51 46 46 50 44 51 61 60 65 69 67 67 69 69 67 66 65 65 62 59 58 59 60 61 60 60 59 59 60 60 60 61 62 61 61
47 52 48 49 52 52 54 50 51 50 45 34 48 46 46 55 63 66 70 72 70 68 70 69 68 67 65 61 59 58 58 59 60 60 60 59 58 58 56 56 58 59 58 59
46 47 51 51 44 51 51 42 34 34 33 32 53 48 52 61 68 70 68 69 70 69 69 67 66 66 65 59 58 57 57 58 59 59 60 59 58 58 57 57 57 58 58 60
38 34 48 52 47 46 46 42 35 28 29 38 53 43 53 67 72 74 72 70 68 67 70 68 67 67 65 62 61 59 57 57 60 59 60 61 62 60 60 59 59 60 60 61
39 40 53 54 57 54 42 39 49 35 40 33 42 53 63 67 69 70 71 72 66 64 66 69 69 68 66 63 62 62 59 58 59 59 60 61 62 62 60 61 61 62 62 63
46 37 52 55 56 56 47 51 35 34 29 28 41 46 49 56 64 69 66 65 67 66 65 69 70 69 67 65 64 63 62 61 60 59 61 61 62 62 62 62 62 62 62 64
46 43 43 52 48 46 46 39 39 40 40 33 32 40 56 58 61 64 66 66 65 67 67 67 71 70 68 67 65 64 63 62 61 60 62 61 61 62 62 62 62 63 62 62
47 41 36 43 51 53 51 47 42 34 35 41 36 39 61 61 62 63 63 67 68 68 68 67 69 69 67 66 65 64 64 64 62 62 60 62 62 62 61 62 62 62 62 63
46 39 32 38 46 50 46 49 50 45 42 36 33 40 61 62 62 64 62 64 66 66 67 67 68 66 67 68 66 66 65 65 64 62 60 60 60 61 61 62 62 63 63 63
47 40 37 31 37 44 40 45 49 44 35 37 38 44 51 55 54 61 61 64 64 64 65 65 63 62 63 64 64 66 66 67 66 64 61 59 59 60 61 62 63 63 64 63
42 33 39 40 44 46 46 41 47 42 41 37 44 45 52 52 53 58 60 61 62 62 62 61 62 60 58 58 58 60 63 65 66 66 64 62 60 61 61 61 62 63 62 63
44 34 37 37 43 44 43 47 50 51 47 43 46 46 52 57 56 57 59 59 58 58 60 61 58 58 56 55 55 57 58 60 63 64 65 66 64 62 61 61 61 62 62 62
39 37 33 29 38 37 34 44 49 49 48 47 40 48 55 54 54 56 55 57 56 56 57 55 54 51 50 48 51 51 57 58 60 57 58 63 64 64 63 62 62 61 62 62
38 37 36 29 33 26 45 53 55 51 52 51 50 52 52 53 56 58 57 55 54 54 54 52 49 47 46 46 47 51 52 52 52 51 53 54 52 54 61 64 63 63 63 62
43 37 28 26 29 37 44 51 50 46 41 52 50 54 53 57 56 53 56 55 52 51 52 49 46 45 44 43 46 47 46 47 47 47 48 49 48 48 51 56 63 64 63 63
44 40 32 28 27 26 44 54 59 53 36 50 54 52 51 54 41 46 53 54 51 51 50 45 44 43 41 41 44 44 43 43 42 43 44 44 44 44 44 46 46 60 62 62
33 32 30 28 27 34 49 55 58 37 37 51 53 52 51 47 49 52 52 50 49 47 46 46 42 38 38 39 41 39 40 39 40 41 40 39 39 40 39 42 43 44 46 42
31 29 29 31 27 26 54 54 42 45 50 50 50 51 49 51 50 47 46 42 42 40 41 41 38 36 36 36 36 35 35 39 38 37 35 35 35 36 36 35 37 38 38 35
31 36 31 35 33 46 50 48 51 51 48 48 47 49 49 47 43 41 39 38 37 37 36 38 35 34 33 34 34 32 34 37 36 34 32 32 33 33 33 31 32 33 34 33
39 45 37 42 45 47 48 51 52 51 49 48 48 47 46 42 40 37 36 34 34 34 33 34 33 31 30 32 33 33 35 36 34 31 30 30 30 30 32 32 31 30 30 29
37 39 41 42 43 43 46 48 47 48 49 47 46 44 43 40 36 34 32 31 31 31 32 31 30 30 29 31 31 32 33 35 33 32 31 30 29 29 29 29 29 29 29 29
37 37 35 34 40 38 39 44 48 45 43 43 42 38 38 37 32 31 28 29 29 28 29 29 29 28 29 30 30 30 31 33 32 30 30 30 29 28 27 26 26 30 31 31

GFSCGP_sfc_temp_072.txt.gz
Temp
50 42 37 43 47 49 48 46 45 50 59 54 53 55 60 65 67 64 62 60 65 66 69 65 63 62 60 59 59 60 60 60 59 59 59 59 59 59 60 61 62 61 64 66
43 39 47 51 51 49 47 44 43 52 60 56 51 52 59 64 64 66 64 62 62 64 63 63 61 60 59 58 59 59 59 60 60 60 60 60 59 60 61 61 61 62 63 65
40 45 52 50 48 46 46 44 45 47 56 55 51 48 54 62 65 65 64 66 64 65 63 63 61 60 59 58 58 59 59 60 60 60 59 57 58 58 58 59 59 60 61 63
44 48 49 46 44 47 41 52 51 49 48 38 51 34 50 59 61 64 64 62 62 66 66 65 63 59 57 58 59 59 59 59 60 60 59 57 57 56 59 59 60 60 60 61
41 43 42 43 45 49 44 52 47 48 42 40 45 39 48 58 57 60 63 62 60 66 66 64 64 61 60 60 59 58 58 58 59 60 59 58 57 59 59 59 59 60 59 60
44 49 47 46 51 52 52 46 46 47 43 32 44 44 44 51 58 62 65 67 63 66 66 66 66 62 59 58 60 57 57 57 58 60 59 59 57 58 57 57 57 58 60 59
41 42 46 50 44 49 46 39 33 33 32 30 49 45 48 58 63 64 64 67 65 67 66 63 61 60 57 57 58 59 57 56 57 58 59 59 59 59 58 58 58 58 58 59
33 31 43 49 46 41 43 39 33 26 27 33 48 39 49 63 69 69 69 67 63 65 65 63 62 62 58 57 58 59 59 59 58 59 59 60 60 60 57 56 58 59 60 61
34 37 48 50 52 50 42 36 45 35 36 32 40 47 59 63 65 67 67 65 60 64 63 63 63 64 59 57 57 57 58 59 58 58 59 59 59 58 57 57 57 58 61 62
42 34 47 50 53 52 47 49 34 35 27 27 39 43 45 54 59 62 60 59 59 60 63 64 65 64 62 60 58 57 57 58 58 60 59 60 60 61 60 58 57 58 59 60
42 40 39 48 43 43 41 38 39 39 38 31 30 36 53 51 57 57 58 60 60 60 61 64 65 65 63 61 60 57 57 57 58 61 60 60 60 61 61 60 58 59 59 60
43 38 31 40 51 53 48 42 39 34 33 37 33 35 50 51 56 59 59 60 60 60 62 63 62 62 61 60 60 59 59 58 58 59 59 59 60 61 61 61 61 61 60 61
43 35 28 35 42 48 44 47 44 42 40 35 32 36 51 51 55 57 59 58 59 59 59 58 57 59 59 60 61 60 59 58 59 59 58 58 59 60 60 61 62 62 62 62
46 38 34 29 35 41 37 43 44 40 34 35 36 42 45 48 50 53 56 57 58 57 56 55 54 54 54 55 56 57 59 61 60 59 58 58 58 59 59 61 62 62 62 62
41 32 35 39 41 42 43 43 42 39 41 36 42 42 49 49 49 51 56 57 56 55 53 52 51 50 50 51 53 56 57 58 60 60 59 58 58 59 59 59 60 61 61 62
41 32 34 33 41 42 39 44 44 41 42 41 43 43 51 51 52 51 55 54 52 52 52 50 48 47 46 48 49 52 52 53 54 54 56 58 59 59 58 59 59 59 60 60
37 34 30 27 35 36 32 41 45 43 47 45 38 46 49 49 51 52 50 51 50 49 48 46 45 43 43 44 47 46 48 50 49 49 51 50 51 52 57 59 59 58 58 59
35 34 32 27 30 24 42 50 51 49 49 48 46 48 50 47 50 51 51 48 47 45 43 42 41 41 41 43 44 46 46 46 46 46 47 47 47 47 49 51 53 59 59 58
41 34 26 25 25 34 43 48 46 45 41 47 47 50 48 48 48 45 48 48 45 43 41 40 40 39 39 39 43 44 42 42 41 41 42 43 43 44 45 45 46 47 49 59
40 37 29 28 23 23 39 50 54 52 35 47 51 47 46 49 37 39 45 44 43 42 41 38 38 37 36 37 41 40 39 38 37 37 38 40 40 41 39 41 41 43 45 47
29 29 27 26 24 31 45 53 56 35 36 50 52 51 50 44 44 42 42 40 40 39 38 39 37 34 34 36 38 36 37 35 36 36 35 35 36 37 37 37 39 39 37 36
30 27 25 27 24 23 50 51 41 43 46 48 48 46 42 42 41 39 38 37 36 36 37 37 35 33 34 35 35 34 34 36 35 34 32 32 33 35 35 34 35 35 35 33
29 34 30 32 32 42 46 46 49 48 44 44 45 46 43 39 37 36 34 33 33 33 34 35 33 32 32 33 33 32 33 35 33 32 31 31 31 32 32 31 31 32 32 31
39 42 35 37 41 42 44 47 46 46 43 44 45 43 41 36 35 33 32 32 31 32 31 32 32 30 29 31 31 32 35 35 33 31 30 30 29 29 30 31 31 30 29 29
35 37 37 37 39 39 41 42 44 44 43 41 41 39 36 34 32 31 30 30 30 29 29 30 29 28 28 29 29 30 33 33 31 31 30 29 28 27 28 28 28 29 29 30
35 33 33 32 35 37 37 40 43 39 39 39 35 32 33 32 29 29 27 28 27 26 26 24 25 25 26 27 27 27 30 31 29 28 27 26 26 25 25 25 25 30 30 30

GFSCGP_sfc_temp_075.txt.gz
Temp
48 40 36 40 43 46 45 43 40 43 52 50 49 50 54 57 56 56 61 64 58 62 69 61 60 59 58 59 59 59 58 57 59 59 59 58 58 59 60 62 63 62 61 61
41 37 45 48 47 45 44 41 41 47 53 53 47 48 55 58 57 61 63 65 61 59 58 58 58 58 58 59 59 59 58 58 60 60 60 60 59 59 60 61 61 63 61 61
38 43 49 47 44 43 43 41 41 43 50 53 46 46 51 58 59 62 64 66 63 61 59 58 57 57 58 57 57 58 57 57 59 61 59 58 58 59 58 59 60 61 63 62
41 47 46 44 43 44 37 48 48 45 43 36 47 33 46 52 55 59 61 59 59 61 63 61 59 56 58 58 59 59 60 58 58 59 59 58 58 57 59 60 60 60 62 63
40 42 41 40 43 47 41 48 45 45 41 40 41 35 43 52 53 58 61 62 60 62 63 61 60 58 58 60 60 61 60 61 59 57 59 58 57 58 58 59 59 59 59 60
43 46 45 44 48 48 51 44 43 43 42 30 39 39 37 46 55 60 63 63 62 60 63 64 63 60 58 61 60 59 58 58 58 57 57 57 58 57 55 57 58 58 58 57
39 40 44 48 41 45 47 39 31 29 29 29 44 40 44 53 59 62 64 66 64 60 62 61 59 57 58 59 59 58 57 57 58 57 56 55 56 57 57 57 58 57 58 58
31 30 40 46 43 40 41 39 32 25 26 30 46 37 46 60 65 63 64 64 64 61 64 62 60 58 57 59 59 59 57 57 59 59 58 56 56 59 59 58 58 58 59 60
32 34 44 46 48 46 39 34 44 34 35 29 36 45 55 59 59 59 57 60 59 57 63 61 60 58 57 59 59 59 58 56 59 59 59 56 56 57 58 56 58 59 60 61
40 32 44 46 49 47 44 48 33 35 27 25 35 41 40 45 48 54 55 54 55 57 59 60 60 58 58 58 60 60 60 56 59 59 60 59 57 57 55 54 54 56 58 59
42 38 37 44 39 38 40 38 38 39 36 29 28 35 47 44 48 50 53 54 54 56 58 60 60 58 57 57 59 59 59 57 59 58 60 59 56 57 59 56 55 55 55 56
43 37 30 36 46 49 44 41 39 33 31 34 33 35 50 48 50 52 52 54 53 55 58 59 58 57 57 55 57 57 57 58 59 57 59 59 56 59 59 59 57 56 56 56
45 35 28 33 39 45 40 43 42 40 38 33 30 35 50 50 51 53 53 52 52 51 51 52 53 53 54 55 56 56 56 57 59 59 59 58 55 56 57 59 60 59 58 57
45 36 32 27 33 40 35 41 43 40 33 34 35 40 43 46 47 50 52 51 49 49 49 48 47 49 51 53 54 54 55 56 57 57 58 58 55 56 56 57 59 60 61 60
39 32 33 36 38 39 39 39 42 37 37 34 39 41 47 46 47 49 51 52 49 46 46 46 45 45 47 49 50 51 52 53 54 57 56 55 56 56 56 56 57 58 58 60
40 31 32 31 38 38 36 40 42 43 42 40 39 39 50 51 51 49 49 48 46 44 43 43 43 44 44 45 46 47 48 49 51 50 50 51 52 55 57 57 57 57 58 59
37 33 29 25 32 32 29 37 40 43 45 44 37 45 49 48 48 47 46 45 43 42 41 40 40 40 41 43 44 43 45 47 46 46 47 47 48 48 49 52 54 56 57 59
35 33 30 25 29 20 39 48 48 45 47 48 48 49 49 44 43 44 45 43 41 40 39 38 38 38 38 41 43 42 42 41 41 41 42 43 44 45 46 47 47 47 48 50
39 33 26 23 23 32 38 45 43 41 41 47 47 46 43 42 42 38 42 42 39 38 38 37 37 37 38 40 40 39 38 38 37 37 38 39 40 41 41 41 41 43 44 43
37 36 29 26 21 19 36 46 52 50 36 48 48 44 43 46 36 35 39 40 39 38 38 36 36 36 36 37 39 37 35 35 33 34 35 37 38 37 37 38 38 39 39 36
28 28 26 24 23 28 42 47 50 32 36 47 49 46 46 41 40 36 38 37 38 38 37 37 35 33 34 36 37 35 33 31 32 34 34 34 35 35 35 36 36 36 35 34
31 27 22 25 25 22 44 44 38 42 44 44 45 43 37 37 37 37 36 36 36 34 35 35 33 32 33 34 36 33 31 32 33 32 32 32 32 33 34 33 34 34 34 32
23 32 30 31 30 39 41 42 44 45 42 41 40 39 38 36 35 33 32 32 32 32 32 33 32 31 32 32 33 32 32 32 31 30 30 30 31 32 32 31 30 30 31 31
36 39 34 34 37 37 39 40 41 43 41 41 41 39 37 34 33 32 32 31 30 31 30 32 31 29 28 30 30 32 34 32 30 28 28 29 29 29 30 31 31 29 29 28
34 34 35 36 37 38 37 38 36 36 39 38 37 37 35 33 31 31 30 29 28 27 28 28 28 27 26 28 28 29 32 32 29 29 28 27 27 27 27 27 27 27 28 29
34 31 29 31 37 37 34 35 35 33 32 34 33 31 32 30 28 29 26 27 25 24 25 25 26 26 26 26 25 25 27 30 27 26 25 24 24 23 23 24 24 29 29 30

GFSCGP_sfc_temp_078.txt.gz
Temp
46 40 36 38 42 43 42 39 37 39 49 46 47 46 50 52 52 53 55 55 56 60 68 64 59 58 57 57 58 59 59 59 59 58 58 58 58 59 60 62 63 62 63 64
41 36 43 46 45 43 41 37 37 44 49 48 44 45 52 53 53 56 58 58 58 58 59 57 57 57 57 59 60 59 59 59 59 60 59 60 59 59 60 61 61 60 60 60
38 43 48 45 43 40 39 37 38 39 46 47 44 43 48 54 55 56 58 60 61 61 57 55 56 57 57 60 60 59 59 59 58 60 59 58 58 59 58 59 60 60 60 59
41 48 46 43 41 42 34 44 44 42 39 32 42 30 42 48 53 55 58 58 59 58 60 58 56 56 57 60 61 59 57 59 61 61 59 57 57 56 58 59 60 61 60 59
40 42 41 39 42 45 40 46 43 42 37 35 37 32 38 47 47 52 57 59 60 57 60 58 58 58 58 60 58 57 57 58 59 60 60 54 56 57 58 58 59 59 60 60
43 46 45 44 46 47 48 43 41 39 36 29 37 34 35 44 50 54 59 61 62 58 60 60 58 57 60 61 58 58 60 60 59 58 60 54 56 57 55 56 57 58 58 59
39 40 44 47 40 44 42 38 28 27 28 28 41 35 40 52 56 57 57 57 60 61 57 58 55 55 59 58 60 61 59 59 59 57 58 57 54 55 54 57 57 57 57 57
31 31 39 45 42 37 37 37 28 23 25 28 43 33 43 54 55 57 56 55 55 58 59 59 57 56 57 59 60 59 58 58 58 57 57 55 54 54 55 56 57 58 58 58
31 33 42 44 46 45 40 35 40 33 34 30 35 41 50 51 50 53 52 53 52 53 59 59 59 57 57 59 59 59 58 58 58 58 58 56 54 55 58 57 57 58 58 59
39 32 42 44 46 44 43 46 33 34 25 25 32 35 37 44 46 49 49 48 50 54 57 59 57 56 59 60 60 59 59 58 59 59 59 58 57 55 56 54 55 58 58 58
41 38 36 42 38 36 39 37 37 37 35 27 26 31 47 45 47 48 50 50 50 53 57 56 54 55 60 60 59 58 59 57 59 58 59 58 57 56 54 55 54 54 57 58
42 37 31 35 44 46 45 38 37 32 30 33 32 32 48 48 50 51 48 49 50 50 53 54 55 57 58 58 57 57 57 59 59 58 58 58 57 57 54 56 55 55 54 57
41 34 29 32 37 43 38 40 40 39 37 30 29 33 49 48 49 50 48 48 48 48 48 50 52 54 55 56 57 57 57 58 58 58 58 58 57 57 55 55 56 56 55 55
45 36 32 27 31 37 33 39 41 37 32 33 33 38 44 45 45 48 47 46 46 46 46 46 46 48 49 51 52 53 53 56 58 59 59 57 57 57 54 55 55 55 55 55
41 33 33 34 36 36 36 35 37 36 37 33 37 39 45 47 47 47 48 46 43 42 42 43 44 44 46 47 48 50 50 51 53 56 55 52 55 57 56 56 55 55 57 56
39 30 32 31 35 35 33 37 37 38 39 39 39 40 50 50 50 48 46 45 41 40 40 40 40 42 43 44 44 45 46 46 48 48 48 50 50 51 51 53 55 57 57 58
36 32 30 26 32 32 28 34 37 38 42 42 36 43 49 48 48 46 43 42 40 39 38 38 38 38 40 41 41 40 41 44 44 44 44 45 46 46 47 49 49 48 48 49
33 32 30 25 29 17 35 44 43 40 43 45 46 48 46 42 41 43 44 40 38 37 37 36 37 37 39 40 40 39 39 39 39 39 40 41 42 42 43 43 43 43 45 41
37 32 25 22 23 30 35 41 39 38 39 47 46 43 41 40 40 36 39 39 36 35 35 35 36 37 37 38 38 38 36 35 35 35 37 38 39 39 40 39 39 40 39 37
35 34 28 26 21 17 33 43 46 44 32 46 47 42 40 43 35 33 36 37 35 36 35 34 35 35 36 37 37 34 33 32 32 33 34 36 37 37 36 37 37 37 37 35
28 28 25 24 22 28 39 41 45 28 32 42 46 44 43 39 38 34 34 35 37 36 35 35 34 32 33 36 36 32 31 30 32 33 34 34 35 34 35 35 36 35 34 33
28 26 23 26 23 20 41 40 33 39 41 39 39 41 35 34 33 32 32 32 34 32 33 34 32 31 32 34 34 31 29 31 32 32 32 31 32 33 34 32 32 33 33 32
24 30 27 29 29 36 39 38 42 43 40 38 35 35 35 33 31 30 29 30 31 31 31 33 31 30 30 31 33 30 30 30 30 30 30 30 30 31 31 31 30 30 30 30
35 37 33 34 37 37 38 38 37 37 36 38 39 36 34 30 30 29 30 30 29 29 29 30 29 27 27 29 29 31 31 31 29 28 28 29 28 28 29 29 29 29 28 27
32 33 32 34 37 36 36 36 35 34 34 32 32 32 31 31 30 29 27 26 26 26 27 27 27 26 25 26 26 27 30 30 28 28 27 25 26 26 26 26 26 26 27 28
32 30 28 28 32 34 33 34 34 31 30 30 29 28 29 30 27 26 24 24 25 24 25 24 25 24 24 24 24 24 27 29 26 23 22 21 21 21 22 23 23 28 28 28

GFSCGP_sfc_temp_081.txt.gz
Temp
52 47 42 46 47 49 47 44 43 47 53 50 51 52 57 61 62 63 64 67 68 70 75 76 73 68 67 67 65 63 63 62 61 60 60 60 60 62 63 63 65 64 64 64
46 41 49 50 48 46 45 42 42 48 52 51 50 50 56 59 60 63 65 67 69 71 73 72 69 66 66 65 64 62 62 62 60 62 63 62 63 62 63 65 64 64 62 63
42 47 49 47 46 43 44 41 42 42 49 51 49 47 53 59 62 64 65 67 69 69 70 71 65 64 66 65 63 62 62 62 61 63 65 62 61 61 60 60 60 59 61 62
45 51 48 45 44 46 39 48 46 44 42 37 50 36 49 55 57 61 64 66 68 70 70 71 66 64 65 66 66 63 62 62 62 66 65 60 60 59 61 60 62 60 60 59
43 44 43 43 45 48 43 49 46 45 42 40 42 38 46 53 53 58 63 65 68 70 69 68 66 66 66 67 65 62 61 62 62 66 66 61 60 62 61 60 60 60 59 60
47 50 48 48 49 50 50 46 45 44 41 31 41 40 43 49 54 59 63 66 66 67 67 67 67 66 65 66 62 60 59 60 61 64 64 61 64 61 58 59 59 58 59 60
42 44 48 50 45 48 46 40 33 30 30 33 45 39 45 53 53 55 56 59 61 62 65 64 63 63 63 62 59 59 60 59 60 60 61 61 64 62 60 60 60 59 58 58
36 34 42 48 47 43 42 42 35 25 30 34 44 38 46 53 56 57 57 57 58 59 61 64 64 63 64 62 60 62 64 62 59 59 60 60 64 65 63 64 63 62 62 61
35 36 45 47 48 49 40 36 44 33 37 31 41 47 51 55 54 55 55 55 53 56 61 63 65 63 64 62 62 64 62 61 59 59 60 59 62 64 63 62 63 61 61 61
44 36 45 45 50 48 45 47 34 35 27 27 38 40 41 45 48 50 50 50 50 53 58 62 63 61 62 63 62 60 61 60 60 60 59 59 60 62 63 61 60 60 60 62
46 42 39 45 42 40 40 37 38 37 35 31 30 38 48 46 46 46 47 48 48 49 54 58 60 62 61 62 59 59 59 59 59 61 60 59 59 59 60 61 63 62 61 60
46 41 35 39 47 49 46 41 41 33 31 35 33 37 50 48 48 48 46 46 48 48 48 53 58 59 58 58 58 58 58 59 60 62 61 60 59 59 58 61 61 60 62 63
42 38 32 35 40 43 39 40 40 40 37 32 31 39 51 50 48 49 45 45 44 46 46 48 48 53 56 57 57 58 59 60 61 61 60 59 59 58 58 61 62 60 60 63
42 37 35 33 35 40 36 40 43 38 31 32 34 41 48 49 48 48 44 44 43 42 43 44 44 45 47 49 51 52 53 58 59 60 59 59 59 59 59 61 62 62 63 61
39 31 36 38 39 39 38 39 40 38 39 33 40 41 47 49 50 48 45 43 41 40 39 40 40 41 43 44 46 48 49 51 55 53 52 51 52 57 58 59 61 62 61 61
39 31 34 33 38 38 36 40 40 40 41 41 42 41 52 53 54 48 44 42 39 38 38 38 39 39 39 40 42 44 44 46 47 46 46 48 48 49 50 51 50 52 53 52
37 35 33 30 36 36 33 38 40 41 44 43 37 45 53 48 49 46 43 41 37 35 36 36 36 37 38 38 39 38 40 43 42 43 43 44 45 45 46 47 47 46 44 44
35 37 34 30 32 23 39 47 46 42 45 48 48 48 48 42 40 41 42 39 37 35 35 35 36 37 37 39 39 38 39 38 38 38 39 41 42 42 43 43 42 41 40 38
40 37 31 27 28 35 39 42 40 39 41 46 45 44 42 40 39 34 37 37 35 34 33 35 36 37 38 38 38 38 38 37 37 35 37 39 40 40 40 39 38 38 37 36
38 39 35 29 24 22 37 42 46 46 36 42 43 44 40 41 35 31 35 35 33 33 33 33 33 36 36 37 38 36 35 34 33 34 35 37 38 38 37 37 36 36 36 34
31 32 30 29 27 32 38 43 46 34 33 41 39 44 46 38 35 32 32 31 32 34 35 35 34 32 32 35 36 33 33 31 33 35 35 35 36 35 36 36 37 36 35 34
32 29 28 30 26 24 40 43 35 37 42 38 36 36 33 31 30 30 30 30 32 32 33 34 32 31 33 35 33 30 29 32 33 33 32 33 33 34 35 35 35 35 35 33
30 33 32 34 35 38 38 37 38 41 39 38 35 34 32 30 28 28 28 29 30 31 31 31 30 29 30 31 33 29 30 32 32 31 31 31 32 32 33 33 32 32 33 32
36 37 34 36 38 37 38 38 37 36 33 35 35 34 31 28 28 28 28 28 28 29 28 30 29 28 27 29 31 31 32 33 32 30 30 31 30 31 32 32 32 31 30 30
32 35 31 34 37 35 34 35 34 33 32 31 31 31 30 29 27 27 26 26 27 27 28 29 28 27 26 28 28 30 32 32 30 29 28 29 29 28 28 28 29 29 29 30
33 30 30 29 31 32 30 32 32 30 30 30 29 27 27 27 25 26 25 26 26 26 27 27 27 26 25 26 26 27 28 28 27 26 26 26 26 26 27 26 24 27 28 28

GFSCGP_sfc_temp_084.txt.gz
Temp
60 54 50 53 54 56 55 51 48 55 60 56 56 59 65 71 72 71 72 74 77 78 84 87 88 86 84 82 80 77 71 73 69 67 67 66 67 66 65 67 66 67 65 64
53 49 59 59 56 52 52 50 51 56 59 56 57 57 65 68 69 71 72 73 76 78 82 85 86 84 80 80 78 75 71 70 71 73 72 69 67 67 70 71 73 72 69 68
51 54 57 55 53 49 50 48 50 50 55 58 56 56 62 67 70 71 73 75 77 77 79 82 84 83 79 78 77 72 70 72 71 74 70 71 69 66 65 68 70 67 65 64
53 59 52 51 50 52 46 55 51 50 48 46 57 44 59 63 65 68 71 73 75 77 80 83 84 84 79 78 77 72 71 74 70 72 70 69 70 64 70 65 65 67 65 63
49 49 50 48 50 54 49 54 51 51 48 48 50 47 58 63 60 65 70 73 75 78 80 82 84 86 83 79 76 72 69 71 70 68 73 71 70 69 72 64 63 62 60 61
53 57 53 54 55 56 55 50 50 51 48 37 49 49 57 59 57 61 66 69 71 74 75 78 82 84 81 79 75 67 66 67 68 68 73 70 69 69 68 62 60 60 60 60
51 50 56 55 51 54 53 46 40 37 34 40 51 48 55 58 60 61 62 65 68 71 73 74 76 77 76 74 68 63 64 64 65 72 73 69 69 69 66 62 59 59 59 58
43 39 50 55 52 50 49 48 41 31 37 44 51 44 54 60 64 65 65 65 66 66 69 73 75 74 74 73 63 62 63 63 64 72 70 66 70 69 66 65 65 63 61 60
42 42 51 52 54 55 46 42 51 39 44 38 48 54 58 60 61 60 60 60 60 60 62 69 74 73 72 71 61 62 63 64 63 69 65 64 69 67 65 65 68 68 68 65
48 40 50 51 53 53 50 54 37 41 31 33 46 48 49 51 52 55 57 57 55 54 54 60 70 70 72 68 63 64 69 64 64 65 64 63 67 69 68 68 66 67 67 64
51 48 44 49 45 46 44 41 42 41 39 36 38 46 54 49 49 53 57 53 51 49 49 52 65 68 68 66 65 64 67 63 63 66 65 64 65 66 66 66 67 67 67 65
48 46 41 44 51 56 52 47 46 39 35 39 37 44 58 55 55 57 50 51 49 47 47 48 51 62 62 62 61 61 63 62 63 65 65 65 67 65 63 64 68 69 68 67
36 43 37 39 45 50 46 46 43 42 42 37 34 43 58 58 58 54 51 51 46 44 44 45 46 48 54 58 59 59 60 61 62 62 62 63 63 62 62 62 66 66 65 66
37 38 42 37 40 47 41 45 48 44 37 39 42 47 55 58 58 54 50 49 46 42 41 42 42 43 45 48 50 54 58 60 61 62 62 61 60 61 61 61 64 62 62 62
37 35 40 44 45 46 45 45 46 44 45 39 46 48 53 57 56 55 50 47 42 39 38 38 39 40 41 43 45 47 49 52 55 54 53 52 53 55 58 60 62 65 65 65
35 33 34 33 44 44 41 46 47 47 47 48 49 49 59 60 59 49 48 44 39 37 36 37 37 38 38 39 40 42 44 46 48 48 47 49 49 49 49 50 50 50 50 48
35 38 34 28 41 41 37 43 45 46 49 49 43 51 58 55 48 45 43 41 38 36 35 35 36 35 36 36 38 37 40 43 43 43 44 45 46 45 45 46 44 42 42 43
34 37 42 35 37 27 43 52 51 48 49 47 48 49 46 43 39 39 40 37 36 35 34 34 35 34 35 36 37 38 39 39 39 40 41 42 43 42 43 42 41 39 39 37
43 40 37 33 34 40 43 45 44 43 44 47 47 47 45 40 37 33 35 35 34 33 32 33 34 34 36 36 36 36 36 36 38 36 37 39 40 40 40 38 38 38 37 35
45 44 39 35 25 26 41 48 52 51 39 49 47 44 43 41 36 29 33 33 33 32 32 32 33 34 36 37 38 36 35 35 34 34 35 40 37 38 38 38 37 37 37 35
37 39 35 35 32 39 44 49 53 36 35 45 41 39 41 39 33 31 32 31 32 32 32 33 32 32 32 37 37 35 34 33 36 36 37 39 39 38 39 39 40 39 38 37
37 36 35 37 32 28 45 48 39 39 43 40 37 35 31 30 30 30 31 31 31 32 35 36 35 34 37 37 35 33 33 35 35 36 36 36 37 38 39 39 39 40 39 37
33 36 37 41 37 39 40 39 41 40 37 37 37 34 32 30 29 29 29 29 30 31 32 34 34 34 35 36 37 33 32 34 35 35 35 34 36 38 39 38 38 38 39 37
40 42 35 40 35 35 36 38 38 37 34 35 35 35 32 29 29 28 29 29 29 31 32 33 32 32 31 33 34 35 36 37 35 35 33 33 33 34 36 35 35 35 35 34
38 40 36 39 35 34 35 35 37 35 35 33 32 31 30 29 28 28 28 29 31 32 32 33 31 30 30 31 31 33 36 37 35 34 33 32 32 30 29 28 30 29 29 30
36 31 33 31 33 34 32 34 36 32 31 32 31 28 29 29 27 28 26 27 28 29 31 31 31 30 29 29 29 29 32 33 32 31 31 32 32 31 31 29 26 27 28 28

GFSCGP_sfc_temp_087.txt.gz
Temp
63 57 54 57 59 60 58 57 57 62 68 62 61 62 66 70 72 73 75 77 79 80 87 89 90 91 92 91 89 86 79 78 79 74 71 73 68 71 69 69 68 68 68 68
60 52 62 64 62 57 55 53 54 61 65 63 61 61 67 69 70 74 75 76 78 80 84 86 88 90 88 87 86 85 80 79 76 75 77 76 74 74 74 73 69 68 65 65
55 60 64 61 59 55 54 52 53 55 60 63 61 59 63 71 75 75 77 79 79 80 81 84 86 88 86 85 84 84 81 80 76 77 79 77 75 73 70 68 70 73 71 71
59 64 60 56 55 58 50 61 57 54 51 47 64 47 61 68 70 72 74 75 77 79 82 84 85 86 86 84 84 84 82 80 78 79 78 74 72 70 72 73 75 73 72 71
54 57 55 54 55 59 53 61 55 55 52 51 52 51 58 68 64 67 70 73 76 80 82 82 84 87 90 86 83 82 80 79 78 78 77 75 74 76 76 74 69 69 68 67
58 66 60 58 60 59 61 55 54 53 52 42 50 51 55 62 61 62 67 69 72 76 79 82 85 86 89 88 83 80 77 78 75 77 76 75 74 74 72 69 66 65 65 63
55 56 62 61 54 59 56 49 39 38 37 37 56 52 57 62 64 63 63 67 69 69 70 75 80 83 85 85 81 77 73 73 73 75 76 75 75 73 72 69 67 62 61 60
48 44 58 62 55 52 51 50 40 32 36 41 53 45 55 66 63 66 68 68 69 68 67 68 74 80 83 84 80 71 68 68 69 74 77 75 74 74 73 70 65 63 62 62
44 46 58 58 61 57 52 45 56 44 47 41 48 57 63 65 61 64 66 66 65 65 63 62 65 79 80 80 67 65 65 66 68 76 76 73 73 71 71 70 68 65 66 64
48 42 55 57 59 59 56 56 41 43 32 33 46 51 51 51 56 62 63 62 62 63 59 55 61 65 77 70 66 63 65 66 69 76 74 71 71 70 71 71 69 67 67 65
48 45 48 56 50 48 49 45 46 47 45 37 37 44 56 55 59 60 61 61 60 58 55 49 51 53 66 67 65 62 64 65 67 73 70 69 68 68 69 67 67 69 69 69
41 37 40 46 57 58 52 49 49 39 41 46 42 45 60 61 61 61 60 60 58 56 52 46 46 48 60 63 63 63 63 65 66 70 67 67 67 67 66 66 68 69 69 68
39 36 34 43 47 54 49 50 50 48 46 39 37 43 56 64 64 64 60 59 57 53 49 44 43 43 45 52 61 61 62 63 64 66 65 64 63 63 64 65 65 66 65 66
37 35 36 37 42 47 46 50 50 47 38 42 44 50 57 60 61 63 59 57 55 50 45 41 40 40 41 44 47 49 58 62 62 63 63 62 62 63 63 64 64 66 66 64
36 30 36 45 46 46 45 46 48 45 47 42 49 50 57 60 60 59 57 53 50 45 42 38 37 37 38 40 42 44 46 51 56 54 53 53 54 59 60 58 55 61 59 60
38 32 31 39 49 49 45 50 50 50 50 50 52 52 56 56 60 53 49 47 44 41 38 37 36 36 36 37 38 40 42 44 48 48 48 49 49 50 49 48 48 47 46 46
32 32 32 33 41 44 38 47 49 50 53 51 42 48 52 43 38 37 40 39 36 35 35 35 34 34 35 35 37 36 39 41 43 44 44 44 45 44 44 43 42 41 40 41
34 31 32 33 37 26 43 55 54 51 50 51 50 52 44 38 35 34 34 34 33 32 34 34 34 34 34 35 36 36 38 38 38 39 41 42 41 41 41 40 38 37 37 36
41 34 35 33 28 39 46 48 48 46 42 48 47 49 46 40 39 32 34 33 32 32 32 33 33 33 33 35 34 34 34 35 36 35 37 39 39 38 37 36 36 36 35 35
45 44 37 39 31 28 38 51 55 54 39 47 47 44 45 44 35 30 33 34 32 32 32 32 32 33 33 33 34 33 32 32 32 32 34 36 37 37 35 34 35 36 36 35
38 40 36 37 35 41 47 52 55 37 34 43 44 39 34 31 31 31 32 32 32 32 32 34 32 31 32 33 34 32 32 32 32 33 34 36 37 36 35 36 38 38 38 37
39 37 37 40 35 30 47 50 40 39 44 41 39 36 31 30 30 31 31 32 33 32 33 34 33 32 32 32 32 32 32 34 35 34 36 36 37 39 38 39 39 39 38 37
35 39 37 38 33 41 43 40 42 41 35 37 36 36 35 31 30 30 30 31 32 32 32 35 34 33 34 34 34 30 31 35 36 36 36 36 35 36 37 37 37 38 39 37
43 48 41 41 36 37 40 43 41 38 35 37 38 37 34 30 30 30 30 31 32 32 32 33 32 30 31 34 35 35 35 35 33 32 32 32 32 33 34 33 31 30 33 33
39 45 40 34 35 39 40 39 38 37 36 35 34 33 32 31 30 31 31 31 32 34 35 34 33 32 31 32 32 35 39 39 35 35 34 32 30 29 27 27 29 29 28 29
37 32 32 30 36 37 34 37 37 33 32 35 33 30 31 31 28 29 28 29 30 29 30 31 31 31 30 30 30 30 33 35 33 32 33 33 33 32 31 28 25 28 28 28

GFSCGP_sfc_temp_090.txt.gz
Temp
62 54 50 56 59 59 58 55 54 59 64 60 60 61 65 70 71 69 70 70 73 76 81 84 83 83 84 84 84 78 76 75 75 74 72 71 68 69 66 68 68 68 69 67
58 50 59 63 63 60 57 53 51 57 61 60 59 59 66 70 70 71 71 72 73 76 79 81 82 80 78 80 80 78 76 75 74 75 72 72 70 69 68 67 67 67 68 66
53 59 65 62 58 56 56 52 52 52 57 60 58 54 59 68 73 74 74 74 75 75 77 79 80 78 77 78 79 79 77 75 75 74 73 72 70 69 67 66 67 66 66 66
58 64 61 59 55 58 50 60 58 55 52 43 58 42 56 64 67 72 72 73 74 76 79 79 80 79 78 77 77 81 78 75 74 73 73 70 67 66 67 67 68 67 67 65
53 57 56 55 57 60 53 60 57 55 51 49 49 46 54 63 63 68 69 71 70 70 73 76 77 79 80 79 77 78 78 77 73 72 73 71 68 68 68 68 67 67 66 67
57 66 62 59 62 61 62 56 55 54 49 37 46 47 49 56 57 63 65 66 67 69 70 71 74 79 81 79 78 76 76 76 74 73 73 70 68 68 68 66 64 63 62 62
55 56 62 63 54 59 57 49 37 35 35 35 50 46 52 58 63 62 62 65 66 68 67 66 68 69 68 77 76 76 76 74 74 73 72 70 70 69 67 66 64 62 60 59
45 43 58 62 56 51 52 50 38 28 32 38 47 37 51 62 64 66 67 66 66 65 64 63 65 66 61 74 76 75 74 73 71 72 71 72 71 69 68 67 65 62 62 60
41 44 58 61 62 59 51 40 53 41 42 37 44 44 51 58 61 64 63 63 61 62 61 58 60 60 58 70 74 72 70 71 69 71 71 70 69 68 67 66 65 64 63 63
46 36 53 56 54 60 55 58 40 41 28 30 41 46 49 42 55 61 58 58 58 59 57 53 55 54 60 67 66 65 68 68 67 71 70 69 68 67 67 66 63 64 64 63
47 41 43 52 43 47 50 47 46 43 41 32 32 38 47 46 50 57 58 58 56 54 52 49 49 49 51 59 65 65 64 65 65 68 68 67 68 67 66 65 66 65 63 63
42 37 33 42 54 52 45 51 48 33 36 42 39 39 47 48 59 61 59 57 54 53 51 47 45 45 46 47 51 63 62 62 64 63 66 65 64 65 65 64 65 65 64 64
43 36 29 39 48 46 43 47 47 47 43 35 31 38 52 56 62 60 56 56 53 50 48 44 42 41 42 43 45 47 60 61 62 61 62 61 62 62 62 62 63 64 64 63
40 36 33 28 36 40 33 42 49 43 33 37 37 40 42 52 53 55 53 52 49 46 44 42 39 38 39 40 42 43 47 59 60 60 60 61 61 60 60 61 62 61 63 62
35 29 37 41 42 41 41 38 47 44 43 34 41 42 43 45 45 47 50 49 45 42 40 39 36 36 37 38 39 40 42 48 53 53 52 52 52 54 54 52 54 54 53 51
41 29 33 32 42 43 36 43 41 40 40 43 48 43 48 45 42 41 41 40 37 36 36 36 35 35 35 36 36 38 39 42 46 47 47 47 48 47 46 45 45 45 44 44
36 32 31 27 37 38 31 44 46 49 48 47 40 42 49 42 36 33 35 35 33 33 32 33 33 33 34 34 35 35 37 40 41 42 43 43 43 42 41 41 40 40 39 39
36 32 31 27 29 25 44 56 54 45 45 48 48 47 45 38 34 34 35 33 32 31 32 32 32 33 34 34 34 36 36 36 36 38 39 40 40 38 38 38 37 36 36 36
43 34 28 27 27 39 43 49 48 45 36 45 44 45 45 40 36 31 34 33 31 31 31 31 32 33 33 33 33 34 34 34 34 33 34 37 38 36 36 35 35 35 35 34
44 37 30 31 28 25 34 48 55 54 33 42 43 40 38 41 33 27 32 33 32 32 32 31 32 32 32 32 33 33 32 32 32 32 32 34 36 36 34 34 34 35 34 33
34 33 30 30 32 32 40 48 53 36 31 40 40 36 32 28 29 30 32 31 32 32 32 33 32 31 31 32 33 32 31 31 32 32 32 33 34 34 34 35 35 35 34 33
35 34 34 37 34 26 43 45 36 35 37 38 37 35 31 30 30 31 31 32 32 32 33 33 32 31 32 32 32 31 31 32 33 32 32 32 32 33 34 33 34 34 33 32
31 37 33 33 31 38 42 39 40 39 36 36 36 35 34 31 30 30 30 31 31 32 32 33 32 32 32 32 33 30 31 32 31 30 30 30 31 31 31 29 30 32 33 32
40 46 37 36 34 37 39 39 39 38 35 37 37 34 33 30 31 31 31 32 32 32 31 32 30 29 29 31 32 32 32 32 31 29 28 28 27 27 28 28 27 27 29 28
35 41 38 34 36 36 36 36 37 36 36 34 34 33 31 31 30 30 30 30 30 31 31 31 29 28 28 30 30 32 35 36 32 31 30 28 27 25 25 25 25 25 26 28
34 30 29 28 33 34 32 35 36 33 33 34 32 30 30 30 28 28 27 28 28 28 29 28 28 27 27 29 29 29 32 33 32 31 31 31 30 28 26 24 23 28 28 28

GFSCGP_sfc_temp_096.txt.gz
Temp
50 41 37 41 43 46 45 43 41 46 51 49 48 49 53 53 53 53 57 59 60 64 69 67 68 68 68 69 66 69 69 69 68 66 65 64 64 64 63 64 64 63 64 64
44 38 48 51 49 47 45 42 41 48 53 50 48 48 55 56 54 59 60 61 63 66 69 71 67 67 67 69 70 70 69 68 68 68 69 66 66 64 64 63 64 64 64 64
41 48 55 51 48 46 46 42 43 44 48 47 45 45 50 57 58 60 62 63 66 65 67 71 72 67 67 66 69 70 70 69 69 70 67 64 61 60 60 62 64 65 65 64
45 53 51 49 47 49 41 51 50 48 41 36 46 33 47 53 54 58 60 59 54 55 57 61 61 60 57 58 66 73 70 70 71 69 66 63 64 62 61 62 60 64 65 64
43 46 46 44 46 51 46 52 49 47 40 37 42 33 44 50 50 54 57 55 55 55 57 57 58 59 60 59 60 69 70 70 70 67 67 64 63 61 61 60 60 60 63 64
46 52 50 48 53 52 53 48 45 42 39 31 41 35 39 42 45 46 52 54 55 53 53 53 55 55 54 55 57 64 69 69 68 68 66 65 62 60 60 60 59 59 59 61
43 44 49 53 46 49 47 39 28 25 23 28 42 37 41 48 47 47 47 52 52 50 49 49 48 48 51 51 53 58 66 66 67 67 65 64 62 61 60 60 59 59 61 61
31 31 43 50 45 41 42 44 32 23 23 28 40 31 38 48 51 51 50 50 50 47 47 46 48 48 48 50 52 56 64 66 64 64 64 63 63 63 62 61 60 60 61 61
31 33 46 50 49 47 42 35 43 35 36 30 33 40 45 48 48 48 47 47 45 44 44 44 46 46 46 47 49 53 62 63 64 64 62 62 63 62 60 59 60 58 57 57
37 29 42 45 48 49 46 47 32 30 24 23 31 34 34 40 41 45 45 43 43 43 42 42 44 44 45 46 47 50 56 61 61 61 62 63 61 62 62 60 58 58 57 57
36 33 34 40 37 35 37 35 37 37 34 26 25 30 41 42 43 43 44 43 41 40 39 40 41 42 43 44 45 46 48 55 59 59 61 61 61 62 62 60 58 58 58 59
37 31 26 31 41 44 40 37 36 29 29 32 28 31 44 42 44 44 42 42 41 39 38 37 39 40 40 41 41 43 45 49 55 59 60 60 60 61 60 59 59 58 58 60
36 28 22 28 34 40 36 38 37 34 33 30 26 31 42 42 38 38 39 38 38 38 37 36 35 36 37 39 40 41 42 45 50 58 59 58 60 60 59 59 59 60 60 59
39 30 28 22 27 32 29 34 37 34 26 30 33 35 38 37 38 39 39 38 37 36 35 35 34 35 36 37 38 39 40 44 48 58 58 58 57 57 57 56 56 56 59 58
32 24 28 31 33 33 32 32 34 33 35 29 33 33 33 36 36 37 38 37 35 33 33 33 33 33 34 35 36 38 39 42 44 46 50 51 52 52 51 50 49 49 49 49
33 20 27 27 33 34 31 35 36 37 37 36 37 33 37 38 38 35 34 34 32 31 32 32 32 33 33 33 34 36 37 39 41 41 41 45 45 45 44 44 43 43 42 42
27 23 22 19 30 30 23 32 37 35 35 36 31 34 37 33 31 30 31 31 29 30 30 30 30 31 32 32 34 33 35 38 38 38 39 40 40 39 39 40 39 38 38 38
28 22 23 21 27 17 32 43 41 34 33 34 35 35 35 31 30 30 31 30 28 28 29 30 30 31 32 32 33 34 35 35 35 34 35 36 36 35 35 35 34 35 35 35
35 27 22 21 22 28 30 33 32 33 29 34 34 34 33 32 32 29 32 31 29 29 29 30 31 31 32 32 32 33 32 33 33 33 32 33 35 33 33 32 32 33 33 33
35 35 26 24 21 19 28 32 39 39 26 34 33 30 34 33 28 24 30 31 30 30 30 30 31 31 30 31 31 30 29 29 30 31 31 33 34 33 32 31 31 31 31 31
27 28 23 23 23 28 31 35 41 28 26 32 31 30 29 27 28 29 31 30 30 30 30 30 30 30 30 30 30 28 28 27 28 30 30 30 31 32 32 32 32 31 30 30
29 26 26 26 24 21 34 36 30 32 33 33 31 30 28 26 26 26 28 28 29 28 28 29 28 27 30 30 29 27 26 28 28 28 28 27 28 29 30 31 31 30 29 28
26 29 27 28 25 31 33 32 35 36 33 31 31 30 29 27 25 26 27 28 28 26 27 28 27 27 28 30 30 27 27 28 27 26 26 26 26 26 27 27 28 27 28 27
31 35 30 30 30 31 32 33 33 34 32 32 32 30 30 26 26 26 26 27 27 26 26 27 27 26 26 29 30 31 31 29 27 25 24 25 25 25 25 26 26 25 24 24
29 33 31 28 31 31 32 33 32 31 32 31 30 28 26 26 25 25 25 25 26 26 26 26 25 25 25 27 28 29 31 31 29 28 26 24 24 24 24 25 25 25 25 25
30 28 27 24 30 30 29 31 33 30 29 29 28 26 25 25 24 24 24 24 25 24 25 24 25 24 24 25 25 26 28 30 29 28 27 25 24 23 23 23 23 29 29 29

GFSCGP_sfc_temp_099.txt.gz
Temp
47 40 36 40 41 43 41 39 37 40 48 43 46 47 52 56 48 49 51 53 56 58 65 66 66 66 64 62 61 67 68 68 68 67 66 65 64 66 65 66 66 66 65 64
41 36 45 48 46 43 41 38 37 43 48 45 44 44 52 52 51 53 56 56 57 60 63 65 65 63 62 66 62 64 67 67 68 68 68 66 67 66 66 65 64 65 64 64
38 44 50 47 44 42 41 38 39 40 46 45 42 43 47 52 54 57 58 57 57 53 53 55 57 56 54 56 59 63 67 67 68 68 68 62 62 62 62 62 63 63 64 64
42 49 48 44 43 45 37 47 46 44 39 33 44 32 46 49 48 54 57 53 49 50 52 53 53 52 52 54 56 58 67 67 68 69 67 64 64 63 64 65 65 62 63 63
42 44 44 42 44 48 43 50 46 44 37 35 40 31 41 50 48 48 46 50 49 50 50 49 50 51 52 52 54 56 65 69 69 68 68 65 64 65 63 64 60 62 62 63
45 50 48 47 50 49 50 45 43 39 35 28 39 34 38 42 42 43 48 48 48 48 48 48 51 51 52 53 51 53 60 67 69 68 67 65 64 61 60 60 60 60 61 62
40 43 46 49 42 46 42 36 26 24 23 28 38 33 36 41 45 45 45 45 46 46 44 45 46 46 48 48 50 51 55 65 67 67 66 64 63 61 60 60 60 59 58 58
30 30 40 47 42 38 38 37 27 23 23 25 38 28 36 45 46 49 48 47 45 43 44 44 45 46 45 46 48 48 51 63 65 65 64 63 61 61 61 60 60 60 60 60
30 31 44 45 45 42 38 32 39 32 31 28 31 36 41 45 44 47 46 45 42 40 41 41 42 44 44 44 45 46 50 62 63 64 61 60 60 60 60 60 60 60 60 62
35 28 39 42 45 44 40 42 28 31 22 23 29 30 32 38 42 45 43 41 40 40 39 39 40 41 42 43 44 46 48 52 61 61 62 61 61 61 60 60 59 58 58 58
35 32 32 38 34 32 33 32 34 33 31 25 24 27 42 39 42 44 40 39 38 38 38 37 38 40 40 41 43 45 45 48 51 59 60 60 59 59 59 59 58 58 57 57
35 31 25 29 39 41 36 32 33 18 23 28 27 28 43 40 39 39 36 36 39 38 37 37 37 37 38 38 40 42 43 45 49 53 59 59 59 59 59 59 59 58 58 57
35 27 22 27 32 36 32 35 35 33 32 25 25 29 42 41 38 37 35 37 37 37 36 35 35 35 35 37 38 39 42 43 46 51 58 58 59 59 58 59 59 59 58 56
39 30 27 22 27 29 26 31 34 30 19 24 27 31 38 37 35 36 34 36 35 35 35 34 33 33 35 36 36 38 39 42 43 46 56 58 58 58 58 59 59 59 57 58
31 24 28 30 31 31 29 29 31 29 30 23 30 33 33 34 33 33 35 35 33 32 32 32 31 32 33 33 35 36 37 40 41 42 43 46 51 52 53 51 51 51 51 51
31 20 26 26 31 31 28 31 32 33 33 33 35 34 35 34 33 33 32 31 30 30 30 31 31 32 32 32 33 35 35 37 39 38 37 40 43 45 43 43 43 44 43 42
26 23 21 17 29 28 22 29 32 34 34 36 31 32 34 31 30 28 29 30 28 29 29 30 30 31 31 32 33 32 34 36 36 35 37 36 36 38 38 38 38 37 37 38
27 22 21 18 23 14 30 34 37 33 32 34 33 34 33 30 30 30 30 29 28 28 29 29 30 30 31 31 32 33 33 33 33 32 33 34 34 33 34 34 34 34 35 34
33 27 15 14 17 27 30 31 30 30 27 31 32 33 32 31 31 28 31 30 28 28 28 29 30 30 30 30 31 31 30 31 30 30 31 32 32 32 32 31 31 32 32 32
33 32 19 19 18 17 26 31 35 35 24 31 32 30 32 31 28 24 29 30 29 29 28 28 29 30 29 29 30 28 27 28 27 28 28 31 32 32 31 31 30 31 31 30
25 24 22 22 19 26 29 31 34 26 24 30 30 29 30 27 27 28 28 28 28 28 29 29 29 28 28 29 29 26 25 25 27 28 28 28 29 30 31 30 30 30 30 30
27 25 23 23 21 20 32 32 28 30 31 30 30 28 26 26 26 26 26 26 27 26 27 28 28 27 29 29 27 24 24 26 27 27 27 26 27 28 28 29 29 28 28 27
24 27 26 26 24 30 32 30 33 34 32 30 29 28 27 24 24 25 25 25 26 26 26 27 27 27 28 29 30 26 26 26 26 25 25 26 26 26 27 26 26 26 26 26
29 32 28 29 29 30 31 32 32 32 31 31 31 29 27 24 23 24 25 24 25 25 25 26 26 25 25 27 28 30 28 28 25 24 24 24 25 25 26 26 26 25 24 24
28 30 30 27 30 30 31 31 31 30 30 29 28 26 25 25 24 24 23 24 24 24 25 25 24 24 23 25 25 26 28 30 28 26 25 24 24 24 25 26 25 25 26 26
29 27 26 22 29 29 28 30 31 28 27 27 25 23 25 24 23 24 23 23 22 21 23 22 23 23 22 23 23 24 27 28 27 26 25 23 23 23 23 24 24 30 30 31

GFSCGP_sfc_temp_102.txt.gz
Temp
45 38 35 40 40 41 39 36 34 37 45 40 42 44 46 48 48 48 50 50 52 54 59 58 57 57 58 58 58 60 63 67 67 68 66 66 65 66 66 66 66 65 65 65
40 35 43 45 43 41 40 36 35 40 45 42 40 42 48 48 49 50 51 51 51 50 51 55 55 54 53 52 53 56 60 66 67 68 71 68 68 67 67 66 65 65 65 65
36 43 48 44 41 39 38 35 36 37 42 41 39 39 42 49 49 52 51 50 49 48 48 50 52 51 50 50 50 53 54 62 66 68 68 63 64 63 64 65 65 65 65 65
39 46 45 42 41 41 34 43 43 40 35 28 39 29 41 44 46 48 48 46 45 46 48 48 49 49 49 51 51 52 53 54 65 67 67 67 65 63 65 66 66 66 65 65
40 42 42 40 43 45 39 46 43 41 35 31 34 31 36 46 43 42 43 45 44 44 44 45 46 48 49 50 52 52 51 55 60 66 67 66 64 66 65 66 64 64 64 64
43 47 46 44 47 46 48 42 41 37 35 26 35 33 35 37 39 41 44 44 44 43 43 44 46 47 47 48 48 50 51 53 57 66 66 65 65 64 62 63 63 62 63 62
39 41 44 47 42 46 42 36 28 24 23 26 36 31 39 39 42 44 43 42 41 41 40 41 41 42 44 45 46 48 49 49 53 65 66 66 64 63 62 63 63 62 62 61
32 30 40 46 42 38 37 36 28 22 23 24 35 27 33 42 44 45 45 43 41 39 39 40 41 41 42 43 44 45 46 48 51 63 66 67 65 61 61 63 62 62 61 61
31 32 44 45 45 41 37 31 37 30 30 26 29 34 39 43 43 45 43 41 39 37 39 39 40 40 41 41 41 42 45 47 51 65 66 63 62 60 60 61 61 61 61 59
35 28 37 41 43 42 38 39 25 26 19 21 27 28 29 37 40 45 40 38 38 39 37 38 39 39 40 40 41 42 44 46 50 55 62 62 61 61 60 60 59 60 59 59
35 31 30 37 33 30 32 29 31 31 26 20 22 26 40 38 39 39 38 37 35 36 37 36 37 38 39 39 39 40 43 45 47 50 57 60 60 59 60 59 59 59 59 59
34 30 24 29 37 38 34 31 31 16 19 24 22 25 42 40 39 38 36 36 37 37 37 36 36 36 37 37 38 38 40 42 44 48 53 59 59 59 58 58 58 58 58 58
34 26 22 25 30 34 30 32 33 29 29 23 15 24 41 41 38 37 34 33 34 35 35 34 34 34 34 35 36 37 39 41 43 45 52 57 58 58 58 58 58 58 58 58
38 29 26 21 26 28 26 29 30 26 13 22 25 28 36 38 34 34 33 33 32 34 33 33 33 33 33 34 35 36 37 40 42 42 42 44 50 57 57 58 58 58 58 57
31 24 27 29 29 30 29 28 28 26 28 21 26 26 32 34 32 31 32 32 31 31 31 32 31 32 32 33 33 35 36 38 40 40 39 38 41 45 50 53 55 55 55 54
30 19 26 25 29 28 26 29 29 29 29 29 31 29 37 33 32 31 30 30 29 29 30 31 31 31 31 31 32 33 33 35 38 37 37 38 37 38 39 42 44 43 42 42
26 22 21 14 28 27 21 27 28 31 33 32 24 32 33 29 28 27 28 29 28 28 28 29 29 29 30 30 31 30 32 33 34 35 36 37 36 34 34 36 37 37 37 37
25 21 21 18 22 10 24 35 33 30 30 32 34 33 32 28 28 28 29 28 27 27 28 28 29 29 29 30 29 30 31 32 31 31 33 34 35 33 33 33 33 33 34 33
32 26 15 13 13 22 28 29 28 28 25 30 31 30 29 29 29 26 30 29 27 27 27 28 29 29 29 28 29 28 28 29 29 28 29 31 32 32 32 31 31 31 31 31
31 32 18 14 12 14 23 31 34 34 23 29 30 31 30 30 26 22 28 28 27 28 28 28 28 29 28 28 28 27 26 26 26 27 28 30 30 30 30 30 30 31 31 30
24 23 19 19 19 23 28 29 34 24 22 28 28 29 32 26 26 26 27 26 27 26 27 28 28 27 28 28 28 24 25 24 26 27 27 28 28 28 29 29 29 29 29 29
25 22 21 22 19 18 30 30 26 28 29 28 27 27 26 25 24 25 25 25 26 25 26 27 26 26 28 29 27 25 24 25 26 26 26 26 26 27 28 28 28 28 29 28
22 27 24 25 23 29 30 29 32 32 29 28 28 27 27 24 23 23 23 24 24 24 24 25 25 25 26 26 28 25 25 24 24 24 24 25 26 26 26 25 26 26 27 27
28 31 27 27 28 29 30 31 31 31 29 29 29 28 26 23 23 22 23 23 23 23 23 24 24 23 23 25 26 27 27 26 25 23 23 23 26 25 25 26 27 26 25 25
27 30 28 27 29 29 30 30 29 28 28 27 27 26 24 24 23 23 22 22 22 22 23 24 23 22 22 23 23 24 26 28 27 25 24 23 23 24 26 26 27 27 28 28
29 26 25 21 29 28 27 30 30 27 26 26 25 23 24 23 21 20 19 20 21 21 22 21 21 22 21 22 21 23 26 26 26 24 23 21 21 21 21 22 22 28 29 31

GFSCGP_sfc_temp_105.txt.gz
Temp
51 47 42 47 47 48 47 44 43 47 52 48 49 51 54 59 57 58 61 62 61 60 61 62 61 62 61 62 62 62 62 65 71 73 70 67 66 69 68 69 70 69 69 68
46 42 49 50 48 46 45 42 42 47 51 48 50 49 55 57 57 59 60 57 55 56 59 59 60 59 58 58 59 60 61 63 66 74 75 74 72 69 70 69 69 70 69 68
44 48 51 48 46 43 44 42 42 43 49 51 47 49 50 56 57 56 55 54 54 53 53 55 55 56 57 57 56 58 60 60 62 65 74 74 69 68 66 66 66 68 70 69
45 52 47 45 45 46 40 47 47 45 42 39 49 37 49 54 55 52 52 52 51 51 52 53 52 53 54 54 55 56 56 58 61 64 69 71 69 67 69 71 70 67 69 68
45 45 44 44 46 48 44 49 46 46 43 40 42 40 46 50 51 50 49 50 50 50 49 49 50 51 53 53 52 53 53 55 58 61 64 70 70 73 74 73 71 68 67 69
48 53 51 50 51 50 51 47 45 43 42 33 42 41 46 48 48 48 49 48 47 47 47 48 49 50 51 52 51 49 49 51 54 57 60 66 70 71 70 71 69 67 66 66
44 45 49 50 46 49 47 43 35 32 31 32 41 39 46 48 47 48 47 46 46 46 46 46 46 46 47 46 46 46 46 47 51 53 58 65 67 69 70 70 70 66 64 63
37 33 43 49 45 42 42 42 35 26 28 33 40 35 44 46 49 49 47 46 46 46 45 45 45 45 44 42 42 43 43 44 49 51 54 65 67 66 69 70 71 68 65 65
34 34 45 47 48 46 41 37 42 34 35 31 38 41 44 47 47 47 44 43 40 41 43 41 43 43 42 39 40 40 41 44 47 50 53 67 67 65 65 68 70 67 66 65
39 32 39 44 46 46 43 44 33 33 24 25 35 36 39 40 42 44 41 37 38 40 42 40 41 40 41 39 39 40 41 42 45 48 51 61 65 65 65 65 67 67 65 65
40 37 35 40 38 36 37 35 37 36 33 27 27 34 42 40 39 38 38 37 36 38 39 40 39 39 39 38 38 38 39 41 43 45 49 53 61 63 62 62 63 63 63 62
38 35 29 33 38 41 39 35 35 28 26 30 29 32 42 41 38 37 36 37 38 38 38 38 38 37 37 36 36 37 38 39 42 44 47 56 60 60 60 60 60 61 61 62
39 32 26 28 35 38 35 37 36 33 32 26 24 30 44 43 38 37 36 37 37 36 36 36 36 35 35 35 35 36 37 38 41 43 44 47 48 57 60 59 59 60 59 60
41 34 31 26 30 34 29 32 35 32 24 27 29 32 40 42 37 36 35 34 34 33 33 34 34 34 33 34 34 34 35 37 39 41 41 40 42 44 49 60 59 59 59 59
37 29 31 34 34 33 33 32 33 30 31 25 29 29 34 39 35 33 33 33 32 31 32 32 31 32 33 32 32 33 34 35 37 39 39 38 39 40 41 43 48 57 59 56
34 27 29 27 33 33 29 32 33 32 31 31 33 30 41 36 35 32 31 31 29 29 30 31 31 31 31 31 30 31 32 33 35 36 36 38 38 37 37 37 39 40 41 42
31 29 26 20 29 29 24 30 31 32 34 33 25 33 36 31 30 30 29 29 29 29 28 29 29 30 30 30 30 29 30 32 32 33 34 35 36 36 35 35 34 34 35 36
30 28 28 22 25 14 29 36 34 31 30 31 33 34 35 30 29 29 29 28 28 28 28 28 29 29 30 29 30 31 30 29 29 30 31 32 33 34 34 34 32 32 33 32
36 31 24 20 20 26 26 29 28 28 28 30 29 29 29 29 28 26 29 29 28 28 28 29 30 30 29 29 29 29 29 29 28 28 28 29 30 30 32 32 31 31 31 32
32 34 27 20 16 14 23 30 34 32 25 29 30 29 28 28 27 23 28 29 28 29 29 28 29 30 29 28 29 27 26 27 26 27 28 29 29 29 29 30 30 31 30 29
25 25 22 22 20 25 28 30 33 24 22 28 29 30 31 26 28 27 28 27 28 28 28 29 28 27 28 29 29 26 25 25 27 28 29 28 29 29 30 30 30 30 29 29
26 24 22 23 20 18 30 32 26 27 28 28 28 28 26 26 25 26 26 26 26 26 28 28 28 27 27 29 28 25 24 26 27 28 28 28 29 29 30 30 30 30 30 29
24 27 26 26 24 29 30 29 31 31 29 29 28 28 27 25 24 24 24 25 25 26 27 28 28 28 28 28 28 26 26 27 27 26 27 29 29 30 30 30 29 29 31 30
29 32 28 28 28 28 29 30 30 31 29 29 29 28 27 24 24 24 24 25 25 26 26 28 28 27 26 29 29 29 30 29 28 27 26 27 28 28 30 31 31 30 29 29
29 31 29 27 28 29 29 29 29 29 29 28 28 27 26 25 24 24 24 24 25 25 26 27 26 26 26 29 28 29 31 32 30 29 29 28 28 28 28 28 29 30 30 30
30 27 27 25 29 29 27 29 30 28 27 27 26 24 25 25 22 23 22 23 23 23 25 25 26 26 25 26 26 27 29 29 28 27 27 26 27 27 27 27 26 28 29 29

GFSCGP_sfc_temp_108.txt.gz
Temp
61 54 51 56 58 59 58 54 53 59 64 58 57 60 65 70 70 70 71 72 72 70 71 71 70 71 71 72 71 71 71 72 74 77 80 80 74 77 81 83 81 79 77 73
56 49 60 62 60 56 54 51 52 58 61 57 58 59 65 69 69 70 71 69 67 67 68 68 69 69 67 68 68 68 69 70 71 74 78 82 81 80 80 81 79 76 75 73
52 57 60 57 55 51 52 51 52 52 58 60 58 56 62 65 67 68 67 67 65 63 64 65 65 66 67 66 65 65 67 67 68 69 73 76 81 81 79 77 76 74 74 72
53 62 55 54 52 54 48 58 54 52 51 47 57 47 58 63 62 64 63 63 62 61 62 63 62 63 63 64 64 65 64 65 66 67 68 70 75 77 80 79 79 73 72 74
51 53 53 51 53 56 51 58 54 54 52 51 52 47 58 61 58 60 61 59 59 59 59 59 60 61 63 62 61 61 61 61 63 62 61 63 68 77 81 80 76 71 70 71
54 60 57 56 58 58 58 54 53 53 51 40 50 50 55 57 59 59 57 56 56 57 58 59 60 60 61 60 58 57 56 57 58 57 57 58 60 68 76 79 75 70 69 68
51 53 56 56 52 55 53 49 40 38 38 38 51 49 56 57 56 56 52 55 56 57 56 56 56 56 56 56 54 53 51 50 53 51 52 55 56 64 69 76 76 72 69 66
42 38 51 54 52 50 50 50 41 31 36 43 48 42 52 55 53 52 51 52 52 53 55 55 54 54 54 53 51 48 44 44 46 47 49 51 53 58 70 72 71 74 72 68
40 40 50 51 51 49 48 42 49 40 43 38 46 51 51 50 48 50 50 51 50 50 53 53 53 52 50 49 47 41 40 41 43 44 46 49 51 56 69 75 70 70 73 70
42 35 44 47 50 50 47 51 37 40 29 30 43 45 49 45 46 47 44 46 49 51 51 51 51 50 47 45 43 40 39 39 41 43 45 48 50 56 71 74 70 69 73 71
45 41 38 43 42 44 44 42 42 43 41 33 33 42 48 42 43 43 47 48 48 49 49 50 50 49 47 45 42 39 37 37 39 42 44 46 53 65 71 69 69 69 70 69
44 43 37 39 45 47 46 42 44 34 34 38 37 40 50 47 47 47 47 46 48 48 48 48 48 47 44 44 41 36 35 34 38 41 44 46 50 55 62 64 67 67 65 65
45 40 33 34 39 43 41 43 43 39 38 33 31 39 50 45 45 44 45 45 45 45 45 46 45 43 39 38 35 34 35 35 36 40 43 43 45 46 50 60 61 62 62 62
47 42 38 34 36 42 35 40 42 37 30 35 38 40 47 49 49 47 44 43 43 42 42 42 42 41 37 35 34 33 34 35 36 38 39 40 41 43 44 47 53 59 60 60
43 34 39 40 41 39 39 39 40 38 38 31 35 35 40 46 47 42 42 41 40 38 37 37 39 38 36 34 32 32 33 33 35 35 35 36 40 40 39 40 42 44 50 56
40 32 34 33 39 39 36 40 41 40 39 38 39 35 47 49 41 39 37 37 36 34 32 35 36 36 34 34 32 31 31 31 34 33 32 33 36 38 38 37 38 38 39 40
38 35 31 26 35 34 29 36 38 40 41 39 30 39 47 38 37 37 35 35 32 31 31 32 33 33 33 33 32 31 31 31 31 31 33 33 34 33 35 36 35 34 34 35
37 34 34 28 27 19 32 42 39 36 38 36 36 39 42 36 34 34 33 31 29 29 30 30 32 32 32 32 32 33 32 31 30 29 30 32 32 32 33 33 32 32 31 32
42 37 29 25 27 33 32 30 29 29 30 33 33 33 34 33 34 29 31 30 29 29 29 30 31 31 31 31 31 31 31 31 31 30 30 31 31 31 31 31 30 31 30 29
40 40 32 28 21 20 27 34 38 33 26 31 33 33 30 32 29 26 29 31 29 30 30 29 29 30 31 30 31 30 30 30 29 30 30 31 32 32 31 31 30 30 30 28
29 30 26 27 24 30 31 32 35 23 24 30 31 33 32 29 30 28 29 29 29 30 30 32 30 29 29 30 31 29 29 28 30 31 31 31 32 32 32 32 32 32 30 30
30 28 27 27 23 22 33 34 27 29 30 30 31 31 28 28 28 28 28 28 29 29 30 33 33 30 31 31 31 29 28 30 31 31 31 31 32 32 32 32 32 32 32 31
27 30 30 29 27 31 32 30 32 33 31 30 30 29 29 27 27 27 27 28 28 29 32 36 35 34 33 33 33 29 30 31 31 31 31 31 31 32 32 31 32 32 32 31
32 35 32 31 29 30 31 32 32 33 31 31 31 29 29 26 27 27 27 28 29 31 32 35 34 33 33 35 34 35 35 34 33 31 31 32 31 30 31 34 33 31 31 31
33 35 32 29 31 31 31 31 31 30 31 29 29 29 28 27 27 27 27 28 29 31 33 34 33 33 32 34 34 35 37 38 37 36 35 34 34 33 30 28 29 30 29 29
35 29 31 28 32 33 30 32 33 30 28 29 29 27 28 28 27 27 26 27 28 29 31 32 33 32 32 31 31 32 33 33 32 32 33 32 33 33 33 33 29 28 28 29

GFSCGP_sfc_temp_111.txt.gz
Temp
65 58 55 61 64 63 62 60 60 66 72 66 64 65 69 74 75 74 75 76 77 79 79 77 76 76 75 75 75 74 73 74 75 76 78 81 82 84 86 87 86 86 85 83
60 54 63 67 66 63 61 57 57 64 68 65 63 63 69 73 74 75 75 76 77 75 75 73 73 73 72 72 72 71 72 73 73 74 76 77 79 84 86 86 86 86 84 81
57 61 67 63 61 59 59 56 56 57 64 67 62 59 64 72 75 76 77 76 74 71 70 70 69 70 70 70 69 69 70 71 71 71 73 75 77 78 80 84 84 85 84 82
56 65 62 60 57 61 52 63 60 57 55 49 65 49 64 67 67 69 70 70 69 67 68 68 68 68 68 68 68 68 68 68 69 69 69 68 68 71 80 84 85 84 83 80
54 57 56 54 55 60 54 62 59 58 54 54 56 52 59 68 65 65 67 66 65 65 65 66 66 67 68 68 66 65 64 65 65 64 64 64 64 68 73 78 81 82 81 79
60 65 61 60 62 62 63 57 56 56 53 42 52 53 56 62 65 66 62 62 62 63 65 65 66 66 66 66 63 62 60 60 60 59 58 56 56 59 64 69 74 81 82 79
54 55 61 61 53 56 56 50 39 37 38 38 56 53 56 62 63 65 60 61 61 62 63 63 63 63 62 61 60 59 57 54 55 54 54 53 53 54 56 62 70 73 77 75
39 35 53 58 55 50 51 48 37 26 32 39 54 45 51 59 60 60 61 60 60 60 61 61 61 61 60 58 57 55 53 50 51 50 50 49 48 51 55 60 66 72 77 78
40 41 55 56 57 54 51 43 53 41 44 40 47 52 55 54 55 55 55 57 58 59 60 59 60 59 58 56 54 51 48 47 47 46 46 45 46 48 50 54 61 69 75 76
48 36 50 53 55 55 51 53 39 43 30 31 42 44 47 45 45 50 51 53 55 57 58 58 58 57 56 54 53 49 46 44 44 44 41 43 44 47 49 52 55 65 75 76
53 47 44 49 47 46 46 43 44 45 41 31 31 40 51 45 49 50 52 53 54 56 56 56 56 55 54 51 50 47 42 42 40 39 39 41 44 47 50 55 58 67 72 74
49 44 36 42 52 51 50 46 46 36 34 41 40 40 54 52 53 52 51 52 54 55 55 55 54 53 50 47 45 42 40 38 36 36 37 40 44 45 48 51 62 68 71 73
45 39 33 38 45 48 44 46 46 45 43 36 34 40 53 53 53 52 52 53 53 52 52 52 51 49 46 44 42 40 38 35 34 33 36 38 41 42 43 46 50 53 67 71
50 44 41 36 40 45 38 44 47 43 33 37 40 44 50 52 53 55 54 51 51 49 46 47 47 46 43 42 40 38 36 35 34 34 36 35 36 38 40 43 44 47 50 59
47 38 43 45 47 45 43 43 44 42 42 34 39 39 46 51 52 50 48 49 48 44 43 42 41 40 41 39 37 37 35 33 33 34 34 32 35 36 38 39 39 41 42 44
46 36 38 37 44 44 39 44 45 45 44 44 45 41 52 54 52 47 44 43 41 39 39 38 38 36 35 34 35 35 35 32 32 32 32 33 34 33 34 36 36 36 37 37
42 39 34 29 39 38 32 39 43 45 47 46 34 44 49 45 40 42 40 39 36 35 34 34 32 32 32 32 33 33 34 34 32 32 32 33 33 32 32 34 33 32 33 35
41 38 37 31 32 22 38 46 44 41 43 46 43 44 41 39 38 37 36 35 33 31 31 31 31 32 32 32 33 33 33 33 33 32 32 32 32 32 32 31 30 31 31 30
46 41 33 28 30 36 36 33 31 30 34 36 37 37 37 37 37 31 34 33 30 30 30 30 31 31 32 32 32 32 32 32 33 31 32 32 32 32 32 30 30 29 29 29
45 44 36 32 24 22 29 38 42 37 27 36 38 38 35 35 31 28 31 31 30 31 31 30 30 31 31 31 33 32 31 31 30 31 31 32 33 32 32 32 32 31 30 29
33 34 30 30 27 30 34 35 39 24 26 34 35 35 36 32 30 29 30 30 30 31 31 33 32 31 31 32 33 31 31 30 31 32 32 32 32 32 32 32 32 32 32 32
33 31 30 31 26 24 36 37 29 30 32 33 33 34 31 29 29 29 29 29 30 30 33 37 36 33 33 33 32 30 30 32 33 32 32 31 32 32 32 32 32 32 32 32
29 32 31 30 29 33 35 32 33 34 32 31 32 31 31 29 29 29 28 29 29 31 36 39 38 37 37 37 37 32 32 34 34 34 33 32 31 31 32 31 31 32 32 31
36 40 35 33 32 32 33 35 33 34 32 32 32 31 30 28 28 28 29 29 30 35 37 39 38 36 35 37 37 38 39 38 36 35 35 35 34 30 30 33 32 30 28 30
38 40 37 32 33 33 34 34 33 31 32 31 31 30 29 29 28 29 28 29 33 35 37 38 36 35 34 36 36 37 38 40 38 37 36 37 37 36 32 28 28 30 28 28
36 32 32 30 36 35 32 34 34 31 30 30 30 29 30 30 28 29 27 30 32 33 35 36 36 35 33 33 32 33 35 35 34 34 34 34 35 35 35 35 30 28 28 28

GFSCGP_sfc_temp_114.txt.gz
Temp
63 55 51 57 61 62 60 57 56 62 69 65 65 65 69 73 74 73 74 74 75 77 78 76 74 73 73 72 71 70 69 69 69 69 68 69 68 73 75 79 78 78 78 78
58 52 60 64 63 60 59 56 56 62 67 64 63 62 69 71 71 73 74 75 75 77 74 72 72 70 69 68 67 67 68 67 67 68 67 67 68 69 71 71 74 79 78 77
53 59 66 63 60 57 58 55 55 56 62 65 61 58 63 68 72 74 76 77 76 73 69 69 69 68 67 67 65 65 65 65 65 65 66 67 67 68 69 71 74 76 76 77
56 63 60 60 57 60 51 61 59 57 54 45 60 43 58 65 69 72 73 70 67 66 68 68 67 66 65 64 64 64 63 63 64 62 60 59 60 60 64 66 70 72 75 77
53 56 56 54 56 61 54 61 56 54 47 47 50 46 53 63 63 66 67 64 64 64 65 64 64 65 66 64 61 60 61 61 60 58 57 56 55 57 59 60 61 65 69 74
58 66 61 58 60 60 62 56 55 53 48 35 46 46 47 56 61 64 61 62 62 63 64 64 65 65 63 62 59 58 57 57 56 55 54 52 52 53 53 55 56 59 64 69
55 56 62 61 54 58 56 48 36 30 32 34 50 46 50 51 59 57 57 60 60 61 60 61 60 60 59 58 57 56 54 52 52 51 51 51 50 50 49 51 53 55 59 62
45 40 56 61 54 49 50 47 32 25 28 35 42 38 45 55 55 57 59 59 60 59 59 59 59 58 57 56 54 53 50 48 48 48 47 47 47 47 48 49 51 53 56 61
43 43 57 58 60 56 48 42 50 36 37 34 40 45 48 54 53 53 54 56 55 57 57 57 58 56 55 53 51 49 47 45 45 44 44 43 44 45 45 47 49 50 53 58
52 40 48 54 56 56 51 55 39 34 25 28 40 43 37 44 47 50 51 52 54 56 56 55 55 54 53 51 49 46 45 43 42 41 41 41 42 43 45 47 47 49 51 54
55 45 41 48 45 45 46 44 45 44 38 28 29 37 47 44 46 46 51 52 53 53 53 53 53 53 51 49 47 44 42 40 38 38 38 38 41 42 44 45 46 49 52 53
46 43 36 40 52 55 51 47 46 34 33 38 36 35 52 50 52 53 52 53 53 53 52 52 51 50 48 45 43 41 39 37 36 36 37 37 39 40 41 42 45 47 50 58
47 36 32 37 44 50 44 48 48 45 43 34 29 34 53 54 53 53 52 52 52 51 49 48 47 45 44 42 40 39 38 36 35 35 36 36 36 37 38 40 42 44 48 51
49 42 36 30 36 44 39 44 47 43 33 35 36 40 49 49 51 53 50 50 50 47 45 43 42 41 39 38 38 36 36 36 35 35 35 34 35 35 35 38 39 39 42 43
47 36 41 43 46 46 44 43 45 42 43 35 38 38 45 50 49 49 49 49 47 42 41 40 38 37 36 35 35 35 34 34 34 33 33 33 34 35 35 35 36 36 35 38
47 35 37 35 43 44 40 45 45 44 44 43 44 41 52 54 50 47 45 44 39 37 36 36 36 34 33 33 33 33 33 33 34 33 32 33 33 33 33 33 33 34 34 34
42 38 34 29 40 40 32 39 42 44 46 45 34 43 44 42 38 37 38 37 34 33 33 32 31 31 31 31 32 31 32 33 33 33 33 33 33 32 31 31 31 30 30 32
41 39 37 31 33 21 39 47 43 40 42 44 43 41 40 37 35 34 34 33 31 31 31 30 30 30 31 32 32 32 32 32 32 32 32 33 33 32 32 32 30 29 29 29
47 41 33 27 28 35 38 34 33 30 34 41 38 40 39 37 35 29 33 32 30 29 29 29 30 30 31 31 32 32 31 31 31 30 31 31 32 32 32 32 31 31 30 29
46 43 34 31 24 21 30 37 43 39 26 36 37 37 36 36 29 25 31 32 30 31 30 29 30 31 30 30 31 31 30 30 29 30 30 31 31 31 31 31 32 32 32 30
34 35 30 31 27 30 34 37 41 23 25 34 35 36 34 30 30 29 30 30 31 31 31 32 32 31 31 33 33 30 30 29 31 31 31 31 32 30 30 31 31 31 31 30
33 31 30 32 26 23 36 36 29 30 33 34 33 32 30 29 29 29 29 29 30 30 32 36 34 33 33 33 31 29 29 31 33 33 30 29 29 31 29 29 29 31 29 28
30 34 30 29 28 33 35 32 35 36 33 31 31 31 30 29 28 28 28 28 29 30 35 38 36 35 35 35 35 31 29 33 33 34 33 29 28 28 29 26 25 26 28 26
38 42 35 33 32 33 34 35 35 35 32 32 32 31 30 27 28 27 28 29 29 33 35 37 35 33 32 34 34 34 36 36 34 33 33 33 32 27 27 28 26 24 24 24
39 42 38 31 33 34 34 34 33 32 32 31 31 30 29 29 28 28 28 29 31 34 36 36 33 31 31 32 32 34 35 36 34 33 32 33 33 32 26 25 25 24 24 25
36 32 33 29 36 34 32 34 34 31 30 30 30 29 30 30 27 28 27 29 32 33 34 34 33 31 30 30 30 31 33 33 31 31 31 31 31 31 31 30 25 29 29 29

GFSCGP_sfc_temp_117.txt.gz
Temp
56 44 39 45 50 52 52 50 48 54 60 57 55 57 60 64 62 61 59 61 63 62 65 65 64 63 62 61 62 61 61 60 61 61 59 61 60 63 64 63 65 67 70 74
49 44 52 57 56 54 52 49 48 54 59 58 55 54 59 63 62 63 62 61 63 61 63 63 61 59 58 58 58 59 59 59 59 59 59 59 59 59 63 64 64 64 65 70
46 51 59 57 54 52 52 49 49 49 54 54 51 47 52 61 66 67 67 68 64 63 61 61 60 56 56 55 54 56 56 56 56 56 56 56 57 58 58 60 62 63 64 66
49 57 55 54 52 53 46 56 56 52 44 36 46 32 47 55 58 63 65 59 60 59 59 59 57 55 54 52 54 54 55 54 56 53 52 50 49 49 53 54 56 57 60 62
47 50 50 50 52 56 49 55 51 51 45 41 43 33 43 53 52 57 55 56 56 57 56 55 55 54 53 52 51 50 51 52 51 50 49 48 47 49 51 52 52 53 56 58
51 59 56 54 58 56 57 51 47 45 40 29 40 37 39 44 52 50 52 55 56 56 55 55 55 54 51 50 49 47 48 48 48 47 47 45 44 45 46 47 47 49 52 54
49 50 56 59 51 51 48 40 29 25 26 28 45 40 42 45 48 50 50 52 53 54 53 52 51 49 49 46 45 47 45 44 44 44 44 45 45 45 45 46 47 47 48 50
38 33 48 52 49 43 45 41 27 23 24 28 42 32 34 43 46 45 52 54 54 52 52 51 48 47 46 45 42 41 41 41 41 41 40 42 43 43 44 44 46 47 48 49
38 39 52 55 54 49 44 37 46 33 34 28 32 37 40 42 43 43 43 45 46 47 48 49 47 46 44 43 41 39 39 39 39 38 38 38 40 41 41 43 45 45 47 49
46 38 46 50 52 51 47 50 34 31 23 23 31 35 33 38 39 42 43 45 48 48 47 48 45 44 43 42 41 40 38 37 37 36 36 38 38 40 41 42 42 45 47 48
45 39 37 45 41 39 42 39 41 38 31 23 22 29 43 40 41 44 45 48 45 44 44 44 44 43 41 40 39 38 37 36 35 35 36 37 38 39 40 40 41 43 45 46
41 37 29 36 48 50 45 43 42 28 28 30 28 28 47 46 47 47 47 47 44 44 43 42 41 40 38 37 37 36 35 34 35 36 36 37 38 38 38 38 40 42 42 44
42 31 27 32 40 44 40 44 45 40 37 30 25 28 49 51 49 48 45 43 43 43 41 39 38 37 36 36 36 35 34 34 35 35 35 36 36 36 36 37 38 39 40 42
46 35 32 29 34 38 34 41 43 38 25 30 32 36 45 44 45 45 43 39 39 38 38 37 35 35 35 35 34 34 33 35 35 35 34 34 34 34 34 35 36 36 38 38
40 31 37 40 43 43 37 38 41 39 37 30 35 35 41 43 40 41 42 40 37 35 35 34 33 33 32 33 32 32 33 34 34 34 33 33 33 33 33 33 33 34 35 35
41 30 33 31 40 40 38 41 42 42 41 40 41 36 39 41 40 37 37 35 33 33 32 32 32 32 31 31 31 32 32 32 33 32 32 32 33 33 32 32 32 32 31 32
36 31 29 24 34 34 27 34 38 41 40 38 22 32 36 31 31 32 31 31 30 30 30 30 30 29 30 30 31 30 31 32 31 31 31 32 32 32 32 32 31 30 30 31
33 33 30 26 28 18 32 40 39 37 35 36 36 33 31 29 30 29 31 28 28 28 28 26 27 28 29 30 31 32 32 31 30 29 30 31 31 31 31 32 31 30 30 29
42 33 26 22 21 29 32 31 27 25 26 33 32 33 31 30 29 27 31 31 28 25 26 27 28 29 29 29 31 31 30 30 29 27 28 29 29 28 30 29 29 30 29 28
42 38 26 23 19 9 26 34 41 36 18 31 32 32 32 32 22 21 29 30 28 27 28 28 29 30 30 31 32 30 30 30 29 27 27 28 29 27 27 28 27 28 29 28
28 27 24 21 18 23 33 33 40 19 18 33 32 31 33 27 26 26 28 28 30 30 30 31 30 29 30 31 31 28 29 28 29 29 28 27 27 27 26 26 28 27 27 27
28 25 20 20 17 18 32 33 27 28 31 30 31 29 27 26 26 27 28 28 29 29 30 33 31 30 31 31 30 27 28 30 30 27 26 26 26 26 25 24 24 25 25 24
23 25 27 24 21 31 34 31 34 34 30 30 29 29 28 26 26 27 27 28 28 29 31 34 33 31 32 32 31 27 28 29 30 30 29 25 25 25 25 23 22 22 23 22
32 37 26 27 30 31 32 33 33 32 30 31 31 30 29 26 26 26 27 28 28 31 32 33 31 29 28 30 30 30 31 31 30 29 29 29 26 24 25 25 24 23 22 21
31 36 31 28 31 32 32 32 32 30 31 30 30 29 28 28 27 27 27 28 29 32 32 32 29 27 27 29 28 29 30 31 30 29 29 29 29 27 24 25 24 24 25 26
29 28 28 24 31 31 29 32 33 29 29 29 29 28 29 28 26 27 26 27 30 30 31 29 27 26 25 25 25 27 29 29 28 28 28 27 27 27 27 24 23 31 30 30

GFSCGP_sfc_temp_120.txt.gz
Temp
51 42 37 45 45 48 46 44 43 48 54 52 51 52 56 59 56 56 58 57 55 58 61 59 59 57 57 57 56 56 55 55 55 55 53 53 53 56 57 59 61 62 62 64
45 39 47 51 50 48 47 44 44 50 55 53 50 47 51 54 55 56 60 61 57 58 57 57 55 54 53 53 54 54 54 52 52 53 52 51 51 52 56 56 56 58 57 58
42 48 55 51 49 47 47 45 45 46 51 48 45 44 46 56 58 61 63 62 60 57 55 54 52 50 51 50 51 51 51 50 49 50 50 50 51 51 51 51 53 54 55 56
46 54 51 50 48 50 42 51 51 47 42 34 45 33 44 52 53 54 52 53 54 54 53 52 50 48 48 47 48 49 49 48 49 48 46 44 43 43 46 48 50 51 53 53
43 46 46 45 48 52 46 53 49 46 39 35 41 33 41 49 49 47 48 50 49 50 49 48 48 47 47 47 45 46 47 46 45 44 44 42 41 43 44 46 46 47 49 51
48 55 51 50 54 53 55 50 45 42 37 27 39 35 35 36 41 45 48 49 49 49 50 49 50 48 45 45 44 43 43 42 43 42 41 40 39 40 41 41 42 44 46 48
45 47 51 55 47 50 47 38 28 25 25 26 40 35 32 40 42 43 42 44 48 49 47 46 45 45 44 42 39 42 40 39 40 39 38 38 38 39 40 42 43 44 44 45
34 31 46 51 46 43 42 41 28 22 23 26 39 29 33 41 42 44 44 44 44 45 45 43 43 42 43 41 39 38 37 37 37 37 36 37 37 37 39 42 43 43 44 44
34 36 49 51 51 49 41 34 42 34 31 26 30 33 39 43 40 39 39 41 41 41 42 42 42 41 40 39 38 37 35 35 36 35 36 36 37 38 39 40 42 42 44 46
44 35 44 47 49 47 45 46 31 30 23 21 28 30 29 37 36 40 38 39 40 41 41 40 39 39 38 38 36 35 35 35 35 36 36 37 37 39 40 40 39 41 42 44
44 40 37 43 39 38 39 36 37 36 32 23 21 26 40 39 40 40 41 43 41 40 39 39 38 38 37 36 35 34 34 35 35 35 36 37 37 38 39 38 39 40 41 42
43 36 29 35 45 46 42 39 40 28 26 28 25 28 44 41 43 46 41 40 38 38 36 36 36 35 34 34 33 33 34 34 35 36 37 36 37 37 36 36 37 38 38 40
43 33 26 30 36 41 37 42 43 40 36 29 23 27 46 45 44 43 39 40 38 37 34 33 32 32 33 34 32 33 34 34 35 35 35 35 35 35 34 34 35 36 36 38
45 35 32 29 32 36 32 38 42 38 28 28 30 34 41 40 39 38 38 36 35 34 34 33 32 32 33 32 32 32 33 34 34 33 33 33 33 34 34 34 34 34 35 35
39 30 33 37 41 41 34 35 38 35 36 31 34 32 33 37 36 35 36 36 34 32 32 32 31 31 31 31 32 32 32 32 32 32 31 31 33 33 34 33 32 32 33 34
40 30 31 30 39 39 35 37 38 38 39 39 40 28 35 35 35 33 33 33 31 31 30 31 30 30 29 30 30 30 30 30 31 30 30 30 31 32 31 32 31 31 30 31
34 31 27 23 34 33 27 32 37 39 36 35 25 32 33 30 32 30 28 29 30 29 28 28 27 27 28 28 29 29 29 30 29 28 29 29 28 28 30 30 30 29 28 29
33 31 29 26 28 18 30 38 38 32 31 33 32 32 31 31 29 30 30 29 28 28 26 26 26 26 27 28 29 31 31 28 27 26 26 28 27 26 28 28 27 28 28 27
39 31 24 21 21 27 31 30 25 26 26 30 33 28 28 28 28 26 30 29 25 23 24 24 24 23 26 29 30 30 30 30 28 25 25 26 26 24 25 25 25 26 26 26
38 36 25 21 18 8 20 32 37 33 18 30 30 32 28 26 18 21 29 27 25 22 22 23 26 29 30 30 31 29 29 29 26 26 25 26 25 23 22 23 24 25 25 25
27 26 24 20 17 23 30 31 37 20 19 29 30 28 32 27 23 26 27 27 26 24 27 30 29 28 28 30 30 27 28 26 27 27 27 25 25 24 23 23 23 23 24 25
28 25 19 18 13 16 30 31 26 26 27 28 25 28 28 26 25 25 26 28 28 28 29 30 29 28 29 29 28 26 26 28 28 26 25 25 25 25 24 23 23 23 22 23
22 26 21 24 20 26 29 25 32 34 31 29 25 27 28 26 25 26 26 27 28 28 28 30 28 28 28 30 29 25 26 27 28 28 26 23 25 25 24 23 23 23 23 22
31 35 24 26 26 28 31 32 32 28 27 28 29 28 28 25 25 26 26 27 27 28 27 28 27 26 26 28 29 28 29 29 27 27 27 28 26 24 25 25 24 23 23 23
29 33 28 27 30 31 32 32 30 28 28 29 29 28 26 26 25 26 26 27 27 27 27 28 26 25 24 25 25 26 29 30 29 28 28 27 27 26 23 24 24 23 25 26
27 30 24 21 29 28 28 32 30 28 27 28 28 27 28 28 26 27 26 27 26 27 27 26 25 24 23 24 23 24 27 28 27 27 26 25 25 24 25 23 23 28 28 29

GFSCGP_sfc_temp_123.txt.gz
Temp
51 42 37 44 44 44 42 39 38 42 50 47 47 49 53 52 52 51 51 54 51 52 54 53 53 52 52 52 52 51 50 50 51 50 48 48 47 50 51 53 55 56 55 57
43 37 46 49 48 45 43 40 39 44 50 48 46 46 48 49 52 53 54 52 51 51 50 51 50 49 48 48 49 48 48 47 48 48 46 47 46 48 50 50 51 52 52 55
40 46 52 48 45 43 42 40 41 42 47 47 44 42 45 52 55 54 52 54 53 50 47 48 48 46 45 44 44 46 45 46 45 46 46 46 46 47 47 46 47 49 50 51
43 51 49 46 44 45 38 48 47 44 39 33 42 32 45 47 45 46 45 44 44 44 45 45 44 43 44 44 45 44 45 44 45 44 42 40 39 39 42 43 45 46 48 49
41 44 43 42 45 48 42 49 46 45 37 34 37 30 37 42 40 40 42 44 43 44 44 42 42 42 43 43 42 42 42 42 42 41 40 39 37 39 41 42 42 43 45 47
45 50 48 47 51 50 51 45 42 39 37 28 37 35 30 36 41 41 42 44 46 45 45 45 46 46 43 42 41 42 40 40 39 38 37 36 35 35 36 38 39 41 44 45
41 43 48 51 44 46 44 38 30 24 24 25 38 32 32 39 41 40 39 39 42 44 43 42 41 41 41 40 39 40 38 37 37 36 36 35 35 35 36 37 38 39 42 44
33 31 43 49 44 41 39 38 26 22 23 25 36 28 32 42 43 42 43 42 42 41 41 39 38 38 37 38 38 36 36 35 36 37 37 38 38 38 39 40 39 40 41 43
33 34 46 49 48 48 39 33 39 31 30 26 29 33 39 41 40 40 40 42 41 41 40 39 38 37 36 36 36 34 34 35 36 36 37 37 38 38 38 40 40 40 42 43
41 33 42 45 47 45 43 44 30 28 22 21 26 28 27 36 38 40 41 41 41 41 39 38 37 37 37 35 36 36 35 35 36 37 37 37 37 38 39 39 38 39 40 41
42 37 35 41 39 37 37 35 35 33 28 22 21 26 38 39 41 41 41 40 38 37 36 36 36 36 36 35 33 34 35 35 35 35 36 37 37 37 37 36 37 37 38 38
44 37 29 36 43 44 40 37 36 27 27 27 25 27 43 41 42 44 40 38 35 34 32 32 32 33 34 32 34 33 34 33 34 35 34 35 36 36 36 35 36 36 36 37
40 30 26 32 35 39 36 39 40 37 32 29 24 26 43 42 41 41 36 35 33 32 31 30 31 32 32 32 33 33 33 33 33 34 33 33 34 34 34 34 34 35 35 35
44 33 32 29 32 36 33 37 40 37 26 29 30 31 39 39 37 37 34 32 31 31 32 33 32 31 32 32 32 32 32 33 32 33 32 30 31 32 32 33 33 33 33 32
38 30 32 35 39 39 36 36 37 34 33 27 31 32 30 35 35 32 33 34 32 31 31 31 31 30 30 31 31 31 31 31 31 29 29 28 29 30 31 30 31 31 31 31
38 29 32 32 38 39 34 35 35 36 36 35 34 28 32 33 34 33 33 31 30 30 30 30 30 29 28 29 29 28 27 28 28 27 27 27 28 28 28 28 28 29 29 29
35 30 28 25 33 33 26 33 35 37 35 33 24 31 32 30 29 29 28 31 30 29 28 27 27 28 28 28 28 25 23 25 25 24 25 26 26 25 25 27 26 26 26 27
33 32 29 26 29 18 29 35 35 32 30 32 31 30 30 31 30 28 27 29 28 27 26 26 26 26 24 22 23 26 25 26 24 23 23 24 24 24 24 24 24 24 25 25
39 32 26 22 22 27 29 30 24 25 27 30 28 28 31 29 28 26 29 29 23 20 22 24 25 21 21 24 28 29 28 27 25 24 23 24 23 22 22 22 22 23 24 25
37 38 28 22 18 9 21 32 35 32 19 29 30 28 27 27 21 17 27 25 23 23 24 26 26 25 28 28 30 28 27 26 24 24 24 24 24 22 21 22 22 23 24 24
27 27 26 22 19 24 31 32 35 18 20 28 29 29 30 24 23 25 26 22 24 26 28 29 27 26 27 29 29 26 26 25 25 26 25 24 24 24 23 23 24 23 23 24
28 26 21 21 17 18 32 31 26 24 25 28 24 23 30 27 25 25 24 24 26 27 28 28 27 26 28 28 27 25 24 26 27 25 25 24 24 24 24 23 24 24 23 22
24 26 23 27 24 26 28 24 28 30 27 29 25 23 28 26 26 26 26 27 28 27 27 28 27 26 27 28 28 24 24 27 27 27 24 23 24 24 24 22 22 24 24 21
30 34 25 27 26 26 28 29 29 28 28 24 25 25 25 23 25 25 26 26 26 27 26 26 26 25 25 27 27 28 29 28 27 26 26 26 26 24 24 24 24 23 23 22
29 33 28 27 28 30 29 31 30 29 30 28 25 24 24 24 24 25 25 26 26 26 26 27 26 25 24 25 25 26 28 29 29 27 27 26 26 25 23 22 23 23 24 26
28 28 26 23 30 29 28 29 29 28 27 26 25 25 26 27 25 26 25 26 26 25 26 25 25 24 23 24 23 24 26 27 26 26 25 24 24 23 22 21 20 27 28 28